Time,TemperatureF,DewpointF,PressureIn,WindDirection,WindDirectionDegrees,WindSpeedMPH,WindSpeedGustMPH,Humidity,HourlyPrecipIn,Conditions,Clouds,dailyrainin,SoftwareType,DateUTC
2013-07-08 00:00:00,75.6,68.6,29.00,South,191,0.0,2.7,79,0.00,,---,0.00,VWS V14.01,2013-07-08 04:00:00,
2013-07-08 00:01:00,75.6,68.6,29.00,SW,232,0.0,3.1,79,0.00,,---,0.00,VWS V14.01,2013-07-08 04:01:00,
2013-07-08 00:02:00,75.7,68.8,29.00,SW,232,0.0,0.0,79,0.00,,---,0.00,VWS V14.01,2013-07-08 04:02:00,
2013-07-08 00:03:00,75.6,68.6,29.00,SW,232,0.0,0.0,79,0.00,,---,0.00,VWS V14.01,2013-07-08 04:03:00,
2013-07-08 00:04:00,75.6,68.6,29.00,WNW,282,4.9,4.9,79,0.00,,---,0.00,VWS V14.01,2013-07-08 04:04:00,
2013-07-08 00:05:00,75.7,68.8,29.00,SE,136,0.0,4.9,79,0.00,,---,0.00,VWS V14.01,2013-07-08 04:05:00,
2013-07-08 00:06:00,75.7,68.8,29.00,ESE,121,0.0,5.4,79,0.00,,---,0.00,VWS V14.01,2013-07-08 04:06:00,
2013-07-08 00:07:00,75.7,68.8,29.00,WSW,258,0.0,3.1,79,0.00,,---,0.00,VWS V14.01,2013-07-08 04:07:00,
2013-07-08 00:08:00,75.6,68.6,29.00,West,259,0.0,0.0,79,0.00,,---,0.00,VWS V14.01,2013-07-08 04:08:00,
2013-07-08 00:09:00,75.6,68.6,29.00,West,259,0.0,0.0,79,0.00,,---,0.00,VWS V14.01,2013-07-08 04:09:00,
2013-07-08 00:10:00,75.6,68.6,29.00,WSW,258,0.0,0.0,79,0.00,,---,0.00,VWS V14.01,2013-07-08 04:10:00,
2013-07-08 00:11:00,75.6,68.6,29.00,WSW,258,0.0,0.0,79,0.00,,---,0.00,VWS V14.01,2013-07-08 04:11:00,
2013-07-08 00:12:00,75.6,68.6,29.00,WSW,242,0.0,4.9,79,0.00,,---,0.00,VWS V14.01,2013-07-08 04:12:00,
2013-07-08 00:13:00,75.6,68.6,29.00,WSW,242,0.0,0.0,79,0.00,,---,0.00,VWS V14.01,2013-07-08 04:13:00,
2013-07-08 00:14:00,75.6,68.6,29.00,SE,128,2.7,4.9,79,0.00,,---,0.00,VWS V14.01,2013-07-08 04:14:00,
2013-07-08 00:15:00,75.6,68.6,29.00,WSW,237,4.5,4.5,79,0.00,,---,0.00,VWS V14.01,2013-07-08 04:15:00,
2013-07-08 00:16:00,75.6,68.6,29.00,West,272,3.6,5.4,79,0.00,,---,0.00,VWS V14.01,2013-07-08 04:16:00,
2013-07-08 00:17:00,75.6,68.6,29.00,SW,219,0.0,3.6,79,0.00,,---,0.00,VWS V14.01,2013-07-08 04:17:00,
2013-07-08 00:18:00,75.6,68.6,29.00,SW,229,0.0,0.0,79,0.00,,---,0.00,VWS V14.01,2013-07-08 04:18:00,
2013-07-08 00:19:00,75.6,68.6,29.00,SW,230,2.7,4.0,79,0.00,,---,0.00,VWS V14.01,2013-07-08 04:19:00,
2013-07-08 00:20:00,75.6,68.6,29.00,SW,230,0.0,2.7,79,0.00,,---,0.00,VWS V14.01,2013-07-08 04:20:00,
2013-07-08 00:21:00,75.4,68.4,29.00,SW,230,0.0,0.0,79,0.00,,---,0.00,VWS V14.01,2013-07-08 04:21:00,
2013-07-08 00:22:00,75.4,68.4,29.00,SW,230,0.0,0.0,79,0.00,,---,0.00,VWS V14.01,2013-07-08 04:22:00,
2013-07-08 00:23:00,75.4,68.4,29.00,WSW,251,0.0,3.6,79,0.00,,---,0.00,VWS V14.01,2013-07-08 04:23:00,
2013-07-08 00:24:00,75.4,68.4,29.00,WSW,251,0.0,0.0,79,0.00,,---,0.00,VWS V14.01,2013-07-08 04:24:00,
2013-07-08 00:25:00,75.4,68.4,29.00,West,262,0.0,4.0,79,0.00,,---,0.00,VWS V14.01,2013-07-08 04:25:00,
2013-07-08 00:26:00,75.4,68.4,29.00,WSW,242,3.6,4.0,79,0.00,,---,0.00,VWS V14.01,2013-07-08 04:26:00,
2013-07-08 00:27:00,75.4,68.4,29.00,WSW,246,2.7,3.6,79,0.00,,---,0.00,VWS V14.01,2013-07-08 04:27:00,
2013-07-08 00:28:00,75.4,68.4,29.00,WSW,246,0.0,3.1,79,0.00,,---,0.00,VWS V14.01,2013-07-08 04:28:00,
2013-07-08 00:29:00,75.4,68.4,29.00,WSW,246,0.0,0.0,79,0.00,,---,0.00,VWS V14.01,2013-07-08 04:29:00,
2013-07-08 00:30:00,75.2,68.2,29.00,WSW,246,0.0,0.0,79,0.00,,---,0.00,VWS V14.01,2013-07-08 04:30:00,
2013-07-08 00:31:00,75.2,68.6,29.00,NW,323,0.0,4.5,80,0.00,,---,0.00,VWS V14.01,2013-07-08 04:31:00,
2013-07-08 00:32:00,75.2,68.6,29.00,SW,236,3.1,3.1,80,0.00,,---,0.00,VWS V14.01,2013-07-08 04:32:00,
2013-07-08 00:33:00,75.2,68.6,29.00,North,351,0.0,3.1,80,0.00,,---,0.00,VWS V14.01,2013-07-08 04:33:00,
2013-07-08 00:34:00,75.2,68.6,29.00,West,267,3.1,3.6,80,0.00,,---,0.00,VWS V14.01,2013-07-08 04:34:00,
2013-07-08 00:35:00,75.2,68.6,29.00,West,261,3.6,3.6,80,0.00,,---,0.00,VWS V14.01,2013-07-08 04:35:00,
2013-07-08 00:36:00,75.2,68.6,29.00,WSW,257,0.0,4.0,80,0.00,,---,0.00,VWS V14.01,2013-07-08 04:36:00,
2013-07-08 00:37:00,75.2,68.6,29.00,WSW,257,0.0,0.0,80,0.00,,---,0.00,VWS V14.01,2013-07-08 04:37:00,
2013-07-08 00:38:00,75.2,68.6,29.00,WSW,257,0.0,0.0,80,0.00,,---,0.00,VWS V14.01,2013-07-08 04:38:00,
2013-07-08 00:39:00,75.2,68.6,29.00,South,171,4.0,4.9,80,0.00,,---,0.00,VWS V14.01,2013-07-08 04:39:00,
2013-07-08 00:40:00,75.2,68.6,29.00,SE,144,0.0,4.0,80,0.00,,---,0.00,VWS V14.01,2013-07-08 04:40:00,
2013-07-08 00:41:00,75.2,68.6,29.00,SW,231,0.0,4.0,80,0.00,,---,0.00,VWS V14.01,2013-07-08 04:41:00,
2013-07-08 00:42:00,75.2,68.6,29.00,SW,231,0.0,0.0,80,0.00,,---,0.00,VWS V14.01,2013-07-08 04:42:00,
2013-07-08 00:43:00,75.2,68.6,29.00,SW,231,0.0,0.0,80,0.00,,---,0.00,VWS V14.01,2013-07-08 04:43:00,
2013-07-08 00:44:00,75.2,68.6,29.00,West,277,2.7,4.5,80,0.00,,---,0.00,VWS V14.01,2013-07-08 04:44:00,
2013-07-08 00:45:00,75.2,68.6,29.00,South,181,0.0,2.7,80,0.00,,---,0.00,VWS V14.01,2013-07-08 04:45:00,
2013-07-08 00:46:00,75.2,68.6,29.00,South,181,0.0,0.0,80,0.00,,---,0.00,VWS V14.01,2013-07-08 04:46:00,
2013-07-08 00:47:00,75.2,68.6,29.00,WNW,288,0.0,0.0,80,0.00,,---,0.00,VWS V14.01,2013-07-08 04:47:00,
2013-07-08 00:48:00,75.2,68.6,29.00,WSW,241,2.7,5.4,80,0.00,,---,0.00,VWS V14.01,2013-07-08 04:48:00,
2013-07-08 00:49:00,75.2,68.6,29.00,WSW,241,0.0,4.5,80,0.00,,---,0.00,VWS V14.01,2013-07-08 04:49:00,
2013-07-08 00:50:00,75.2,68.6,29.00,WSW,241,0.0,0.0,80,0.00,,---,0.00,VWS V14.01,2013-07-08 04:50:00,
2013-07-08 00:51:00,75.2,68.6,29.00,WSW,241,0.0,0.0,80,0.00,,---,0.00,VWS V14.01,2013-07-08 04:51:00,
2013-07-08 00:52:00,75.2,68.6,29.00,ESE,120,0.0,4.5,80,0.00,,---,0.00,VWS V14.01,2013-07-08 04:52:00,
2013-07-08 00:53:00,75.2,68.6,29.00,SSE,161,0.0,0.0,80,0.00,,---,0.00,VWS V14.01,2013-07-08 04:53:00,
2013-07-08 00:54:00,75.2,68.6,29.00,WSW,239,2.7,4.9,80,0.00,,---,0.00,VWS V14.01,2013-07-08 04:54:00,
2013-07-08 00:55:00,75.2,68.6,29.00,WSW,239,0.0,3.1,80,0.00,,---,0.00,VWS V14.01,2013-07-08 04:55:00,
2013-07-08 00:56:00,75.2,68.6,29.00,SSW,206,0.0,3.6,80,0.00,,---,0.00,VWS V14.01,2013-07-08 04:56:00,
2013-07-08 00:57:00,75.2,68.6,29.00,SSW,206,0.0,0.0,80,0.00,,---,0.00,VWS V14.01,2013-07-08 04:57:00,
2013-07-08 00:58:00,75.2,68.6,29.00,North,356,3.6,3.6,80,0.00,,---,0.00,VWS V14.01,2013-07-08 04:58:00,
2013-07-08 00:59:00,75.2,68.6,29.00,SW,218,3.6,4.9,80,0.00,,---,0.00,VWS V14.01,2013-07-08 04:59:00,
2013-07-08 01:00:00,75.2,68.6,29.00,West,263,0.0,4.9,80,0.00,,---,0.00,VWS V14.01,2013-07-08 05:00:00,
2013-07-08 01:01:00,75.2,68.6,29.00,WSW,238,4.0,6.3,80,0.00,,---,0.00,VWS V14.01,2013-07-08 05:01:00,
2013-07-08 01:02:00,75.2,68.6,29.00,SW,230,0.0,4.5,80,0.00,,---,0.00,VWS V14.01,2013-07-08 05:02:00,
2013-07-08 01:03:00,75.2,68.6,29.00,SW,230,0.0,0.0,80,0.00,,---,0.00,VWS V14.01,2013-07-08 05:03:00,
2013-07-08 01:04:00,75.2,68.6,29.00,West,273,3.1,3.6,80,0.00,,---,0.00,VWS V14.01,2013-07-08 05:04:00,
2013-07-08 01:05:00,75.2,68.6,29.00,West,275,2.7,3.1,80,0.00,,---,0.00,VWS V14.01,2013-07-08 05:05:00,
2013-07-08 01:06:00,75.2,68.6,29.00,WSW,242,0.0,4.9,80,0.00,,---,0.00,VWS V14.01,2013-07-08 05:06:00,
2013-07-08 01:07:00,75.2,68.6,29.00,SW,235,0.0,4.5,80,0.00,,---,0.00,VWS V14.01,2013-07-08 05:07:00,
2013-07-08 01:08:00,75.2,68.6,29.00,SW,235,0.0,0.0,80,0.00,,---,0.00,VWS V14.01,2013-07-08 05:08:00,
2013-07-08 01:09:00,75.2,68.6,29.00,WSW,241,0.0,4.5,80,0.00,,---,0.00,VWS V14.01,2013-07-08 05:09:00,
2013-07-08 01:10:00,75.2,68.6,29.00,WSW,241,2.7,3.6,80,0.00,,---,0.00,VWS V14.01,2013-07-08 05:10:00,
2013-07-08 01:11:00,75.2,68.6,29.00,WSW,241,0.0,2.7,80,0.00,,---,0.00,VWS V14.01,2013-07-08 05:11:00,
2013-07-08 01:12:00,75.2,68.6,29.00,WSW,242,0.0,0.0,80,0.00,,---,0.00,VWS V14.01,2013-07-08 05:12:00,
2013-07-08 01:13:00,75.2,68.6,29.00,SW,233,0.0,6.9,80,0.00,,---,0.00,VWS V14.01,2013-07-08 05:13:00,
2013-07-08 01:14:00,75.0,68.4,29.00,SW,231,0.0,4.5,80,0.00,,---,0.00,VWS V14.01,2013-07-08 05:14:00,
2013-07-08 01:15:00,75.0,68.4,29.00,SW,225,0.0,3.6,80,0.00,,---,0.00,VWS V14.01,2013-07-08 05:15:00,
2013-07-08 01:16:00,75.0,68.4,29.00,SW,226,0.0,0.0,80,0.00,,---,0.00,VWS V14.01,2013-07-08 05:16:00,
2013-07-08 01:17:00,75.0,68.4,29.00,SW,226,0.0,0.0,80,0.00,,---,0.00,VWS V14.01,2013-07-08 05:17:00,
2013-07-08 01:18:00,75.0,68.4,29.00,SW,226,0.0,0.0,80,0.00,,---,0.00,VWS V14.01,2013-07-08 05:18:00,
2013-07-08 01:19:00,75.0,68.4,29.00,SSW,212,0.0,4.5,80,0.00,,---,0.00,VWS V14.01,2013-07-08 05:19:00,
2013-07-08 01:20:00,74.8,68.3,29.00,WSW,244,5.4,5.4,80,0.00,,---,0.00,VWS V14.01,2013-07-08 05:20:00,
2013-07-08 01:21:00,74.8,68.3,29.00,WSW,248,2.7,5.8,80,0.00,,---,0.00,VWS V14.01,2013-07-08 05:21:00,
2013-07-08 01:22:00,75.0,68.4,29.00,SW,226,4.0,8.7,80,0.00,,---,0.00,VWS V14.01,2013-07-08 05:22:00,
2013-07-08 01:23:00,74.8,68.3,29.00,SW,221,0.0,4.0,80,0.00,,---,0.00,VWS V14.01,2013-07-08 05:23:00,
2013-07-08 01:24:00,74.8,68.3,29.00,WSW,239,4.0,6.7,80,0.00,,---,0.00,VWS V14.01,2013-07-08 05:24:00,
2013-07-08 01:25:00,74.8,68.3,29.00,WSW,245,3.1,5.4,80,0.00,,---,0.00,VWS V14.01,2013-07-08 05:25:00,
2013-07-08 01:26:00,74.8,68.3,29.00,WSW,245,0.0,3.1,80,0.00,,---,0.00,VWS V14.01,2013-07-08 05:26:00,
2013-07-08 01:27:00,74.8,68.3,28.97,WSW,250,0.0,3.1,80,0.00,,---,0.00,VWS V14.01,2013-07-08 05:27:00,
2013-07-08 01:28:00,74.8,68.3,28.97,SW,230,0.0,6.9,80,0.00,,---,0.00,VWS V14.01,2013-07-08 05:28:00,
2013-07-08 01:29:00,74.8,68.3,28.97,SW,230,0.0,0.0,80,0.00,,---,0.00,VWS V14.01,2013-07-08 05:29:00,
2013-07-08 01:30:00,74.8,68.3,28.97,WSW,257,4.5,4.5,80,0.00,,---,0.00,VWS V14.01,2013-07-08 05:30:00,
2013-07-08 01:31:00,74.8,68.3,28.97,SW,236,5.4,6.3,80,0.00,,---,0.00,VWS V14.01,2013-07-08 05:31:00,
2013-07-08 01:32:00,74.8,68.3,28.97,West,274,5.4,5.4,80,0.00,,---,0.00,VWS V14.01,2013-07-08 05:32:00,
2013-07-08 01:33:00,74.8,68.6,28.97,West,260,0.0,5.4,81,0.00,,---,0.00,VWS V14.01,2013-07-08 05:33:00,
2013-07-08 01:34:00,72.7,61.9,29.03,SW,231,0.0,0.0,69,0.00,,---,0.00,VWS V14.01,2013-07-08 05:34:00,
2013-07-08 01:35:00,74.8,68.6,28.97,WSW,252,0.0,3.1,81,0.00,,---,0.00,VWS V14.01,2013-07-08 05:35:00,
2013-07-08 01:36:00,74.8,68.6,28.97,WSW,239,3.6,4.9,81,0.00,,---,0.00,VWS V14.01,2013-07-08 05:36:00,
2013-07-08 01:37:00,74.8,68.6,28.97,SW,229,0.0,3.6,81,0.00,,---,0.00,VWS V14.01,2013-07-08 05:37:00,
2013-07-08 01:38:00,74.8,68.6,28.97,West,270,3.6,5.4,81,0.00,,---,0.00,VWS V14.01,2013-07-08 05:38:00,
2013-07-08 01:39:00,72.7,61.5,29.03,WSW,246,0.0,2.7,68,0.00,,---,0.00,VWS V14.01,2013-07-08 05:39:00,
2013-07-08 01:40:00,74.8,68.6,28.97,WNW,285,5.4,6.9,81,0.00,,---,0.00,VWS V14.01,2013-07-08 05:40:00,
2013-07-08 01:41:00,74.8,68.6,28.97,NW,311,3.1,6.3,81,0.00,,---,0.00,VWS V14.01,2013-07-08 05:41:00,
2013-07-08 01:42:00,74.8,68.6,28.97,SSW,196,3.1,4.9,81,0.00,,---,0.00,VWS V14.01,2013-07-08 05:42:00,
2013-07-08 01:43:00,74.8,68.6,28.97,WNW,282,2.7,6.3,81,0.00,,---,0.00,VWS V14.01,2013-07-08 05:43:00,
2013-07-08 01:44:00,72.9,61.7,29.03,WSW,247,4.5,4.5,68,0.00,,---,0.00,VWS V14.01,2013-07-08 05:44:00,
2013-07-08 01:45:00,74.8,68.3,28.97,WSW,253,4.0,6.7,80,0.00,,---,0.00,VWS V14.01,2013-07-08 05:45:00,
2013-07-08 01:46:00,74.8,68.3,28.97,West,264,4.9,4.9,80,0.00,,---,0.00,VWS V14.01,2013-07-08 05:46:00,
2013-07-08 01:47:00,74.8,68.3,28.97,West,261,0.0,5.8,80,0.00,,---,0.00,VWS V14.01,2013-07-08 05:47:00,
2013-07-08 01:48:00,74.7,68.1,28.97,WSW,250,6.9,6.9,80,0.00,,---,0.00,VWS V14.01,2013-07-08 05:48:00,
2013-07-08 01:49:00,72.9,61.3,29.03,West,270,5.8,5.8,67,0.00,,---,0.00,VWS V14.01,2013-07-08 05:49:00,
2013-07-08 01:50:00,74.7,68.1,28.97,SSW,212,0.0,4.9,80,0.00,,---,0.00,VWS V14.01,2013-07-08 05:50:00,
2013-07-08 01:51:00,74.7,68.1,28.97,SW,229,2.7,4.9,80,0.00,,---,0.00,VWS V14.01,2013-07-08 05:51:00,
2013-07-08 01:52:00,74.7,68.1,28.97,WSW,242,4.0,4.0,80,0.00,,---,0.00,VWS V14.01,2013-07-08 05:52:00,
2013-07-08 01:53:00,74.7,68.4,28.97,WNW,287,3.6,4.9,81,0.00,,---,0.00,VWS V14.01,2013-07-08 05:53:00,
2013-07-08 01:54:00,74.7,68.4,28.97,WNW,286,0.0,5.4,81,0.00,,---,0.00,VWS V14.01,2013-07-08 05:54:00,
2013-07-08 01:55:00,72.9,61.3,29.03,WSW,243,0.0,0.0,67,0.00,,---,0.00,VWS V14.01,2013-07-08 05:55:00,
2013-07-08 01:56:00,74.7,68.4,28.97,WSW,248,3.1,6.3,81,0.00,,---,0.00,VWS V14.01,2013-07-08 05:56:00,
2013-07-08 01:57:00,74.7,68.4,28.97,WNW,294,2.7,4.5,81,0.00,,---,0.00,VWS V14.01,2013-07-08 05:57:00,
2013-07-08 01:58:00,74.7,68.4,28.97,WNW,282,0.0,4.0,81,0.00,,---,0.00,VWS V14.01,2013-07-08 05:58:00,
2013-07-08 01:59:00,74.7,68.4,28.97,West,264,4.0,4.5,81,0.00,,---,0.00,VWS V14.01,2013-07-08 05:59:00,
2013-07-08 02:00:00,72.7,61.5,29.03,WSW,238,0.0,0.0,68,0.00,,---,0.00,VWS V14.01,2013-07-08 06:00:00,
2013-07-08 02:01:00,74.5,68.3,28.97,SW,218,0.0,5.8,81,0.00,,---,0.00,VWS V14.01,2013-07-08 06:01:00,
2013-07-08 02:02:00,74.5,68.3,28.97,SW,227,2.7,5.4,81,0.00,,---,0.00,VWS V14.01,2013-07-08 06:02:00,
2013-07-08 02:03:00,74.5,68.3,28.97,West,276,5.8,5.8,81,0.00,,---,0.00,VWS V14.01,2013-07-08 06:03:00,
2013-07-08 02:04:00,74.5,68.3,28.97,WNW,288,3.6,5.8,81,0.00,,---,0.00,VWS V14.01,2013-07-08 06:04:00,
2013-07-08 02:05:00,72.5,61.3,29.03,WSW,246,0.0,0.0,68,0.00,,---,0.00,VWS V14.01,2013-07-08 06:05:00,
2013-07-08 02:06:00,74.5,68.3,28.97,SW,236,2.7,6.9,81,0.00,,---,0.00,VWS V14.01,2013-07-08 06:06:00,
2013-07-08 02:07:00,74.5,68.3,28.97,NW,322,3.1,5.8,81,0.00,,---,0.00,VWS V14.01,2013-07-08 06:07:00,
2013-07-08 02:08:00,74.5,68.3,28.97,WNW,299,0.0,4.9,81,0.00,,---,0.00,VWS V14.01,2013-07-08 06:08:00,
2013-07-08 02:09:00,74.5,68.3,28.97,WSW,242,0.0,5.8,81,0.00,,---,0.00,VWS V14.01,2013-07-08 06:09:00,
2013-07-08 02:10:00,72.3,61.6,29.03,WSW,246,0.0,5.4,69,0.00,,---,0.00,VWS V14.01,2013-07-08 06:10:00,
2013-07-08 02:11:00,74.5,68.3,28.97,WNW,283,0.0,3.6,81,0.00,,---,0.00,VWS V14.01,2013-07-08 06:11:00,
2013-07-08 02:12:00,74.5,68.3,28.97,WSW,250,3.1,4.5,81,0.00,,---,0.00,VWS V14.01,2013-07-08 06:12:00,
2013-07-08 02:14:00,74.5,68.3,28.97,WNW,285,6.3,6.3,81,0.00,,---,0.00,VWS V14.01,2013-07-08 06:14:00,
2013-07-08 02:15:00,72.3,61.6,29.03,WSW,243,0.0,0.0,69,0.00,,---,0.00,VWS V14.01,2013-07-08 06:15:00,
2013-07-08 02:16:00,74.5,68.3,28.97,WSW,257,6.7,8.3,81,0.00,,---,0.00,VWS V14.01,2013-07-08 06:16:00,
2013-07-08 02:17:00,74.5,68.3,28.97,WSW,239,4.5,6.7,81,0.00,,---,0.00,VWS V14.01,2013-07-08 06:17:00,
2013-07-08 02:18:00,74.5,68.3,28.97,WNW,283,0.0,4.5,81,0.00,,---,0.00,VWS V14.01,2013-07-08 06:18:00,
2013-07-08 02:19:00,74.7,68.4,28.97,WNW,283,4.0,9.6,81,0.00,,---,0.00,VWS V14.01,2013-07-08 06:19:00,
2013-07-08 02:21:00,72.1,61.8,29.03,WSW,243,0.0,0.0,70,0.00,,---,0.00,VWS V14.01,2013-07-08 06:21:00,
2013-07-08 02:22:00,74.7,68.1,28.97,SW,218,0.0,3.6,80,0.00,,---,0.00,VWS V14.01,2013-07-08 06:22:00,
2013-07-08 02:23:00,74.7,68.1,28.97,WSW,254,4.5,4.5,80,0.00,,---,0.00,VWS V14.01,2013-07-08 06:23:00,
2013-07-08 02:25:00,74.7,68.1,28.97,SW,215,2.7,4.9,80,0.00,,---,0.00,VWS V14.01,2013-07-08 06:25:00,
2013-07-08 02:26:00,72.1,61.8,29.03,NNW,335,0.0,0.0,70,0.00,,---,0.00,VWS V14.01,2013-07-08 06:26:00,
2013-07-08 02:27:00,74.5,67.9,28.97,WNW,299,4.9,4.9,80,0.00,,---,0.00,VWS V14.01,2013-07-08 06:27:00,
2013-07-08 02:28:00,74.7,68.1,28.97,WSW,240,0.0,5.8,80,0.00,,---,0.00,VWS V14.01,2013-07-08 06:28:00,
2013-07-08 02:30:00,74.7,68.1,28.97,WSW,253,0.0,5.8,80,0.00,,---,0.00,VWS V14.01,2013-07-08 06:30:00,
2013-07-08 02:31:00,72.0,61.7,29.03,WSW,257,0.0,2.7,70,0.00,,---,0.00,VWS V14.01,2013-07-08 06:31:00,
2013-07-08 02:32:00,74.5,67.9,28.97,SW,225,0.0,5.8,80,0.00,,---,0.00,VWS V14.01,2013-07-08 06:32:00,
2013-07-08 02:33:00,74.5,67.9,28.97,WSW,255,0.0,4.0,80,0.00,,---,0.00,VWS V14.01,2013-07-08 06:33:00,
2013-07-08 02:35:00,74.5,67.9,28.97,WNW,282,3.1,6.3,80,0.00,,---,0.00,VWS V14.01,2013-07-08 06:35:00,
2013-07-08 02:36:00,71.8,61.9,29.03,SW,223,2.7,3.1,71,0.00,,---,0.00,VWS V14.01,2013-07-08 06:36:00,
2013-07-08 02:37:00,74.5,68.3,28.97,WSW,238,5.4,10.5,81,0.00,,---,0.00,VWS V14.01,2013-07-08 06:37:00,
2013-07-08 02:38:00,74.5,68.3,28.97,WSW,248,3.1,6.7,81,0.00,,---,0.00,VWS V14.01,2013-07-08 06:38:00,
2013-07-08 02:39:00,74.5,68.3,28.97,WSW,254,3.1,5.4,81,0.00,,---,0.00,VWS V14.01,2013-07-08 06:39:00,
2013-07-08 02:40:00,74.5,68.3,28.97,WSW,257,0.0,4.9,81,0.00,,---,0.00,VWS V14.01,2013-07-08 06:40:00,
2013-07-08 02:41:00,71.8,61.9,29.03,WSW,241,0.0,3.6,71,0.00,,---,0.00,VWS V14.01,2013-07-08 06:41:00,
2013-07-08 02:42:00,74.5,67.9,28.97,WNW,282,5.4,5.8,80,0.00,,---,0.00,VWS V14.01,2013-07-08 06:42:00,
2013-07-08 02:43:00,74.7,68.1,28.97,WNW,285,0.0,5.8,80,0.00,,---,0.00,VWS V14.01,2013-07-08 06:43:00,
2013-07-08 02:44:00,74.5,67.9,28.97,WNW,287,0.0,2.7,80,0.00,,---,0.00,VWS V14.01,2013-07-08 06:44:00,
2013-07-08 02:45:00,74.5,67.9,28.97,SSW,196,4.0,5.8,80,0.00,,---,0.00,VWS V14.01,2013-07-08 06:45:00,
2013-07-08 02:46:00,71.6,61.7,29.03,SW,235,0.0,2.7,71,0.00,,---,0.00,VWS V14.01,2013-07-08 06:46:00,
2013-07-08 02:47:00,74.5,67.9,28.97,NNW,336,4.0,8.3,80,0.00,,---,0.00,VWS V14.01,2013-07-08 06:47:00,
2013-07-08 02:48:00,74.5,67.9,28.97,West,264,3.6,6.3,80,0.00,,---,0.00,VWS V14.01,2013-07-08 06:48:00,
2013-07-08 02:49:00,74.7,68.1,28.97,West,279,5.8,6.9,80,0.00,,---,0.00,VWS V14.01,2013-07-08 06:49:00,
2013-07-08 02:50:00,74.5,67.9,28.97,NW,314,3.6,6.7,80,0.00,,---,0.00,VWS V14.01,2013-07-08 06:50:00,
2013-07-08 02:51:00,71.6,62.1,29.03,SW,232,4.5,4.5,72,0.00,,---,0.00,VWS V14.01,2013-07-08 06:51:00,
2013-07-08 02:52:00,74.5,67.9,28.97,WSW,240,4.9,7.8,80,0.00,,---,0.00,VWS V14.01,2013-07-08 06:52:00,
2013-07-08 02:53:00,74.5,67.9,28.97,WSW,242,4.5,4.9,80,0.00,,---,0.00,VWS V14.01,2013-07-08 06:53:00,
2013-07-08 02:54:00,74.5,67.9,28.97,SW,218,4.0,4.5,80,0.00,,---,0.00,VWS V14.01,2013-07-08 06:54:00,
2013-07-08 02:55:00,74.5,67.9,28.97,West,278,2.7,4.0,80,0.00,,---,0.00,VWS V14.01,2013-07-08 06:55:00,
2013-07-08 02:56:00,71.6,62.1,29.03,SW,235,0.0,0.0,72,0.00,,---,0.00,VWS V14.01,2013-07-08 06:56:00,
2013-07-08 02:57:00,74.5,67.9,28.97,WSW,242,2.7,6.3,80,0.00,,---,0.00,VWS V14.01,2013-07-08 06:57:00,
2013-07-08 02:58:00,74.5,67.9,28.97,WNW,282,0.0,5.8,80,0.00,,---,0.00,VWS V14.01,2013-07-08 06:58:00,
2013-07-08 02:59:00,74.5,67.9,28.97,West,281,4.9,7.4,80,0.00,,---,0.00,VWS V14.01,2013-07-08 06:59:00,
2013-07-08 03:00:00,74.5,67.9,28.97,SW,236,6.3,6.3,80,0.00,,---,0.00,VWS V14.01,2013-07-08 07:00:00,
2013-07-08 03:01:00,71.4,62.3,29.03,WSW,258,0.0,0.0,73,0.00,,---,0.00,VWS V14.01,2013-07-08 07:01:00,
2013-07-08 03:02:00,74.5,67.9,28.97,WSW,239,3.6,6.3,80,0.00,,---,0.00,VWS V14.01,2013-07-08 07:02:00,
2013-07-08 03:03:00,74.5,67.9,28.97,West,267,0.0,4.9,80,0.00,,---,0.00,VWS V14.01,2013-07-08 07:03:00,
2013-07-08 03:04:00,74.5,67.9,28.97,West,266,0.0,3.1,80,0.00,,---,0.00,VWS V14.01,2013-07-08 07:04:00,
2013-07-08 03:05:00,74.5,67.9,28.97,WSW,254,4.0,4.5,80,0.00,,---,0.00,VWS V14.01,2013-07-08 07:05:00,
2013-07-08 03:06:00,71.4,62.3,29.03,West,260,0.0,0.0,73,0.00,,---,0.00,VWS V14.01,2013-07-08 07:06:00,
2013-07-08 03:07:00,74.5,67.9,28.97,WNW,293,4.0,4.9,80,0.00,,---,0.00,VWS V14.01,2013-07-08 07:07:00,
2013-07-08 03:08:00,74.5,67.9,28.97,NNW,344,2.7,4.0,80,0.00,,---,0.00,VWS V14.01,2013-07-08 07:08:00,
2013-07-08 03:09:00,74.3,67.7,28.97,WSW,244,3.1,3.1,80,0.00,,---,0.00,VWS V14.01,2013-07-08 07:09:00,
2013-07-08 03:10:00,74.3,67.7,28.97,SW,229,0.0,4.5,80,0.00,,---,0.00,VWS V14.01,2013-07-08 07:10:00,
2013-07-08 03:11:00,71.6,62.5,29.03,SSW,209,0.0,4.5,73,0.00,,---,0.00,VWS V14.01,2013-07-08 07:11:00,
2013-07-08 03:12:00,74.3,67.7,28.97,WNW,286,2.7,4.9,80,0.00,,---,0.00,VWS V14.01,2013-07-08 07:12:00,
2013-07-08 03:14:00,74.3,67.7,28.97,SSW,203,5.8,6.3,80,0.00,,---,0.00,VWS V14.01,2013-07-08 07:14:00,
2013-07-08 03:15:00,74.3,68.1,28.97,WSW,258,3.1,5.8,81,0.00,,---,0.00,VWS V14.01,2013-07-08 07:15:00,
2013-07-08 03:16:00,71.6,62.5,29.00,WNW,290,3.6,5.8,73,0.00,,---,0.00,VWS V14.01,2013-07-08 07:16:00,
2013-07-08 03:17:00,74.3,68.1,28.97,West,276,4.5,5.4,81,0.00,,---,0.00,VWS V14.01,2013-07-08 07:17:00,
2013-07-08 03:18:00,74.3,68.1,28.97,WSW,247,4.5,4.5,81,0.00,,---,0.00,VWS V14.01,2013-07-08 07:18:00,
2013-07-08 03:19:00,74.3,68.1,28.97,WSW,249,4.9,4.9,81,0.00,,---,0.00,VWS V14.01,2013-07-08 07:19:00,
2013-07-08 03:20:00,74.3,68.1,28.97,West,261,2.7,5.4,81,0.00,,---,0.00,VWS V14.01,2013-07-08 07:20:00,
2013-07-08 03:21:00,71.8,62.7,29.00,SW,225,3.6,5.4,73,0.00,,---,0.00,VWS V14.01,2013-07-08 07:21:00,
2013-07-08 03:22:00,74.3,68.1,28.97,SW,227,0.0,5.8,81,0.00,,---,0.00,VWS V14.01,2013-07-08 07:22:00,
2013-07-08 03:23:00,74.1,67.9,28.97,WSW,238,3.6,4.9,81,0.00,,---,0.00,VWS V14.01,2013-07-08 07:23:00,
2013-07-08 03:24:00,74.1,67.9,28.97,WNW,288,5.4,5.4,81,0.00,,---,0.00,VWS V14.01,2013-07-08 07:24:00,
2013-07-08 03:25:00,74.1,67.9,28.97,SW,229,4.0,6.9,81,0.00,,---,0.00,VWS V14.01,2013-07-08 07:25:00,
2013-07-08 03:26:00,72.0,62.5,29.00,SW,217,5.8,5.8,72,0.00,,---,0.00,VWS V14.01,2013-07-08 07:26:00,
2013-07-08 03:27:00,74.1,67.9,28.97,WSW,237,2.7,3.6,81,0.00,,---,0.00,VWS V14.01,2013-07-08 07:27:00,
2013-07-08 03:29:00,74.1,67.9,28.97,NW,311,0.0,4.9,81,0.00,,---,0.00,VWS V14.01,2013-07-08 07:29:00,
2013-07-08 03:30:00,74.1,67.9,28.97,West,277,2.7,3.1,81,0.00,,---,0.00,VWS V14.01,2013-07-08 07:30:00,
2013-07-08 03:31:00,72.1,62.6,29.03,SW,225,0.0,3.6,72,0.00,,---,0.00,VWS V14.01,2013-07-08 07:31:00,
2013-07-08 03:32:00,74.1,67.9,28.97,West,263,0.0,4.9,81,0.00,,---,0.00,VWS V14.01,2013-07-08 07:32:00,
2013-07-08 03:33:00,74.1,67.9,28.97,South,189,0.0,0.0,81,0.00,,---,0.00,VWS V14.01,2013-07-08 07:33:00,
2013-07-08 03:34:00,74.1,67.9,28.97,SW,231,3.6,3.6,81,0.00,,---,0.00,VWS V14.01,2013-07-08 07:34:00,
2013-07-08 03:35:00,74.1,67.9,28.97,West,278,6.7,6.7,81,0.00,,---,0.00,VWS V14.01,2013-07-08 07:35:00,
2013-07-08 03:36:00,72.5,62.6,29.03,SSW,213,4.5,5.4,71,0.00,,---,0.00,VWS V14.01,2013-07-08 07:36:00,
2013-07-08 03:37:00,74.1,67.9,28.97,SW,230,0.0,4.9,81,0.00,,---,0.00,VWS V14.01,2013-07-08 07:37:00,
2013-07-08 03:38:00,74.1,67.9,28.97,WNW,285,0.0,3.1,81,0.00,,---,0.00,VWS V14.01,2013-07-08 07:38:00,
2013-07-08 03:39:00,74.1,67.9,28.97,West,259,3.1,5.4,81,0.00,,---,0.00,VWS V14.01,2013-07-08 07:39:00,
2013-07-08 03:40:00,74.1,67.9,28.97,West,259,0.0,3.6,81,0.00,,---,0.00,VWS V14.01,2013-07-08 07:40:00,
2013-07-08 03:41:00,72.7,62.3,29.03,West,269,4.5,4.5,70,0.00,,---,0.00,VWS V14.01,2013-07-08 07:41:00,
2013-07-08 03:42:00,74.1,67.9,28.97,WSW,254,3.6,3.6,81,0.00,,---,0.00,VWS V14.01,2013-07-08 07:42:00,
2013-07-08 03:43:00,74.1,68.3,28.97,SW,224,2.7,8.3,82,0.00,,---,0.00,VWS V14.01,2013-07-08 07:43:00,
2013-07-08 03:44:00,73.9,68.1,28.97,SW,225,0.0,2.7,82,0.00,,---,0.00,VWS V14.01,2013-07-08 07:44:00,
2013-07-08 03:45:00,73.9,68.1,28.97,NW,313,3.1,3.1,82,0.00,,---,0.00,VWS V14.01,2013-07-08 07:45:00,
2013-07-08 03:46:00,72.9,62.5,29.00,WSW,240,3.6,7.8,70,0.00,,---,0.00,VWS V14.01,2013-07-08 07:46:00,
2013-07-08 03:47:00,73.9,68.1,28.97,WNW,290,0.0,3.6,82,0.00,,---,0.00,VWS V14.01,2013-07-08 07:47:00,
2013-07-08 03:48:00,73.9,68.1,28.97,West,262,0.0,5.4,82,0.00,,---,0.00,VWS V14.01,2013-07-08 07:48:00,
2013-07-08 03:49:00,73.9,68.1,28.97,SW,235,4.9,5.8,82,0.00,,---,0.00,VWS V14.01,2013-07-08 07:49:00,
2013-07-08 03:50:00,73.9,68.1,28.97,WSW,252,4.5,6.3,82,0.00,,---,0.00,VWS V14.01,2013-07-08 07:50:00,
2013-07-08 03:51:00,72.9,62.5,29.00,West,261,0.0,3.6,70,0.00,,---,0.00,VWS V14.01,2013-07-08 07:51:00,
2013-07-08 03:52:00,74.1,68.3,28.97,SW,228,0.0,6.7,82,0.00,,---,0.00,VWS V14.01,2013-07-08 07:52:00,
2013-07-08 03:53:00,74.1,68.3,28.97,West,265,0.0,5.4,82,0.00,,---,0.00,VWS V14.01,2013-07-08 07:53:00,
2013-07-08 03:54:00,73.9,68.1,28.97,West,265,0.0,0.0,82,0.00,,---,0.00,VWS V14.01,2013-07-08 07:54:00,
2013-07-08 03:56:00,72.9,62.5,29.00,WNW,284,0.0,3.6,70,0.00,,---,0.00,VWS V14.01,2013-07-08 07:56:00,
2013-07-08 03:57:00,73.9,67.8,28.97,NW,312,0.0,0.0,81,0.00,,---,0.00,VWS V14.01,2013-07-08 07:57:00,
2013-07-08 03:58:00,73.9,67.8,28.97,NW,312,0.0,0.0,81,0.00,,---,0.00,VWS V14.01,2013-07-08 07:58:00,
2013-07-08 03:59:00,73.9,67.8,28.97,WNW,300,3.1,3.1,81,0.00,,---,0.00,VWS V14.01,2013-07-08 07:59:00,
2013-07-08 04:00:00,73.9,67.8,28.97,SW,219,4.0,5.8,81,0.00,,---,0.00,VWS V14.01,2013-07-08 08:00:00,
2013-07-08 04:01:00,72.9,62.5,29.00,SW,229,4.5,5.4,70,0.00,,---,0.00,VWS V14.01,2013-07-08 08:01:00,
2013-07-08 04:03:00,74.1,67.9,28.97,West,269,3.1,3.6,81,0.00,,---,0.00,VWS V14.01,2013-07-08 08:03:00,
2013-07-08 04:04:00,73.9,67.8,28.97,West,269,0.0,3.1,81,0.00,,---,0.00,VWS V14.01,2013-07-08 08:04:00,
2013-07-08 04:05:00,74.1,67.9,28.97,West,275,5.4,7.8,81,0.00,,---,0.00,VWS V14.01,2013-07-08 08:05:00,
2013-07-08 04:06:00,72.7,63.1,29.00,West,272,0.0,6.3,72,0.00,,---,0.00,VWS V14.01,2013-07-08 08:06:00,
2013-07-08 04:07:00,74.1,67.9,28.97,WSW,251,0.0,6.7,81,0.00,,---,0.00,VWS V14.01,2013-07-08 08:07:00,
2013-07-08 04:08:00,74.1,67.9,28.97,NW,312,0.0,4.0,81,0.00,,---,0.00,VWS V14.01,2013-07-08 08:08:00,
2013-07-08 04:09:00,74.1,67.9,28.97,West,274,0.0,0.0,81,0.00,,---,0.00,VWS V14.01,2013-07-08 08:09:00,
2013-07-08 04:11:00,72.7,63.9,29.00,WNW,291,3.1,4.5,74,0.00,,---,0.00,VWS V14.01,2013-07-08 08:11:00,
2013-07-08 04:12:00,74.1,67.9,28.97,West,268,4.0,5.8,81,0.00,,---,0.00,VWS V14.01,2013-07-08 08:12:00,
2013-07-08 04:13:00,74.1,67.9,28.97,West,262,3.6,5.8,81,0.00,,---,0.00,VWS V14.01,2013-07-08 08:13:00,
2013-07-08 04:14:00,74.1,67.9,28.97,WNW,288,4.0,4.5,81,0.00,,---,0.00,VWS V14.01,2013-07-08 08:14:00,
2013-07-08 04:16:00,72.5,64.1,29.03,West,263,0.0,0.0,75,0.00,,---,0.00,VWS V14.01,2013-07-08 08:16:00,
2013-07-08 04:17:00,73.9,67.8,28.97,WSW,251,6.3,6.3,81,0.00,,---,0.00,VWS V14.01,2013-07-08 08:17:00,
2013-07-08 04:18:00,73.9,67.8,28.97,SW,220,0.0,6.3,81,0.00,,---,0.00,VWS V14.01,2013-07-08 08:18:00,
2013-07-08 04:19:00,73.9,67.8,28.97,SW,220,0.0,0.0,81,0.00,,---,0.00,VWS V14.01,2013-07-08 08:19:00,
2013-07-08 04:20:00,73.9,67.8,28.97,SW,220,0.0,0.0,81,0.00,,---,0.00,VWS V14.01,2013-07-08 08:20:00,
2013-07-08 04:21:00,72.3,64.3,29.03,West,275,0.0,3.1,76,0.00,,---,0.00,VWS V14.01,2013-07-08 08:21:00,
2013-07-08 04:22:00,73.9,67.8,28.97,West,262,4.0,4.5,81,0.00,,---,0.00,VWS V14.01,2013-07-08 08:22:00,
2013-07-08 04:23:00,73.9,67.8,28.97,West,262,0.0,4.5,81,0.00,,---,0.00,VWS V14.01,2013-07-08 08:23:00,
2013-07-08 04:24:00,73.9,67.8,28.97,West,262,0.0,0.0,81,0.00,,---,0.00,VWS V14.01,2013-07-08 08:24:00,
2013-07-08 04:25:00,73.9,67.8,28.97,West,262,0.0,0.0,81,0.00,,---,0.00,VWS V14.01,2013-07-08 08:25:00,
2013-07-08 04:26:00,72.1,64.5,29.03,West,278,4.5,4.5,77,0.00,,---,0.00,VWS V14.01,2013-07-08 08:26:00,
2013-07-08 04:27:00,73.8,67.6,28.97,West,262,0.0,2.7,81,0.00,,---,0.00,VWS V14.01,2013-07-08 08:27:00,
2013-07-08 04:28:00,73.8,67.6,28.97,West,262,0.0,0.0,81,0.00,,---,0.00,VWS V14.01,2013-07-08 08:28:00,
2013-07-08 04:29:00,73.8,67.6,28.97,SW,218,0.0,3.1,81,0.00,,---,0.00,VWS V14.01,2013-07-08 08:29:00,
2013-07-08 04:30:00,73.8,67.6,28.97,NNW,340,3.1,4.5,81,0.00,,---,0.00,VWS V14.01,2013-07-08 08:30:00,
2013-07-08 04:31:00,72.1,64.5,29.03,SSE,156,0.0,2.7,77,0.00,,---,0.00,VWS V14.01,2013-07-08 08:31:00,
2013-07-08 04:32:00,73.6,67.4,28.97,NNW,334,0.0,0.0,81,0.00,,---,0.00,VWS V14.01,2013-07-08 08:32:00,
2013-07-08 04:33:00,73.6,67.4,28.97,NNW,334,0.0,0.0,81,0.00,,---,0.00,VWS V14.01,2013-07-08 08:33:00,
2013-07-08 04:34:00,73.6,67.4,28.97,NNW,334,0.0,0.0,81,0.00,,---,0.00,VWS V14.01,2013-07-08 08:34:00,
2013-07-08 04:35:00,73.6,67.4,28.97,NNW,333,0.0,0.0,81,0.00,,---,0.00,VWS V14.01,2013-07-08 08:35:00,
2013-07-08 04:36:00,72.0,64.4,29.03,NW,316,0.0,0.0,77,0.00,,---,0.00,VWS V14.01,2013-07-08 08:36:00,
2013-07-08 04:37:00,73.4,67.6,28.97,NNW,333,0.0,0.0,82,0.00,,---,0.00,VWS V14.01,2013-07-08 08:37:00,
2013-07-08 04:38:00,73.4,67.6,28.97,NNW,333,0.0,0.0,82,0.00,,---,0.00,VWS V14.01,2013-07-08 08:38:00,
2013-07-08 04:39:00,73.4,67.6,28.97,West,262,0.0,3.6,82,0.00,,---,0.00,VWS V14.01,2013-07-08 08:39:00,
2013-07-08 04:40:00,73.6,67.8,28.97,WNW,299,0.0,6.3,82,0.00,,---,0.00,VWS V14.01,2013-07-08 08:40:00,
2013-07-08 04:41:00,72.0,64.4,29.03,NW,316,0.0,0.0,77,0.00,,---,0.00,VWS V14.01,2013-07-08 08:41:00,
2013-07-08 04:42:00,73.4,67.9,28.97,West,278,2.7,2.7,83,0.00,,---,0.00,VWS V14.01,2013-07-08 08:42:00,
2013-07-08 04:43:00,73.4,67.9,28.97,SW,227,0.0,3.6,83,0.00,,---,0.00,VWS V14.01,2013-07-08 08:43:00,
2013-07-08 04:44:00,73.4,67.9,28.97,SW,215,0.0,6.3,83,0.00,,---,0.00,VWS V14.01,2013-07-08 08:44:00,
2013-07-08 04:45:00,73.4,67.9,28.97,SSW,211,0.0,4.0,83,0.00,,---,0.00,VWS V14.01,2013-07-08 08:45:00,
2013-07-08 04:46:00,71.8,64.2,29.03,NW,312,0.0,3.6,77,0.00,,---,0.00,VWS V14.01,2013-07-08 08:46:00,
2013-07-08 04:49:00,73.4,67.9,28.97,SW,219,0.0,0.0,83,0.00,,---,0.00,VWS V14.01,2013-07-08 08:49:00,
2013-07-08 04:50:00,73.4,67.9,28.97,SW,232,0.0,4.5,83,0.00,,---,0.00,VWS V14.01,2013-07-08 08:50:00,
2013-07-08 04:51:00,71.8,64.6,29.03,NW,312,0.0,0.0,78,0.00,,---,0.00,VWS V14.01,2013-07-08 08:51:00,
2013-07-08 04:52:00,73.4,67.9,28.97,SW,232,0.0,0.0,83,0.00,,---,0.00,VWS V14.01,2013-07-08 08:52:00,
2013-07-08 04:53:00,73.2,67.8,28.97,SW,232,0.0,0.0,83,0.00,,---,0.00,VWS V14.01,2013-07-08 08:53:00,
2013-07-08 04:55:00,73.2,67.8,28.97,NW,305,0.0,4.9,83,0.00,,---,0.00,VWS V14.01,2013-07-08 08:55:00,
2013-07-08 04:56:00,71.8,64.6,29.03,NW,312,0.0,0.0,78,0.00,,---,0.00,VWS V14.01,2013-07-08 08:56:00,
2013-07-08 04:59:00,73.2,67.8,28.97,SW,214,0.0,0.0,83,0.00,,---,0.00,VWS V14.01,2013-07-08 08:59:00,
2013-07-08 05:00:00,73.0,67.6,28.97,SW,214,0.0,0.0,83,0.00,,---,0.00,VWS V14.01,2013-07-08 09:00:00,
2013-07-08 05:01:00,71.6,64.4,29.03,NW,312,0.0,0.0,78,0.00,,---,0.00,VWS V14.01,2013-07-08 09:01:00,
2013-07-08 05:02:00,73.0,67.6,28.97,WSW,240,0.0,0.0,83,0.00,,---,0.00,VWS V14.01,2013-07-08 09:02:00,
2013-07-08 05:03:00,73.0,67.6,28.97,WSW,240,0.0,0.0,83,0.00,,---,0.00,VWS V14.01,2013-07-08 09:03:00,
2013-07-08 05:04:00,73.0,67.6,28.97,WSW,240,0.0,4.0,83,0.00,,---,0.00,VWS V14.01,2013-07-08 09:04:00,
2013-07-08 05:06:00,71.4,64.2,29.03,NW,312,0.0,0.0,78,0.00,,---,0.00,VWS V14.01,2013-07-08 09:06:00,
2013-07-08 05:07:00,73.0,67.9,28.97,WSW,239,0.0,4.9,84,0.00,,---,0.00,VWS V14.01,2013-07-08 09:07:00,
2013-07-08 05:08:00,73.0,67.9,28.97,WSW,239,0.0,0.0,84,0.00,,---,0.00,VWS V14.01,2013-07-08 09:08:00,
2013-07-08 05:09:00,73.0,67.9,28.97,WSW,239,0.0,0.0,84,0.00,,---,0.00,VWS V14.01,2013-07-08 09:09:00,
2013-07-08 05:10:00,73.0,67.9,28.97,WSW,239,0.0,2.7,84,0.00,,---,0.00,VWS V14.01,2013-07-08 09:10:00,
2013-07-08 05:11:00,71.4,64.2,29.03,NW,312,0.0,0.0,78,0.00,,---,0.00,VWS V14.01,2013-07-08 09:11:00,
2013-07-08 05:13:00,73.0,67.9,28.97,WSW,249,3.1,3.1,84,0.00,,---,0.00,VWS V14.01,2013-07-08 09:13:00,
2013-07-08 05:14:00,73.0,67.9,28.97,West,272,3.6,4.9,84,0.00,,---,0.00,VWS V14.01,2013-07-08 09:14:00,
2013-07-08 05:15:00,73.0,68.3,28.97,SSW,209,0.0,3.6,85,0.00,,---,0.00,VWS V14.01,2013-07-08 09:15:00,
2013-07-08 05:16:00,71.2,64.4,29.03,NW,312,0.0,0.0,79,0.00,,---,0.00,VWS V14.01,2013-07-08 09:16:00,
2013-07-08 05:21:00,71.1,64.2,29.03,NW,312,0.0,0.0,79,0.00,,---,0.00,VWS V14.01,2013-07-08 09:21:00,
2013-07-08 05:22:00,73.0,68.3,28.97,West,265,0.0,3.1,85,0.00,,---,0.00,VWS V14.01,2013-07-08 09:22:00,
2013-07-08 05:23:00,73.0,68.3,28.97,West,265,0.0,0.0,85,0.00,,---,0.00,VWS V14.01,2013-07-08 09:23:00,
2013-07-08 05:25:00,73.0,68.3,28.97,West,265,0.0,0.0,85,0.00,,---,0.00,VWS V14.01,2013-07-08 09:25:00,
2013-07-08 05:26:00,70.7,63.9,29.03,NW,312,0.0,0.0,79,0.00,,---,0.00,VWS V14.01,2013-07-08 09:26:00,
2013-07-08 05:27:00,72.9,68.1,28.97,West,265,0.0,0.0,85,0.00,,---,0.00,VWS V14.01,2013-07-08 09:27:00,
2013-07-08 05:28:00,72.9,68.1,28.97,West,265,0.0,0.0,85,0.00,,---,0.00,VWS V14.01,2013-07-08 09:28:00,
2013-07-08 05:29:00,72.9,68.1,28.97,West,265,0.0,0.0,85,0.00,,---,0.00,VWS V14.01,2013-07-08 09:29:00,
2013-07-08 05:30:00,72.9,68.1,28.97,West,265,0.0,0.0,85,0.00,,---,0.00,VWS V14.01,2013-07-08 09:30:00,
2013-07-08 05:31:00,70.5,64.1,29.03,NW,312,0.0,0.0,80,0.00,,---,0.00,VWS V14.01,2013-07-08 09:31:00,
2013-07-08 05:32:00,72.9,68.1,28.97,West,264,2.7,3.1,85,0.00,,---,0.00,VWS V14.01,2013-07-08 09:32:00,
2013-07-08 05:33:00,72.9,68.1,28.97,WSW,246,0.0,4.5,85,0.00,,---,0.00,VWS V14.01,2013-07-08 09:33:00,
2013-07-08 05:34:00,72.9,68.1,28.97,WSW,246,0.0,0.0,85,0.00,,---,0.00,VWS V14.01,2013-07-08 09:34:00,
2013-07-08 05:35:00,72.9,68.1,28.97,WSW,247,0.0,3.6,85,0.00,,---,0.00,VWS V14.01,2013-07-08 09:35:00,
2013-07-08 05:36:00,70.2,63.7,29.03,NW,312,0.0,0.0,80,0.00,,---,0.00,VWS V14.01,2013-07-08 09:36:00,
2013-07-08 05:37:00,72.9,68.1,28.97,SW,235,0.0,3.1,85,0.00,,---,0.00,VWS V14.01,2013-07-08 09:37:00,
2013-07-08 05:38:00,72.9,68.1,28.97,SW,235,0.0,0.0,85,0.00,,---,0.00,VWS V14.01,2013-07-08 09:38:00,
2013-07-08 05:39:00,72.9,68.1,28.97,SSW,211,0.0,4.5,85,0.00,,---,0.00,VWS V14.01,2013-07-08 09:39:00,
2013-07-08 05:40:00,72.7,68.3,28.97,SSW,211,0.0,0.0,86,0.00,,---,0.00,VWS V14.01,2013-07-08 09:40:00,
2013-07-08 05:41:00,70.0,63.5,29.03,NW,312,0.0,0.0,80,0.00,,---,0.00,VWS V14.01,2013-07-08 09:41:00,
2013-07-08 05:42:00,72.7,68.3,29.00,SSW,197,0.0,0.0,86,0.00,,---,0.00,VWS V14.01,2013-07-08 09:42:00,
2013-07-08 05:43:00,72.7,68.3,29.00,SSW,197,0.0,0.0,86,0.00,,---,0.00,VWS V14.01,2013-07-08 09:43:00,
2013-07-08 05:44:00,72.7,68.3,29.00,SSW,199,0.0,3.1,86,0.00,,---,0.00,VWS V14.01,2013-07-08 09:44:00,
2013-07-08 05:45:00,72.7,68.3,29.00,SSW,199,0.0,0.0,86,0.00,,---,0.00,VWS V14.01,2013-07-08 09:45:00,
2013-07-08 05:46:00,69.8,63.4,29.03,NW,312,0.0,0.0,80,0.00,,---,0.00,VWS V14.01,2013-07-08 09:46:00,
2013-07-08 05:47:00,72.7,68.3,29.00,SSW,204,0.0,0.0,86,0.00,,---,0.00,VWS V14.01,2013-07-08 09:47:00,
2013-07-08 05:48:00,72.7,68.3,29.00,SSW,205,0.0,0.0,86,0.00,,---,0.00,VWS V14.01,2013-07-08 09:48:00,
2013-07-08 05:49:00,72.7,68.3,29.00,SSW,205,0.0,0.0,86,0.00,,---,0.00,VWS V14.01,2013-07-08 09:49:00,
2013-07-08 05:51:00,69.6,63.5,29.03,NW,312,0.0,0.0,81,0.00,,---,0.00,VWS V14.01,2013-07-08 09:51:00,
2013-07-08 05:53:00,72.7,68.3,29.00,WNW,300,0.0,0.0,86,0.00,,---,0.00,VWS V14.01,2013-07-08 09:53:00,
2013-07-08 05:54:00,72.7,68.3,29.00,WNW,300,0.0,0.0,86,0.00,,---,0.00,VWS V14.01,2013-07-08 09:54:00,
2013-07-08 05:55:00,72.5,68.1,29.00,WNW,299,0.0,0.0,86,0.00,,---,0.00,VWS V14.01,2013-07-08 09:55:00,
2013-07-08 05:56:00,69.6,63.5,29.03,NW,312,0.0,0.0,81,0.00,,---,0.00,VWS V14.01,2013-07-08 09:56:00,
2013-07-08 05:57:00,72.5,68.1,29.00,West,271,0.0,3.6,86,0.00,,---,0.00,VWS V14.01,2013-07-08 09:57:00,
2013-07-08 06:00:00,72.5,68.1,29.00,West,271,0.0,0.0,86,0.00,,---,0.00,VWS V14.01,2013-07-08 10:00:00,
2013-07-08 06:01:00,69.4,63.4,29.03,NW,312,0.0,0.0,81,0.00,,---,0.00,VWS V14.01,2013-07-08 10:01:00,
2013-07-08 06:02:00,72.5,68.1,29.00,West,271,0.0,0.0,86,0.00,,---,0.00,VWS V14.01,2013-07-08 10:02:00,
2013-07-08 06:03:00,72.5,68.1,29.00,West,271,0.0,0.0,86,0.00,,---,0.00,VWS V14.01,2013-07-08 10:03:00,
2013-07-08 06:04:00,72.5,68.1,29.00,West,271,0.0,0.0,86,0.00,,---,0.00,VWS V14.01,2013-07-08 10:04:00,
2013-07-08 06:05:00,72.3,67.9,29.00,West,271,0.0,0.0,86,0.00,,---,0.00,VWS V14.01,2013-07-08 10:05:00,
2013-07-08 06:06:00,69.4,63.7,29.03,WSW,241,0.0,0.0,82,0.00,,---,0.00,VWS V14.01,2013-07-08 10:06:00,
2013-07-08 06:08:00,72.3,67.9,29.00,West,271,0.0,0.0,86,0.00,,---,0.00,VWS V14.01,2013-07-08 10:08:00,
2013-07-08 06:09:00,72.3,67.9,29.00,West,271,0.0,0.0,86,0.00,,---,0.00,VWS V14.01,2013-07-08 10:09:00,
2013-07-08 06:10:00,72.3,67.9,29.00,West,271,0.0,0.0,86,0.00,,---,0.00,VWS V14.01,2013-07-08 10:10:00,
2013-07-08 06:11:00,69.4,64.1,29.03,WSW,241,0.0,0.0,83,0.00,,---,0.00,VWS V14.01,2013-07-08 10:11:00,
2013-07-08 06:12:00,72.1,67.7,29.00,West,271,0.0,0.0,86,0.00,,---,0.00,VWS V14.01,2013-07-08 10:12:00,
2013-07-08 06:13:00,72.1,67.7,29.00,West,271,0.0,0.0,86,0.00,,---,0.00,VWS V14.01,2013-07-08 10:13:00,
2013-07-08 06:14:00,72.1,67.7,29.00,West,271,0.0,0.0,86,0.00,,---,0.00,VWS V14.01,2013-07-08 10:14:00,
2013-07-08 06:15:00,72.1,68.1,29.00,West,271,0.0,0.0,87,0.00,,---,0.00,VWS V14.01,2013-07-08 10:15:00,
2013-07-08 06:16:00,69.4,64.1,29.03,WSW,241,0.0,0.0,83,0.00,,---,0.00,VWS V14.01,2013-07-08 10:16:00,
2013-07-08 06:17:00,72.1,68.1,29.00,WSW,239,0.0,4.9,87,0.00,,---,0.00,VWS V14.01,2013-07-08 10:17:00,
2013-07-08 06:18:00,72.1,68.1,29.00,SSW,212,0.0,4.0,87,0.00,,---,0.00,VWS V14.01,2013-07-08 10:18:00,
2013-07-08 06:19:00,72.1,68.1,29.00,SSW,212,0.0,0.0,87,0.00,,---,0.00,VWS V14.01,2013-07-08 10:19:00,
2013-07-08 06:20:00,72.1,68.1,29.00,SSW,212,0.0,0.0,87,0.00,,---,0.00,VWS V14.01,2013-07-08 10:20:00,
2013-07-08 06:21:00,69.3,63.9,29.03,WSW,241,0.0,0.0,83,0.00,,---,0.00,VWS V14.01,2013-07-08 10:21:00,
2013-07-08 06:22:00,72.1,68.1,29.00,SSW,212,0.0,0.0,87,0.00,,---,0.00,VWS V14.01,2013-07-08 10:22:00,
2013-07-08 06:23:00,72.1,68.1,29.00,SSW,212,0.0,0.0,87,0.00,,---,0.00,VWS V14.01,2013-07-08 10:23:00,
2013-07-08 06:24:00,72.1,68.1,29.00,SSW,212,0.0,0.0,87,0.00,,---,0.00,VWS V14.01,2013-07-08 10:24:00,
2013-07-08 06:25:00,72.1,68.1,29.00,SSW,212,0.0,0.0,87,0.00,,---,0.00,VWS V14.01,2013-07-08 10:25:00,
2013-07-08 06:26:00,69.1,64.1,29.03,WSW,241,0.0,0.0,84,0.00,,---,0.00,VWS V14.01,2013-07-08 10:26:00,
2013-07-08 06:28:00,72.1,68.1,29.00,SSW,212,0.0,0.0,87,0.00,,---,0.00,VWS V14.01,2013-07-08 10:28:00,
2013-07-08 06:30:00,72.1,68.1,29.00,SSW,212,0.0,0.0,87,0.00,,---,0.00,VWS V14.01,2013-07-08 10:30:00,
2013-07-08 06:31:00,69.3,64.2,29.03,WSW,243,0.0,2.7,84,0.00,,---,0.00,VWS V14.01,2013-07-08 10:31:00,
2013-07-08 06:32:00,72.1,68.1,29.00,SSW,212,0.0,0.0,87,0.00,,---,0.00,VWS V14.01,2013-07-08 10:32:00,
2013-07-08 06:34:00,72.1,68.1,29.00,SSW,212,0.0,0.0,87,0.00,,---,0.00,VWS V14.01,2013-07-08 10:34:00,
2013-07-08 06:35:00,72.1,68.1,29.00,SSW,212,0.0,0.0,87,0.00,,---,0.00,VWS V14.01,2013-07-08 10:35:00,
2013-07-08 06:36:00,69.3,64.6,29.03,WSW,243,0.0,0.0,85,0.00,,---,0.00,VWS V14.01,2013-07-08 10:36:00,
2013-07-08 06:37:00,72.1,68.1,29.00,SSW,212,0.0,0.0,87,0.00,,---,0.00,VWS V14.01,2013-07-08 10:37:00,
2013-07-08 06:38:00,72.1,68.1,29.00,SSW,212,0.0,0.0,87,0.00,,---,0.00,VWS V14.01,2013-07-08 10:38:00,
2013-07-08 06:39:00,72.1,68.1,29.00,SSW,212,0.0,0.0,87,0.00,,---,0.00,VWS V14.01,2013-07-08 10:39:00,
2013-07-08 06:40:00,72.1,68.1,29.00,SSW,212,0.0,0.0,87,0.00,,---,0.00,VWS V14.01,2013-07-08 10:40:00,
2013-07-08 06:41:00,69.6,65.6,29.03,WSW,249,0.0,0.0,87,0.00,,---,0.00,VWS V14.01,2013-07-08 10:41:00,
2013-07-08 06:42:00,72.1,68.1,29.00,SSW,212,0.0,2.7,87,0.00,,---,0.00,VWS V14.01,2013-07-08 10:42:00,
2013-07-08 06:43:00,72.3,68.2,29.00,SSW,212,0.0,0.0,87,0.00,,---,0.00,VWS V14.01,2013-07-08 10:43:00,
2013-07-08 06:46:00,69.8,66.1,29.03,SW,220,4.5,5.4,88,0.00,,---,0.00,VWS V14.01,2013-07-08 10:46:00,
2013-07-08 06:47:00,72.5,68.8,29.00,SSW,212,0.0,0.0,88,0.00,,---,0.00,VWS V14.01,2013-07-08 10:47:00,
2013-07-08 06:48:00,72.5,68.8,29.00,West,268,3.6,5.8,88,0.00,,---,0.00,VWS V14.01,2013-07-08 10:48:00,
2013-07-08 06:49:00,72.5,68.4,29.00,West,268,2.7,3.6,87,0.00,,---,0.00,VWS V14.01,2013-07-08 10:49:00,
2013-07-08 06:50:00,72.5,68.8,29.00,West,264,0.0,3.1,88,0.00,,---,0.00,VWS V14.01,2013-07-08 10:50:00,
2013-07-08 06:51:00,69.8,66.1,29.03,SW,229,0.0,4.9,88,0.00,,---,0.00,VWS V14.01,2013-07-08 10:51:00,
2013-07-08 06:52:00,72.7,68.9,29.00,West,264,0.0,0.0,88,0.00,,---,0.00,VWS V14.01,2013-07-08 10:52:00,
2013-07-08 06:53:00,72.7,68.9,29.00,West,264,0.0,0.0,88,0.00,,---,0.00,VWS V14.01,2013-07-08 10:53:00,
2013-07-08 06:55:00,72.7,68.9,29.00,SW,236,0.0,0.0,88,0.00,,---,0.00,VWS V14.01,2013-07-08 10:55:00,
2013-07-08 06:56:00,70.0,66.3,29.03,SW,229,3.1,6.7,88,0.00,,---,0.00,VWS V14.01,2013-07-08 10:56:00,
2013-07-08 06:57:00,72.7,68.9,29.00,SW,221,0.0,0.0,88,0.00,,---,0.00,VWS V14.01,2013-07-08 10:57:00,
2013-07-08 06:58:00,72.7,68.9,29.00,SW,223,0.0,0.0,88,0.00,,---,0.00,VWS V14.01,2013-07-08 10:58:00,
2013-07-08 06:59:00,72.9,69.1,29.00,SW,223,0.0,0.0,88,0.00,,---,0.00,VWS V14.01,2013-07-08 10:59:00,
2013-07-08 07:00:00,72.9,69.1,29.00,SW,223,0.0,2.7,88,0.00,,---,0.00,VWS V14.01,2013-07-08 11:00:00,
2013-07-08 07:01:00,70.2,66.8,29.03,WNW,283,0.0,3.6,89,0.00,,---,0.00,VWS V14.01,2013-07-08 11:01:00,
2013-07-08 07:02:00,72.9,69.1,29.00,SW,223,0.0,2.7,88,0.00,,---,0.00,VWS V14.01,2013-07-08 11:02:00,
2013-07-08 07:04:00,72.9,69.1,29.00,SW,224,3.1,3.6,88,0.00,,---,0.00,VWS V14.01,2013-07-08 11:04:00,
2013-07-08 07:05:00,72.9,69.1,29.00,West,267,3.6,3.6,88,0.00,,---,0.00,VWS V14.01,2013-07-08 11:05:00,
2013-07-08 07:06:00,70.3,66.6,29.03,SW,233,3.1,6.9,88,0.00,,---,0.00,VWS V14.01,2013-07-08 11:06:00,
2013-07-08 07:07:00,73.0,69.3,29.00,West,266,0.0,4.0,88,0.00,,---,0.00,VWS V14.01,2013-07-08 11:07:00,
2013-07-08 07:08:00,73.0,68.9,29.00,SSE,158,0.0,2.7,87,0.00,,---,0.00,VWS V14.01,2013-07-08 11:08:00,
2013-07-08 07:09:00,73.0,68.9,29.00,WSW,243,0.0,3.1,87,0.00,,---,0.00,VWS V14.01,2013-07-08 11:09:00,
2013-07-08 07:10:00,73.0,68.9,29.00,WSW,241,0.0,2.7,87,0.00,,---,0.00,VWS V14.01,2013-07-08 11:10:00,
2013-07-08 07:11:00,70.3,66.6,29.03,NNW,342,3.1,4.9,88,0.00,,---,0.00,VWS V14.01,2013-07-08 11:11:00,
2013-07-08 07:12:00,73.2,69.1,29.00,WSW,241,0.0,0.0,87,0.00,,---,0.00,VWS V14.01,2013-07-08 11:12:00,
2013-07-08 07:13:00,73.2,69.1,29.00,WSW,248,0.0,3.6,87,0.00,,---,0.00,VWS V14.01,2013-07-08 11:13:00,
2013-07-08 07:14:00,73.2,69.1,29.00,WSW,248,0.0,0.0,87,0.00,,---,0.00,VWS V14.01,2013-07-08 11:14:00,
2013-07-08 07:15:00,73.4,69.3,29.00,WSW,248,0.0,0.0,87,0.00,,---,0.00,VWS V14.01,2013-07-08 11:15:00,
2013-07-08 07:16:00,70.5,66.5,29.03,West,274,5.4,8.3,87,0.00,,---,0.00,VWS V14.01,2013-07-08 11:16:00,
2013-07-08 07:17:00,73.4,69.3,29.00,WSW,242,0.0,2.7,87,0.00,,---,0.00,VWS V14.01,2013-07-08 11:17:00,
2013-07-08 07:18:00,73.4,69.3,29.00,WSW,242,0.0,0.0,87,0.00,,---,0.00,VWS V14.01,2013-07-08 11:18:00,
2013-07-08 07:19:00,73.6,69.5,29.00,SW,235,0.0,2.7,87,0.00,,---,0.00,VWS V14.01,2013-07-08 11:19:00,
2013-07-08 07:20:00,73.6,69.5,29.00,SW,235,0.0,3.1,87,0.00,,---,0.00,VWS V14.01,2013-07-08 11:20:00,
2013-07-08 07:21:00,70.7,66.3,29.03,SW,231,4.5,5.4,86,0.00,,---,0.00,VWS V14.01,2013-07-08 11:21:00,
2013-07-08 07:22:00,73.6,69.5,29.00,SW,235,0.0,0.0,87,0.00,,---,0.00,VWS V14.01,2013-07-08 11:22:00,
2013-07-08 07:23:00,73.8,69.7,29.00,SW,235,0.0,0.0,87,0.00,,---,0.00,VWS V14.01,2013-07-08 11:23:00,
2013-07-08 07:24:00,73.8,69.7,29.00,SW,235,0.0,0.0,87,0.00,,---,0.00,VWS V14.01,2013-07-08 11:24:00,
2013-07-08 07:25:00,73.8,69.7,29.00,SW,235,0.0,0.0,87,0.00,,---,0.00,VWS V14.01,2013-07-08 11:25:00,
2013-07-08 07:26:00,71.1,66.7,29.03,West,266,3.1,6.9,86,0.00,,---,0.00,VWS V14.01,2013-07-08 11:26:00,
2013-07-08 07:29:00,73.9,69.8,29.00,WSW,237,0.0,0.0,87,0.00,,---,0.00,VWS V14.01,2013-07-08 11:29:00,
2013-07-08 07:30:00,73.9,69.8,29.00,WSW,237,0.0,0.0,87,0.00,,---,0.00,VWS V14.01,2013-07-08 11:30:00,
2013-07-08 07:31:00,71.2,66.5,29.03,West,281,3.1,6.7,85,0.00,,---,0.00,VWS V14.01,2013-07-08 11:31:00,
2013-07-08 07:33:00,74.3,69.8,29.00,WSW,240,0.0,0.0,86,0.00,,---,0.00,VWS V14.01,2013-07-08 11:33:00,
2013-07-08 07:34:00,74.3,69.8,29.00,WSW,240,0.0,0.0,86,0.00,,---,0.00,VWS V14.01,2013-07-08 11:34:00,
2013-07-08 07:35:00,74.3,69.8,29.00,SSW,209,0.0,3.6,86,0.00,,---,0.00,VWS V14.01,2013-07-08 11:35:00,
2013-07-08 07:36:00,71.6,66.5,29.03,WNW,286,6.3,7.8,84,0.00,,---,0.00,VWS V14.01,2013-07-08 11:36:00,
2013-07-08 07:37:00,74.5,69.7,29.00,NW,305,5.4,5.4,85,0.00,,---,0.00,VWS V14.01,2013-07-08 11:37:00,
2013-07-08 07:38:00,74.5,69.3,29.00,SE,124,0.0,5.4,84,0.00,,---,0.00,VWS V14.01,2013-07-08 11:38:00,
2013-07-08 07:40:00,74.7,69.5,29.00,SW,232,0.0,2.7,84,0.00,,---,0.00,VWS V14.01,2013-07-08 11:40:00,
2013-07-08 07:41:00,72.0,66.5,29.03,WSW,258,4.0,6.9,83,0.00,,---,0.00,VWS V14.01,2013-07-08 11:41:00,
2013-07-08 07:45:00,75.0,69.2,29.00,SW,233,0.0,0.0,82,0.00,,---,0.00,VWS V14.01,2013-07-08 11:45:00,
2013-07-08 07:46:00,72.3,66.2,29.03,West,266,6.9,8.3,81,0.00,,---,0.00,VWS V14.01,2013-07-08 11:46:00,
2013-07-08 07:47:00,74.8,68.6,29.00,WNW,285,0.0,4.5,81,0.00,,---,0.00,VWS V14.01,2013-07-08 11:47:00,
2013-07-08 07:48:00,75.0,68.8,29.00,West,280,0.0,0.0,81,0.00,,---,0.00,VWS V14.01,2013-07-08 11:48:00,
2013-07-08 07:49:00,75.0,68.4,29.00,West,280,0.0,0.0,80,0.00,,---,0.00,VWS V14.01,2013-07-08 11:49:00,
2013-07-08 07:50:00,75.0,68.4,29.00,SW,222,0.0,3.6,80,0.00,,---,0.00,VWS V14.01,2013-07-08 11:50:00,
2013-07-08 07:51:00,72.5,65.6,29.03,West,276,3.6,6.3,79,0.00,,---,0.00,VWS V14.01,2013-07-08 11:51:00,
2013-07-08 07:52:00,75.0,68.4,29.00,West,273,0.0,4.5,80,0.00,,---,0.00,VWS V14.01,2013-07-08 11:52:00,
2013-07-08 07:53:00,75.0,68.4,29.00,WSW,251,0.0,3.1,80,0.00,,---,0.00,VWS V14.01,2013-07-08 11:53:00,
2013-07-08 07:54:00,75.0,68.1,29.00,South,190,0.0,3.6,79,0.00,,---,0.00,VWS V14.01,2013-07-08 11:54:00,
2013-07-08 07:55:00,75.0,68.1,29.00,WNW,282,4.9,6.3,79,0.00,,---,0.00,VWS V14.01,2013-07-08 11:55:00,
2013-07-08 07:56:00,72.5,65.6,29.03,SW,228,4.9,6.7,79,0.00,,---,0.00,VWS V14.01,2013-07-08 11:56:00,
2013-07-08 07:57:00,75.2,68.2,29.00,SW,222,0.0,0.0,79,0.00,,---,0.00,VWS V14.01,2013-07-08 11:57:00,
2013-07-08 07:58:00,75.2,68.2,29.00,West,281,0.0,4.9,79,0.00,,---,0.00,VWS V14.01,2013-07-08 11:58:00,
2013-07-08 07:59:00,75.4,68.4,29.00,WSW,244,0.0,3.6,79,0.00,,---,0.00,VWS V14.01,2013-07-08 11:59:00,
2013-07-08 08:00:00,75.6,68.6,29.00,SW,227,3.1,5.4,79,0.00,,---,0.00,VWS V14.01,2013-07-08 12:00:00,
2013-07-08 08:01:00,72.5,65.6,29.03,NW,304,0.0,4.5,79,0.00,,---,0.00,VWS V14.01,2013-07-08 12:01:00,
2013-07-08 08:02:00,75.6,68.6,29.00,WNW,288,4.0,5.8,79,0.00,,---,0.00,VWS V14.01,2013-07-08 12:02:00,
2013-07-08 08:03:00,75.7,68.4,29.00,West,276,4.0,4.0,78,0.00,,---,0.00,VWS V14.01,2013-07-08 12:03:00,
2013-07-08 08:04:00,75.9,68.6,29.00,SW,235,0.0,4.9,78,0.00,,---,0.00,VWS V14.01,2013-07-08 12:04:00,
2013-07-08 08:05:00,76.5,68.7,29.00,WNW,302,0.0,3.1,77,0.00,,---,0.00,VWS V14.01,2013-07-08 12:05:00,
2013-07-08 08:06:00,72.9,66.0,29.03,WSW,238,4.5,4.9,79,0.00,,---,0.00,VWS V14.01,2013-07-08 12:06:00,
2013-07-08 08:07:00,77.9,70.1,29.00,WNW,287,4.5,4.5,77,0.00,,---,0.00,VWS V14.01,2013-07-08 12:07:00,
2013-07-08 08:08:00,78.6,70.4,29.00,WSW,244,3.1,4.5,76,0.00,,---,0.00,VWS V14.01,2013-07-08 12:08:00,
2013-07-08 08:09:00,79.5,70.9,29.00,SSW,212,0.0,4.0,75,0.00,,---,0.00,VWS V14.01,2013-07-08 12:09:00,
2013-07-08 08:10:00,80.8,71.7,29.00,SW,214,3.6,3.6,74,0.00,,---,0.00,VWS V14.01,2013-07-08 12:10:00,
2013-07-08 08:11:00,75.2,67.5,29.03,West,259,0.0,3.1,77,0.00,,---,0.00,VWS V14.01,2013-07-08 12:11:00,
2013-07-08 08:12:00,82.0,71.3,29.00,SW,225,0.0,3.6,70,0.00,,---,0.00,VWS V14.01,2013-07-08 12:12:00,
2013-07-08 08:13:00,82.0,69.6,29.00,WSW,254,4.9,5.4,66,0.00,,---,0.00,VWS V14.01,2013-07-08 12:13:00,
2013-07-08 08:14:00,81.9,68.5,29.00,West,281,0.0,6.9,64,0.00,,---,0.00,VWS V14.01,2013-07-08 12:14:00,
2013-07-08 08:15:00,82.0,67.8,29.00,West,279,0.0,4.9,62,0.00,,---,0.00,VWS V14.01,2013-07-08 12:15:00,
2013-07-08 08:16:00,77.4,66.4,29.03,WSW,238,0.0,5.4,69,0.00,,---,0.00,VWS V14.01,2013-07-08 12:16:00,
2013-07-08 08:17:00,84.0,69.1,29.00,WSW,254,2.7,5.4,61,0.00,,---,0.00,VWS V14.01,2013-07-08 12:17:00,
2013-07-08 08:18:00,84.6,69.6,29.00,SSW,209,0.0,2.7,61,0.00,,---,0.00,VWS V14.01,2013-07-08 12:18:00,
2013-07-08 08:19:00,85.5,70.0,29.00,SSW,209,2.7,4.0,60,0.00,,---,0.00,VWS V14.01,2013-07-08 12:19:00,
2013-07-08 08:20:00,85.1,67.1,29.00,West,278,4.9,4.9,55,0.00,,---,0.00,VWS V14.01,2013-07-08 12:20:00,
2013-07-08 08:21:00,78.3,64.6,29.03,WSW,254,4.0,7.4,63,0.00,,---,0.00,VWS V14.01,2013-07-08 12:21:00,
2013-07-08 08:22:00,83.5,64.0,29.00,WSW,257,5.8,6.7,52,0.00,,---,0.00,VWS V14.01,2013-07-08 12:22:00,
2013-07-08 08:23:00,82.6,63.7,29.00,West,265,5.8,8.7,53,0.00,,---,0.00,VWS V14.01,2013-07-08 12:23:00,
2013-07-08 08:24:00,82.0,64.3,29.00,WSW,250,6.7,8.3,55,0.00,,---,0.00,VWS V14.01,2013-07-08 12:24:00,
2013-07-08 08:25:00,82.0,65.3,29.00,West,263,3.6,6.7,57,0.00,,---,0.00,VWS V14.01,2013-07-08 12:25:00,
2013-07-08 08:26:00,80.4,64.8,29.03,SSW,213,2.7,6.9,59,0.00,,---,0.00,VWS V14.01,2013-07-08 12:26:00,
2013-07-08 08:27:00,81.5,65.3,29.00,West,279,4.9,5.8,58,0.00,,---,0.00,VWS V14.01,2013-07-08 12:27:00,
2013-07-08 08:28:00,81.1,65.5,29.00,SW,236,3.1,4.9,59,0.00,,---,0.00,VWS V14.01,2013-07-08 12:28:00,
2013-07-08 08:29:00,80.8,65.6,29.00,WNW,300,6.7,8.3,60,0.00,,---,0.00,VWS V14.01,2013-07-08 12:29:00,
2013-07-08 08:30:00,80.1,64.9,29.00,West,279,8.3,8.3,60,0.00,,---,0.00,VWS V14.01,2013-07-08 12:30:00,
2013-07-08 08:31:00,80.8,63.1,29.03,West,280,3.1,3.1,55,0.00,,---,0.00,VWS V14.01,2013-07-08 12:31:00,
2013-07-08 08:32:00,79.7,65.5,29.00,West,259,2.7,3.6,62,0.00,,---,0.00,VWS V14.01,2013-07-08 12:32:00,
2013-07-08 08:33:00,79.5,65.8,29.00,West,270,2.7,4.0,63,0.00,,---,0.00,VWS V14.01,2013-07-08 12:33:00,
2013-07-08 08:34:00,79.3,66.1,29.00,WNW,294,2.7,4.0,64,0.00,,---,0.00,VWS V14.01,2013-07-08 12:34:00,
2013-07-08 08:35:00,79.3,66.1,29.00,South,183,3.6,5.4,64,0.00,,---,0.00,VWS V14.01,2013-07-08 12:35:00,
2013-07-08 08:36:00,78.4,62.0,29.03,West,262,0.0,4.5,57,0.00,,---,0.00,VWS V14.01,2013-07-08 12:36:00,
2013-07-08 08:37:00,79.5,66.7,29.00,WNW,290,2.7,3.6,65,0.00,,---,0.00,VWS V14.01,2013-07-08 12:37:00,
2013-07-08 08:38:00,79.5,66.7,29.00,WSW,252,7.4,8.3,65,0.00,,---,0.00,VWS V14.01,2013-07-08 12:38:00,
2013-07-08 08:39:00,79.7,66.5,29.00,WNW,289,6.3,7.4,64,0.00,,---,0.00,VWS V14.01,2013-07-08 12:39:00,
2013-07-08 08:40:00,80.1,66.8,29.00,SSW,195,0.0,6.3,64,0.00,,---,0.00,VWS V14.01,2013-07-08 12:40:00,
2013-07-08 08:41:00,80.8,65.6,29.03,SW,234,0.0,0.0,60,0.00,,---,0.00,VWS V14.01,2013-07-08 12:41:00,
2013-07-08 08:43:00,81.3,67.1,29.00,West,274,5.4,6.9,62,0.00,,---,0.00,VWS V14.01,2013-07-08 12:43:00,
2013-07-08 08:44:00,81.9,67.6,29.00,SW,214,0.0,5.4,62,0.00,,---,0.00,VWS V14.01,2013-07-08 12:44:00,
2013-07-08 08:45:00,82.2,67.0,29.00,West,279,4.9,9.2,60,0.00,,---,0.00,VWS V14.01,2013-07-08 12:45:00,
2013-07-08 08:46:00,81.5,63.3,29.03,West,275,6.3,6.7,54,0.00,,---,0.00,VWS V14.01,2013-07-08 12:46:00,
2013-07-08 08:47:00,82.0,66.3,29.00,WSW,254,3.6,6.3,59,0.00,,---,0.00,VWS V14.01,2013-07-08 12:47:00,
2013-07-08 08:49:00,82.4,65.7,29.00,West,273,4.9,9.6,57,0.00,,---,0.00,VWS V14.01,2013-07-08 12:49:00,
2013-07-08 08:50:00,82.2,65.5,29.00,West,263,5.4,6.7,57,0.00,,---,0.00,VWS V14.01,2013-07-08 12:50:00,
2013-07-08 08:51:00,83.3,63.9,29.03,SW,228,4.5,6.9,52,0.00,,---,0.00,VWS V14.01,2013-07-08 12:51:00,
2013-07-08 08:52:00,82.2,65.5,29.00,WSW,248,0.0,9.6,57,0.00,,---,0.00,VWS V14.01,2013-07-08 12:52:00,
2013-07-08 08:53:00,82.9,66.2,29.00,West,279,6.3,6.7,57,0.00,,---,0.00,VWS V14.01,2013-07-08 12:53:00,
2013-07-08 08:54:00,82.4,65.1,29.00,WNW,303,6.9,6.9,56,0.00,,---,0.00,VWS V14.01,2013-07-08 12:54:00,
2013-07-08 08:55:00,82.6,64.8,29.00,West,275,6.7,9.2,55,0.00,,---,0.00,VWS V14.01,2013-07-08 12:55:00,
2013-07-08 08:56:00,81.5,60.5,29.03,NNW,345,4.9,7.4,49,0.00,,---,0.00,VWS V14.01,2013-07-08 12:56:00,
2013-07-08 08:57:00,82.0,64.8,29.00,SW,221,6.3,6.3,56,0.00,,---,0.00,VWS V14.01,2013-07-08 12:57:00,
2013-07-08 08:58:00,82.0,64.3,29.00,South,185,4.9,7.8,55,0.00,,---,0.00,VWS V14.01,2013-07-08 12:58:00,
2013-07-08 08:59:00,82.0,64.3,29.00,WSW,247,3.1,7.4,55,0.00,,---,0.00,VWS V14.01,2013-07-08 12:59:00,
2013-07-08 09:00:00,81.7,64.0,29.00,West,260,3.6,5.8,55,0.00,,---,0.00,VWS V14.01,2013-07-08 13:00:00,
2013-07-08 09:01:00,80.1,60.3,29.03,West,266,2.7,9.6,51,0.00,,---,0.00,VWS V14.01,2013-07-08 13:01:00,
2013-07-08 09:02:00,82.0,64.8,29.00,SW,230,5.4,5.4,56,0.00,,---,0.00,VWS V14.01,2013-07-08 13:02:00,
2013-07-08 09:03:00,82.0,64.8,29.00,WSW,249,4.5,5.8,56,0.00,,---,0.00,VWS V14.01,2013-07-08 13:03:00,
2013-07-08 09:04:00,81.7,64.0,29.00,South,177,3.6,7.8,55,0.00,,---,0.00,VWS V14.01,2013-07-08 13:04:00,
2013-07-08 09:05:00,81.7,64.0,29.00,WNW,298,0.0,4.9,55,0.00,,---,0.00,VWS V14.01,2013-07-08 13:05:00,
2013-07-08 09:06:00,79.9,60.2,29.03,SW,232,3.1,8.7,51,0.00,,---,0.00,VWS V14.01,2013-07-08 13:06:00,
2013-07-08 09:07:00,81.5,64.3,29.00,WSW,246,2.7,6.9,56,0.00,,---,0.00,VWS V14.01,2013-07-08 13:07:00,
2013-07-08 09:08:00,81.3,64.1,29.00,West,272,4.9,9.6,56,0.00,,---,0.00,VWS V14.01,2013-07-08 13:08:00,
2013-07-08 09:09:00,81.3,64.1,29.00,West,278,5.8,7.4,56,0.00,,---,0.00,VWS V14.01,2013-07-08 13:09:00,
2013-07-08 09:10:00,81.1,64.5,29.00,WNW,284,3.6,6.3,57,0.00,,---,0.00,VWS V14.01,2013-07-08 13:10:00,
2013-07-08 09:11:00,79.7,61.1,29.03,West,260,0.0,4.0,53,0.00,,---,0.00,VWS V14.01,2013-07-08 13:11:00,
2013-07-08 09:12:00,81.0,64.3,29.00,WNW,294,6.3,9.6,57,0.00,,---,0.00,VWS V14.01,2013-07-08 13:12:00,
2013-07-08 09:13:00,80.8,64.1,29.00,ESE,123,0.0,11.2,57,0.00,,---,0.00,VWS V14.01,2013-07-08 13:13:00,
2013-07-08 09:14:00,81.0,64.8,29.00,WNW,291,6.9,6.9,58,0.00,,---,0.00,VWS V14.01,2013-07-08 13:14:00,
2013-07-08 09:15:00,80.8,64.6,29.00,West,269,7.4,10.5,58,0.00,,---,0.00,VWS V14.01,2013-07-08 13:15:00,
2013-07-08 09:16:00,79.2,61.1,29.03,West,269,6.9,8.3,54,0.00,,---,0.00,VWS V14.01,2013-07-08 13:16:00,
2013-07-08 09:17:00,80.8,64.6,29.00,WNW,286,7.4,11.0,58,0.00,,---,0.00,VWS V14.01,2013-07-08 13:17:00,
2013-07-08 09:18:00,80.8,64.6,29.00,SW,235,3.6,7.4,58,0.00,,---,0.00,VWS V14.01,2013-07-08 13:18:00,
2013-07-08 09:19:00,80.8,65.1,29.00,WNW,288,4.0,5.4,59,0.00,,---,0.00,VWS V14.01,2013-07-08 13:19:00,
2013-07-08 09:21:00,78.6,62.1,29.03,WNW,282,5.4,5.8,57,0.00,,---,0.00,VWS V14.01,2013-07-08 13:21:00,
2013-07-08 09:22:00,81.1,65.5,29.00,WSW,254,4.0,9.6,59,0.00,,---,0.00,VWS V14.01,2013-07-08 13:22:00,
2013-07-08 09:23:00,81.1,65.9,29.00,West,270,6.9,7.4,60,0.00,,---,0.00,VWS V14.01,2013-07-08 13:23:00,
2013-07-08 09:24:00,81.1,65.5,29.00,West,276,5.8,8.3,59,0.00,,---,0.00,VWS V14.01,2013-07-08 13:24:00,
2013-07-08 09:25:00,81.1,65.5,29.00,West,276,5.4,6.7,59,0.00,,---,0.00,VWS V14.01,2013-07-08 13:25:00,
2013-07-08 09:26:00,79.3,63.8,29.03,SW,230,0.0,3.6,59,0.00,,---,0.00,VWS V14.01,2013-07-08 13:26:00,
2013-07-08 09:27:00,81.3,65.6,29.00,WNW,287,0.0,4.0,59,0.00,,---,0.00,VWS V14.01,2013-07-08 13:27:00,
2013-07-08 09:29:00,81.3,65.1,29.00,WSW,253,3.6,8.7,58,0.00,,---,0.00,VWS V14.01,2013-07-08 13:29:00,
2013-07-08 09:31:00,79.5,62.0,29.06,WSW,251,4.5,8.7,55,0.00,,---,0.00,VWS V14.01,2013-07-08 13:31:00,
2013-07-08 09:32:00,81.7,65.5,29.00,West,280,7.4,7.4,58,0.00,,---,0.00,VWS V14.01,2013-07-08 13:32:00,
2013-07-08 09:33:00,81.5,64.8,29.00,WSW,257,4.9,10.1,57,0.00,,---,0.00,VWS V14.01,2013-07-08 13:33:00,
2013-07-08 09:34:00,81.7,65.0,29.00,SW,226,3.1,5.8,57,0.00,,---,0.00,VWS V14.01,2013-07-08 13:34:00,
2013-07-08 09:35:00,81.7,65.0,29.00,West,273,4.5,7.4,57,0.00,,---,0.00,VWS V14.01,2013-07-08 13:35:00,
2013-07-08 09:36:00,79.7,61.6,29.06,West,276,5.8,5.8,54,0.00,,---,0.00,VWS V14.01,2013-07-08 13:36:00,
2013-07-08 09:37:00,81.7,65.0,29.00,West,266,4.5,9.2,57,0.00,,---,0.00,VWS V14.01,2013-07-08 13:37:00,
2013-07-08 09:38:00,81.7,64.5,29.00,West,274,6.9,7.4,56,0.00,,---,0.00,VWS V14.01,2013-07-08 13:38:00,
2013-07-08 09:39:00,81.7,64.5,29.00,WNW,295,4.9,6.9,56,0.00,,---,0.00,VWS V14.01,2013-07-08 13:39:00,
2013-07-08 09:40:00,81.9,64.6,29.00,WNW,289,8.3,8.3,56,0.00,,---,0.00,VWS V14.01,2013-07-08 13:40:00,
2013-07-08 09:41:00,80.4,62.3,29.06,West,260,2.7,4.0,54,0.00,,---,0.00,VWS V14.01,2013-07-08 13:41:00,
2013-07-08 09:42:00,81.9,64.6,29.00,SW,233,3.1,7.8,56,0.00,,---,0.00,VWS V14.01,2013-07-08 13:42:00,
2013-07-08 09:44:00,82.2,65.0,29.00,NW,305,5.4,9.6,56,0.00,,---,0.00,VWS V14.01,2013-07-08 13:44:00,
2013-07-08 09:45:00,82.0,64.3,29.00,WNW,284,5.4,6.9,55,0.00,,---,0.00,VWS V14.01,2013-07-08 13:45:00,
2013-07-08 09:46:00,81.0,61.7,29.06,SSW,207,8.7,8.7,52,0.00,,---,0.00,VWS V14.01,2013-07-08 13:46:00,
2013-07-08 09:47:00,82.0,64.3,29.00,WSW,239,6.7,9.6,55,0.00,,---,0.00,VWS V14.01,2013-07-08 13:47:00,
2013-07-08 09:48:00,82.0,64.3,29.00,SW,235,4.9,6.7,55,0.00,,---,0.00,VWS V14.01,2013-07-08 13:48:00,
2013-07-08 09:49:00,82.2,64.5,29.00,NW,310,6.9,6.9,55,0.00,,---,0.00,VWS V14.01,2013-07-08 13:49:00,
2013-07-08 09:51:00,81.0,62.2,29.06,South,180,3.1,4.0,53,0.00,,---,0.00,VWS V14.01,2013-07-08 13:51:00,
2013-07-08 09:52:00,82.2,64.5,29.00,NNW,329,0.0,6.9,55,0.00,,---,0.00,VWS V14.01,2013-07-08 13:52:00,
2013-07-08 09:53:00,82.4,65.1,29.00,South,182,3.1,4.9,56,0.00,,---,0.00,VWS V14.01,2013-07-08 13:53:00,
2013-07-08 09:54:00,82.6,65.3,29.00,West,260,3.1,5.4,56,0.00,,---,0.00,VWS V14.01,2013-07-08 13:54:00,
2013-07-08 09:56:00,81.5,61.7,29.06,SE,144,0.0,6.7,51,0.00,,---,0.00,VWS V14.01,2013-07-08 13:56:00,
2013-07-08 09:57:00,83.1,65.3,29.00,West,276,4.0,6.7,55,0.00,,---,0.00,VWS V14.01,2013-07-08 13:57:00,
2013-07-08 09:58:00,83.5,65.1,29.00,WNW,283,10.1,10.1,54,0.00,,---,0.00,VWS V14.01,2013-07-08 13:58:00,
2013-07-08 10:00:00,82.9,63.5,29.00,West,262,7.8,11.2,52,0.00,,---,0.00,VWS V14.01,2013-07-08 14:00:00,
2013-07-08 10:01:00,82.4,60.8,29.06,SSW,193,0.0,4.0,48,0.00,,---,0.00,VWS V14.01,2013-07-08 14:01:00,
2013-07-08 10:02:00,82.8,63.4,29.00,South,183,4.0,10.5,52,0.00,,---,0.00,VWS V14.01,2013-07-08 14:02:00,
2013-07-08 10:03:00,82.8,63.9,29.00,NW,316,6.9,7.4,53,0.00,,---,0.00,VWS V14.01,2013-07-08 14:03:00,
2013-07-08 10:04:00,82.8,64.4,29.00,WSW,255,4.5,8.3,54,0.00,,---,0.00,VWS V14.01,2013-07-08 14:04:00,
2013-07-08 10:05:00,82.9,64.6,29.00,West,270,5.4,6.9,54,0.00,,---,0.00,VWS V14.01,2013-07-08 14:05:00,
2013-07-08 10:07:00,83.1,60.2,29.06,SSW,200,3.6,7.8,46,0.00,,---,0.00,VWS V14.01,2013-07-08 14:07:00,
2013-07-08 10:08:00,83.3,63.9,29.00,West,259,3.6,8.3,52,0.00,,---,0.00,VWS V14.01,2013-07-08 14:08:00,
2013-07-08 10:12:00,82.8,59.3,29.06,WSW,256,3.1,5.4,45,0.00,,---,0.00,VWS V14.01,2013-07-08 14:12:00,
2013-07-08 10:13:00,83.5,63.5,29.00,WNW,284,9.2,9.2,51,0.00,,---,0.00,VWS V14.01,2013-07-08 14:13:00,
2013-07-08 10:15:00,83.3,63.3,29.00,West,268,10.5,10.5,51,0.00,,---,0.00,VWS V14.01,2013-07-08 14:15:00,
2013-07-08 10:17:00,82.8,59.9,29.06,NW,323,0.0,3.6,46,0.00,,---,0.00,VWS V14.01,2013-07-08 14:17:00,
2013-07-08 10:18:00,83.5,63.5,29.00,WSW,248,11.2,11.2,51,0.00,,---,0.00,VWS V14.01,2013-07-08 14:18:00,
2013-07-08 10:19:00,83.5,62.9,29.00,West,279,7.4,11.2,50,0.00,,---,0.00,VWS V14.01,2013-07-08 14:19:00,
2013-07-08 10:20:00,83.7,63.6,29.00,West,259,4.0,8.3,51,0.00,,---,0.00,VWS V14.01,2013-07-08 14:20:00,
2013-07-08 10:22:00,84.0,64.0,29.00,WNW,282,4.0,8.7,51,0.00,,---,0.00,VWS V14.01,2013-07-08 14:22:00,
2013-07-08 10:23:00,81.0,60.0,29.06,WSW,258,7.8,10.1,49,0.00,,---,0.00,VWS V14.01,2013-07-08 14:23:00,
2013-07-08 10:24:00,84.6,63.9,29.00,West,270,4.9,9.2,50,0.00,,---,0.00,VWS V14.01,2013-07-08 14:24:00,
2013-07-08 10:25:00,84.7,64.1,29.00,West,268,2.7,6.9,50,0.00,,---,0.00,VWS V14.01,2013-07-08 14:25:00,
2013-07-08 10:27:00,84.9,63.1,29.00,WSW,255,7.8,7.8,48,0.00,,---,0.00,VWS V14.01,2013-07-08 14:27:00,
2013-07-08 10:28:00,84.6,63.3,29.00,WSW,258,4.9,11.2,49,0.00,,---,0.00,VWS V14.01,2013-07-08 14:28:00,
2013-07-08 10:29:00,84.4,63.2,29.00,West,262,6.3,8.7,49,0.00,,---,0.00,VWS V14.01,2013-07-08 14:29:00,
2013-07-08 10:30:00,80.6,61.4,29.06,WSW,253,3.1,7.8,52,0.00,,---,0.00,VWS V14.01,2013-07-08 14:30:00,
2013-07-08 10:31:00,84.4,63.7,29.00,West,265,5.8,7.4,50,0.00,,---,0.00,VWS V14.01,2013-07-08 14:31:00,
2013-07-08 10:32:00,84.4,63.7,29.00,West,277,5.8,9.2,50,0.00,,---,0.00,VWS V14.01,2013-07-08 14:32:00,
2013-07-08 10:35:00,84.6,64.5,29.00,WNW,295,6.3,9.2,51,0.00,,---,0.00,VWS V14.01,2013-07-08 14:35:00,
2013-07-08 10:36:00,84.7,65.2,29.00,SW,234,8.7,8.7,52,0.00,,---,0.00,VWS V14.01,2013-07-08 14:36:00,
2013-07-08 10:37:00,81.7,62.4,29.06,West,272,3.6,5.8,52,0.00,,---,0.00,VWS V14.01,2013-07-08 14:37:00,
2013-07-08 10:38:00,84.9,64.2,29.00,WSW,258,6.9,10.5,50,0.00,,---,0.00,VWS V14.01,2013-07-08 14:38:00,
2013-07-08 10:39:00,84.9,63.7,29.00,NW,304,4.5,7.8,49,0.00,,---,0.00,VWS V14.01,2013-07-08 14:39:00,
2013-07-08 10:42:00,82.0,61.0,29.06,SSW,196,2.7,12.1,49,0.00,,---,0.00,VWS V14.01,2013-07-08 14:42:00,
2013-07-08 10:44:00,85.3,64.0,29.00,WNW,287,5.4,9.2,49,0.00,,---,0.00,VWS V14.01,2013-07-08 14:44:00,
2013-07-08 10:46:00,85.5,63.5,29.00,NW,317,6.9,12.5,48,0.00,,---,0.00,VWS V14.01,2013-07-08 14:46:00,
2013-07-08 10:47:00,85.5,63.5,29.00,NW,323,3.6,9.2,48,0.00,,---,0.00,VWS V14.01,2013-07-08 14:47:00,
2013-07-08 10:48:00,82.6,60.3,29.06,WSW,254,5.4,8.3,47,0.00,,---,0.00,VWS V14.01,2013-07-08 14:48:00,
2013-07-08 10:49:00,85.8,63.9,29.00,SW,222,6.3,9.2,48,0.00,,---,0.00,VWS V14.01,2013-07-08 14:49:00,
2013-07-08 10:50:00,85.8,63.3,29.00,NNW,331,4.0,9.6,47,0.00,,---,0.00,VWS V14.01,2013-07-08 14:50:00,
2013-07-08 10:51:00,86.0,62.8,29.00,SSW,197,6.7,11.6,46,0.00,,---,0.00,VWS V14.01,2013-07-08 14:51:00,
2013-07-08 10:52:00,86.0,62.8,29.00,SW,235,5.8,8.3,46,0.00,,---,0.00,VWS V14.01,2013-07-08 14:52:00,
2013-07-08 10:53:00,82.2,60.6,29.06,WNW,287,5.8,5.8,48,0.00,,---,0.00,VWS V14.01,2013-07-08 14:53:00,
2013-07-08 10:54:00,86.4,63.2,29.00,WNW,284,6.9,6.9,46,0.00,,---,0.00,VWS V14.01,2013-07-08 14:54:00,
2013-07-08 10:55:00,86.2,63.0,29.00,WSW,245,10.1,12.5,46,0.00,,---,0.00,VWS V14.01,2013-07-08 14:55:00,
2013-07-08 10:56:00,86.4,62.5,29.00,SW,228,5.4,10.5,45,0.00,,---,0.00,VWS V14.01,2013-07-08 14:56:00,
2013-07-08 10:57:00,86.4,62.5,29.00,WSW,257,5.4,10.1,45,0.00,,---,0.00,VWS V14.01,2013-07-08 14:57:00,
2013-07-08 10:58:00,86.4,63.2,29.00,West,276,5.8,9.6,46,0.00,,---,0.00,VWS V14.01,2013-07-08 14:58:00,
2013-07-08 10:59:00,86.2,63.0,29.00,West,262,3.6,10.1,46,0.00,,---,0.00,VWS V14.01,2013-07-08 14:59:00,
2013-07-08 11:00:00,83.5,60.5,29.06,West,280,4.9,9.2,46,0.00,,---,0.00,VWS V14.01,2013-07-08 15:00:00,
2013-07-08 11:01:00,86.5,63.9,29.00,West,263,8.3,11.2,47,0.00,,---,0.00,VWS V14.01,2013-07-08 15:01:00,
2013-07-08 11:02:00,86.4,62.5,29.00,West,281,6.9,9.2,45,0.00,,---,0.00,VWS V14.01,2013-07-08 15:02:00,
2013-07-08 11:03:00,86.5,63.3,29.00,WNW,302,5.4,6.9,46,0.00,,---,0.00,VWS V14.01,2013-07-08 15:03:00,
2013-07-08 11:04:00,86.4,63.2,29.00,NW,311,6.3,10.1,46,0.00,,---,0.00,VWS V14.01,2013-07-08 15:04:00,
2013-07-08 11:05:00,83.5,60.5,29.06,West,279,5.8,8.3,46,0.00,,---,0.00,VWS V14.01,2013-07-08 15:05:00,
2013-07-08 11:06:00,86.2,62.4,29.00,West,280,6.3,8.7,45,0.00,,---,0.00,VWS V14.01,2013-07-08 15:06:00,
2013-07-08 11:07:00,86.4,62.5,29.00,North,351,5.8,10.1,45,0.00,,---,0.00,VWS V14.01,2013-07-08 15:07:00,
2013-07-08 11:08:00,86.2,62.4,29.00,WNW,296,7.4,9.6,45,0.00,,---,0.00,VWS V14.01,2013-07-08 15:08:00,
2013-07-08 11:10:00,84.9,60.0,29.06,SSW,208,4.9,7.8,43,0.00,,---,0.00,VWS V14.01,2013-07-08 15:10:00,
2013-07-08 11:11:00,86.2,62.4,29.00,WNW,297,6.7,9.2,45,0.00,,---,0.00,VWS V14.01,2013-07-08 15:11:00,
2013-07-08 11:12:00,86.4,62.5,29.00,West,259,4.9,6.9,45,0.00,,---,0.00,VWS V14.01,2013-07-08 15:12:00,
2013-07-08 11:13:00,86.5,62.7,29.00,WSW,243,4.0,7.4,45,0.00,,---,0.00,VWS V14.01,2013-07-08 15:13:00,
2013-07-08 11:14:00,86.5,63.3,29.00,SW,236,6.9,8.7,46,0.00,,---,0.00,VWS V14.01,2013-07-08 15:14:00,
2013-07-08 11:15:00,86.9,63.7,29.00,WSW,251,5.4,6.9,46,0.00,,---,0.00,VWS V14.01,2013-07-08 15:15:00,
2013-07-08 11:17:00,86.9,63.7,29.00,WNW,301,4.9,6.9,46,0.00,,---,0.00,VWS V14.01,2013-07-08 15:17:00,
2013-07-08 11:18:00,87.1,63.2,29.00,WNW,298,7.8,8.7,45,0.00,,---,0.00,VWS V14.01,2013-07-08 15:18:00,
2013-07-08 11:19:00,84.2,59.3,29.06,WNW,286,4.9,8.7,43,0.00,,---,0.00,VWS V14.01,2013-07-08 15:19:00,
2013-07-08 11:20:00,87.1,63.2,29.00,WSW,254,7.8,7.8,45,0.00,,---,0.00,VWS V14.01,2013-07-08 15:20:00,
2013-07-08 11:21:00,87.1,62.5,29.00,WNW,295,7.4,10.1,44,0.00,,---,0.00,VWS V14.01,2013-07-08 15:21:00,
2013-07-08 11:22:00,87.3,62.7,29.00,NW,309,2.7,7.4,44,0.00,,---,0.00,VWS V14.01,2013-07-08 15:22:00,
2013-07-08 11:24:00,87.3,60.7,29.00,WNW,302,5.8,11.6,41,0.00,,---,0.00,VWS V14.01,2013-07-08 15:24:00,
2013-07-08 11:25:00,87.1,60.5,29.00,WSW,255,4.9,9.6,41,0.00,,---,0.00,VWS V14.01,2013-07-08 15:25:00,
2013-07-08 11:26:00,87.1,61.2,29.00,WSW,256,11.2,11.2,42,0.00,,---,0.00,VWS V14.01,2013-07-08 15:26:00,
2013-07-08 11:27:00,84.7,58.5,29.06,SW,223,5.4,9.6,41,0.00,,---,0.00,VWS V14.01,2013-07-08 15:27:00,
2013-07-08 11:28:00,86.9,61.7,29.00,SW,229,2.7,9.2,43,0.00,,---,0.00,VWS V14.01,2013-07-08 15:28:00,
2013-07-08 11:29:00,86.9,62.4,29.00,NW,321,7.4,10.1,44,0.00,,---,0.00,VWS V14.01,2013-07-08 15:29:00,
2013-07-08 11:30:00,86.5,62.1,29.00,WNW,283,7.4,11.2,44,0.00,,---,0.00,VWS V14.01,2013-07-08 15:30:00,
2013-07-08 11:31:00,86.4,61.9,29.00,WSW,244,4.5,9.6,44,0.00,,---,0.00,VWS V14.01,2013-07-08 15:31:00,
2013-07-08 11:32:00,85.3,58.9,29.06,West,275,6.3,6.7,41,0.00,,---,0.00,VWS V14.01,2013-07-08 15:32:00,
2013-07-08 11:34:00,86.4,60.6,29.00,West,268,5.8,12.1,42,0.00,,---,0.00,VWS V14.01,2013-07-08 15:34:00,
2013-07-08 11:35:00,86.5,60.7,29.00,WSW,253,6.3,11.0,42,0.00,,---,0.00,VWS V14.01,2013-07-08 15:35:00,
2013-07-08 11:36:00,86.9,61.7,29.00,West,265,4.5,9.2,43,0.00,,---,0.00,VWS V14.01,2013-07-08 15:36:00,
2013-07-08 11:37:00,85.3,58.2,29.06,WNW,300,5.8,9.6,40,0.00,,---,0.00,VWS V14.01,2013-07-08 15:37:00,
2013-07-08 11:38:00,87.1,61.2,29.00,West,279,3.1,7.8,42,0.00,,---,0.00,VWS V14.01,2013-07-08 15:38:00,
2013-07-08 11:39:00,87.3,61.4,29.00,West,279,5.4,8.3,42,0.00,,---,0.00,VWS V14.01,2013-07-08 15:39:00,
2013-07-08 11:40:00,87.3,61.4,29.00,NW,315,7.4,7.4,42,0.00,,---,0.00,VWS V14.01,2013-07-08 15:40:00,
2013-07-08 11:41:00,87.3,61.4,29.00,WNW,295,7.4,9.2,42,0.00,,---,0.00,VWS V14.01,2013-07-08 15:41:00,
2013-07-08 11:42:00,85.5,59.1,29.06,West,281,5.8,10.5,41,0.00,,---,0.00,VWS V14.01,2013-07-08 15:42:00,
2013-07-08 11:43:00,87.8,61.9,29.00,WSW,237,4.5,7.8,42,0.00,,---,0.00,VWS V14.01,2013-07-08 15:43:00,
2013-07-08 11:44:00,87.6,60.3,29.00,WNW,291,5.8,6.7,40,0.00,,---,0.00,VWS V14.01,2013-07-08 15:44:00,
2013-07-08 11:45:00,87.6,61.7,29.00,WNW,288,4.5,6.9,42,0.00,,---,0.00,VWS V14.01,2013-07-08 15:45:00,
2013-07-08 11:46:00,87.6,61.7,29.00,NW,304,5.4,6.7,42,0.00,,---,0.00,VWS V14.01,2013-07-08 15:46:00,
2013-07-08 11:47:00,85.8,58.7,29.06,WSW,240,3.6,6.7,40,0.00,,---,0.00,VWS V14.01,2013-07-08 15:47:00,
2013-07-08 11:48:00,88.2,62.9,29.00,West,267,4.5,6.7,43,0.00,,---,0.00,VWS V14.01,2013-07-08 15:48:00,
2013-07-08 11:49:00,88.5,63.8,29.00,WSW,237,3.6,5.8,44,0.00,,---,0.00,VWS V14.01,2013-07-08 15:49:00,
2013-07-08 11:50:00,88.7,62.0,29.00,WNW,293,7.8,9.6,41,0.00,,---,0.00,VWS V14.01,2013-07-08 15:50:00,
2013-07-08 11:51:00,88.2,60.1,29.00,South,190,4.0,10.5,39,0.00,,---,0.00,VWS V14.01,2013-07-08 15:51:00,
2013-07-08 11:52:00,86.4,58.5,29.06,SW,234,4.0,6.7,39,0.00,,---,0.00,VWS V14.01,2013-07-08 15:52:00,
2013-07-08 11:53:00,88.2,60.1,29.00,West,264,6.7,8.7,39,0.00,,---,0.00,VWS V14.01,2013-07-08 15:53:00,
2013-07-08 11:54:00,88.3,60.3,29.00,WNW,294,7.4,8.7,39,0.00,,---,0.00,VWS V14.01,2013-07-08 15:54:00,
2013-07-08 11:55:00,88.3,61.0,29.00,SW,231,4.0,7.4,40,0.00,,---,0.00,VWS V14.01,2013-07-08 15:55:00,
2013-07-08 11:56:00,88.3,61.0,29.00,WSW,248,3.1,9.6,40,0.00,,---,0.00,VWS V14.01,2013-07-08 15:56:00,
2013-07-08 11:57:00,85.3,57.5,29.06,West,280,9.2,13.0,39,0.00,,---,0.00,VWS V14.01,2013-07-08 15:57:00,
2013-07-08 11:58:00,88.5,61.1,29.00,West,271,11.2,11.2,40,0.00,,---,0.00,VWS V14.01,2013-07-08 15:58:00,
2013-07-08 11:59:00,88.3,61.0,29.00,WSW,251,4.5,11.2,40,0.00,,---,0.00,VWS V14.01,2013-07-08 15:59:00,
2013-07-08 12:00:00,88.5,61.8,29.00,West,276,4.0,6.7,41,0.00,,---,0.00,VWS V14.01,2013-07-08 16:00:00,
2013-07-08 12:01:00,88.3,61.0,29.00,SW,217,7.4,11.2,40,0.00,,---,0.00,VWS V14.01,2013-07-08 16:01:00,
2013-07-08 12:02:00,84.7,58.5,29.06,WSW,252,0.0,7.4,41,0.00,,---,0.00,VWS V14.01,2013-07-08 16:02:00,
2013-07-08 12:03:00,88.3,60.3,29.00,SSW,206,4.0,8.7,39,0.00,,---,0.00,VWS V14.01,2013-07-08 16:03:00,
2013-07-08 12:04:00,88.5,60.4,29.00,WNW,293,5.8,7.8,39,0.00,,---,0.00,VWS V14.01,2013-07-08 16:04:00,
2013-07-08 12:05:00,88.5,59.7,29.00,West,267,11.2,11.2,38,0.00,,---,0.00,VWS V14.01,2013-07-08 16:05:00,
2013-07-08 12:06:00,88.3,59.5,29.00,South,172,4.5,11.2,38,0.00,,---,0.00,VWS V14.01,2013-07-08 16:06:00,
2013-07-08 12:07:00,85.3,59.6,29.06,West,276,5.4,6.7,42,0.00,,---,0.00,VWS V14.01,2013-07-08 16:07:00,
2013-07-08 12:08:00,88.3,59.5,29.00,West,272,7.8,9.6,38,0.00,,---,0.00,VWS V14.01,2013-07-08 16:08:00,
2013-07-08 12:09:00,88.7,59.9,29.00,West,261,4.5,7.8,38,0.00,,---,0.00,VWS V14.01,2013-07-08 16:09:00,
2013-07-08 12:10:00,88.5,59.7,29.00,WNW,289,4.0,7.8,38,0.00,,---,0.00,VWS V14.01,2013-07-08 16:10:00,
2013-07-08 12:11:00,88.3,59.5,29.00,NW,320,3.6,6.7,38,0.00,,---,0.00,VWS V14.01,2013-07-08 16:11:00,
2013-07-08 12:12:00,85.5,59.1,29.06,WSW,256,5.4,7.4,41,0.00,,---,0.00,VWS V14.01,2013-07-08 16:12:00,
2013-07-08 12:13:00,88.0,60.0,29.00,WNW,300,4.5,10.1,39,0.00,,---,0.00,VWS V14.01,2013-07-08 16:13:00,
2013-07-08 12:14:00,87.8,60.5,29.00,West,276,4.9,6.3,40,0.00,,---,0.00,VWS V14.01,2013-07-08 16:14:00,
2013-07-08 12:16:00,88.2,61.5,29.00,WSW,246,3.6,5.8,41,0.00,,---,0.00,VWS V14.01,2013-07-08 16:16:00,
2013-07-08 12:17:00,85.1,58.1,29.06,NW,304,5.8,9.6,40,0.00,,---,0.00,VWS V14.01,2013-07-08 16:17:00,
2013-07-08 12:18:00,88.9,62.2,29.00,West,273,6.3,8.3,41,0.00,,---,0.00,VWS V14.01,2013-07-08 16:18:00,
2013-07-08 12:20:00,89.6,61.4,29.00,WSW,252,5.4,5.4,39,0.00,,---,0.00,VWS V14.01,2013-07-08 16:20:00,
2013-07-08 12:22:00,86.2,59.7,29.06,West,268,2.7,9.6,41,0.00,,---,0.00,VWS V14.01,2013-07-08 16:22:00,
2013-07-08 12:23:00,89.6,59.1,29.00,WSW,257,10.1,10.5,36,0.00,,---,0.00,VWS V14.01,2013-07-08 16:23:00,
2013-07-08 12:24:00,89.4,59.0,29.00,West,271,11.0,11.0,36,0.00,,---,0.00,VWS V14.01,2013-07-08 16:24:00,
2013-07-08 12:25:00,89.4,59.0,29.00,SW,232,5.8,11.0,36,0.00,,---,0.00,VWS V14.01,2013-07-08 16:25:00,
2013-07-08 12:26:00,89.8,58.5,29.00,WNW,289,8.7,8.7,35,0.00,,---,0.00,VWS V14.01,2013-07-08 16:26:00,
2013-07-08 12:27:00,86.0,58.2,29.06,WNW,282,5.4,6.7,39,0.00,,---,0.00,VWS V14.01,2013-07-08 16:27:00,
2013-07-08 12:28:00,90.0,57.0,29.00,West,277,8.3,8.3,33,0.00,,---,0.00,VWS V14.01,2013-07-08 16:28:00,
2013-07-08 12:29:00,89.6,56.7,29.00,WNW,302,7.8,8.7,33,0.00,,---,0.00,VWS V14.01,2013-07-08 16:29:00,
2013-07-08 12:30:00,89.2,57.2,29.00,WSW,246,4.9,11.0,34,0.00,,---,0.00,VWS V14.01,2013-07-08 16:30:00,
2013-07-08 12:31:00,89.4,58.2,29.00,NE,42,5.4,5.4,35,0.00,,---,0.00,VWS V14.01,2013-07-08 16:31:00,
2013-07-08 12:32:00,85.6,58.6,29.06,WNW,290,6.7,11.0,40,0.00,,---,0.00,VWS V14.01,2013-07-08 16:32:00,
2013-07-08 12:34:00,88.3,59.5,29.00,WNW,286,4.0,9.2,38,0.00,,---,0.00,VWS V14.01,2013-07-08 16:34:00,
2013-07-08 12:35:00,88.7,59.9,29.00,WSW,248,4.9,7.4,38,0.00,,---,0.00,VWS V14.01,2013-07-08 16:35:00,
2013-07-08 12:36:00,88.9,59.3,29.00,West,276,9.2,11.2,37,0.00,,---,0.00,VWS V14.01,2013-07-08 16:36:00,
2013-07-08 12:37:00,84.9,60.0,29.06,South,174,5.8,7.4,43,0.00,,---,0.00,VWS V14.01,2013-07-08 16:37:00,
2013-07-08 12:38:00,88.5,57.4,29.00,WNW,289,6.7,10.5,35,0.00,,---,0.00,VWS V14.01,2013-07-08 16:38:00,
2013-07-08 12:39:00,88.7,58.3,29.00,SSW,212,6.7,8.3,36,0.00,,---,0.00,VWS V14.01,2013-07-08 16:39:00,
2013-07-08 12:40:00,89.1,59.4,29.00,West,265,0.0,6.7,37,0.00,,---,0.00,VWS V14.01,2013-07-08 16:40:00,
2013-07-08 12:42:00,84.0,59.8,29.06,WSW,255,7.8,7.8,44,0.00,,---,0.00,VWS V14.01,2013-07-08 16:42:00,
2013-07-08 12:43:00,88.5,59.7,29.00,NW,314,4.0,11.0,38,0.00,,---,0.00,VWS V14.01,2013-07-08 16:43:00,
2013-07-08 12:44:00,88.3,59.5,29.00,NNW,342,7.8,8.3,38,0.00,,---,0.00,VWS V14.01,2013-07-08 16:44:00,
2013-07-08 12:45:00,88.2,59.4,29.00,WNW,300,7.4,7.8,38,0.00,,---,0.00,VWS V14.01,2013-07-08 16:45:00,
2013-07-08 12:47:00,88.0,60.7,29.00,North,351,6.3,6.9,40,0.00,,---,0.00,VWS V14.01,2013-07-08 16:47:00,
2013-07-08 12:48:00,87.6,60.3,29.00,West,281,5.4,8.7,40,0.00,,---,0.00,VWS V14.01,2013-07-08 16:48:00,
2013-07-08 12:49:00,83.7,60.7,29.06,West,269,5.4,5.4,46,0.00,,---,0.00,VWS V14.01,2013-07-08 16:49:00,
2013-07-08 12:50:00,87.6,60.3,29.00,NW,324,7.4,9.6,40,0.00,,---,0.00,VWS V14.01,2013-07-08 16:50:00,
2013-07-08 12:52:00,87.1,59.2,29.00,West,276,6.9,8.7,39,0.00,,---,0.00,VWS V14.01,2013-07-08 16:52:00,
2013-07-08 12:53:00,87.1,59.2,29.00,SW,235,6.7,8.3,39,0.00,,---,0.00,VWS V14.01,2013-07-08 16:53:00,
2013-07-08 12:54:00,83.7,60.7,29.06,WSW,249,5.4,8.3,46,0.00,,---,0.00,VWS V14.01,2013-07-08 16:54:00,
2013-07-08 12:56:00,87.3,60.7,29.00,West,263,3.6,7.8,41,0.00,,---,0.00,VWS V14.01,2013-07-08 16:56:00,
2013-07-08 12:57:00,87.3,61.4,29.00,WNW,300,5.8,8.7,42,0.00,,---,0.00,VWS V14.01,2013-07-08 16:57:00,
2013-07-08 12:58:00,87.6,61.7,29.00,WSW,253,4.5,6.7,42,0.00,,---,0.00,VWS V14.01,2013-07-08 16:58:00,
2013-07-08 12:59:00,87.8,61.9,29.00,West,277,4.5,5.8,42,0.00,,---,0.00,VWS V14.01,2013-07-08 16:59:00,
2013-07-08 13:01:00,83.1,59.0,29.06,North,351,8.3,9.6,44,0.00,,---,0.00,VWS V14.01,2013-07-08 17:01:00,
2013-07-08 13:03:00,87.8,61.9,29.00,West,277,4.9,8.3,42,0.00,,---,0.00,VWS V14.01,2013-07-08 17:03:00,
2013-07-08 13:04:00,87.8,61.9,29.00,WSW,251,4.0,6.7,42,0.00,,---,0.00,VWS V14.01,2013-07-08 17:04:00,
2013-07-08 13:05:00,88.3,62.4,29.00,WNW,282,4.5,5.8,42,0.00,,---,0.00,VWS V14.01,2013-07-08 17:05:00,
2013-07-08 13:06:00,83.1,59.0,29.06,West,265,6.7,8.7,44,0.00,,---,0.00,VWS V14.01,2013-07-08 17:06:00,
2013-07-08 13:07:00,88.7,62.0,29.00,South,169,3.6,6.9,41,0.00,,---,0.00,VWS V14.01,2013-07-08 17:07:00,
2013-07-08 13:08:00,89.1,62.3,29.00,West,268,0.0,5.4,41,0.00,,---,0.00,VWS V14.01,2013-07-08 17:08:00,
2013-07-08 13:09:00,89.6,63.5,29.00,WNW,289,7.8,10.1,42,0.00,,---,0.00,VWS V14.01,2013-07-08 17:09:00,
2013-07-08 13:11:00,83.7,58.8,29.06,South,178,3.6,6.7,43,0.00,,---,0.00,VWS V14.01,2013-07-08 17:11:00,
2013-07-08 13:12:00,90.1,61.1,28.97,SW,236,4.5,4.5,38,0.00,,---,0.00,VWS V14.01,2013-07-08 17:12:00,
2013-07-08 13:15:00,89.8,60.1,28.97,WSW,244,4.9,9.2,37,0.00,,---,0.00,VWS V14.01,2013-07-08 17:15:00,
2013-07-08 13:16:00,83.7,58.8,29.06,WNW,295,4.5,4.9,43,0.00,,---,0.00,VWS V14.01,2013-07-08 17:16:00,
2013-07-08 13:17:00,90.0,61.0,28.97,WSW,249,6.3,6.3,38,0.00,,---,0.00,VWS V14.01,2013-07-08 17:17:00,
2013-07-08 13:18:00,89.8,60.8,28.97,SSW,209,6.7,9.2,38,0.00,,---,0.00,VWS V14.01,2013-07-08 17:18:00,
2013-07-08 13:19:00,89.6,60.7,28.97,WNW,294,3.6,7.8,38,0.00,,---,0.00,VWS V14.01,2013-07-08 17:19:00,
2013-07-08 13:20:00,89.4,61.2,28.97,SW,231,0.0,5.8,39,0.00,,---,0.00,VWS V14.01,2013-07-08 17:20:00,
2013-07-08 13:21:00,89.2,61.1,28.97,WNW,287,3.1,3.6,39,0.00,,---,0.00,VWS V14.01,2013-07-08 17:21:00,
2013-07-08 13:23:00,89.1,61.6,28.97,SW,220,3.1,6.3,40,0.00,,---,0.00,VWS V14.01,2013-07-08 17:23:00,
2013-07-08 13:24:00,88.9,60.8,28.97,WSW,250,4.9,6.9,39,0.00,,---,0.00,VWS V14.01,2013-07-08 17:24:00,
2013-07-08 13:25:00,83.5,58.0,29.06,West,260,7.8,11.6,42,0.00,,---,0.00,VWS V14.01,2013-07-08 17:25:00,
2013-07-08 13:27:00,88.3,61.0,28.97,West,270,4.5,8.7,40,0.00,,---,0.00,VWS V14.01,2013-07-08 17:27:00,
2013-07-08 13:28:00,88.5,61.8,28.97,WSW,249,3.1,6.7,41,0.00,,---,0.00,VWS V14.01,2013-07-08 17:28:00,
2013-07-08 13:29:00,88.7,62.0,28.97,WNW,291,5.4,6.9,41,0.00,,---,0.00,VWS V14.01,2013-07-08 17:29:00,
2013-07-08 13:30:00,88.9,62.2,28.97,WNW,291,3.1,5.4,41,0.00,,---,0.00,VWS V14.01,2013-07-08 17:30:00,
2013-07-08 13:31:00,83.1,59.0,29.06,WNW,289,5.8,8.7,44,0.00,,---,0.00,VWS V14.01,2013-07-08 17:31:00,
2013-07-08 13:32:00,88.9,62.2,28.97,NW,307,6.3,6.7,41,0.00,,---,0.00,VWS V14.01,2013-07-08 17:32:00,
2013-07-08 13:34:00,88.7,62.0,28.97,West,271,6.9,9.2,41,0.00,,---,0.00,VWS V14.01,2013-07-08 17:34:00,
2013-07-08 13:35:00,88.3,62.4,28.97,WNW,290,9.6,9.6,42,0.00,,---,0.00,VWS V14.01,2013-07-08 17:35:00,
2013-07-08 13:36:00,88.3,62.4,28.97,West,266,0.0,10.5,42,0.00,,---,0.00,VWS V14.01,2013-07-08 17:36:00,
2013-07-08 13:37:00,83.3,61.0,29.06,NW,320,5.8,5.8,47,0.00,,---,0.00,VWS V14.01,2013-07-08 17:37:00,
2013-07-08 13:40:00,89.2,61.8,28.97,NW,321,2.7,4.0,40,0.00,,---,0.00,VWS V14.01,2013-07-08 17:40:00,
2013-07-08 13:41:00,89.1,60.9,28.97,West,264,3.6,9.2,39,0.00,,---,0.00,VWS V14.01,2013-07-08 17:41:00,
2013-07-08 13:42:00,83.3,61.0,29.06,WSW,252,3.6,6.7,47,0.00,,---,0.00,VWS V14.01,2013-07-08 17:42:00,
2013-07-08 13:43:00,88.7,60.6,28.97,West,263,6.9,6.9,39,0.00,,---,0.00,VWS V14.01,2013-07-08 17:43:00,
2013-07-08 13:44:00,88.7,60.6,28.97,NNW,338,5.4,6.9,39,0.00,,---,0.00,VWS V14.01,2013-07-08 17:44:00,
2013-07-08 13:45:00,88.5,60.4,28.97,West,259,5.4,7.8,39,0.00,,---,0.00,VWS V14.01,2013-07-08 17:45:00,
2013-07-08 13:46:00,88.7,61.3,28.97,WNW,297,3.6,6.7,40,0.00,,---,0.00,VWS V14.01,2013-07-08 17:46:00,
2013-07-08 13:47:00,83.3,62.7,29.06,West,271,3.6,6.7,50,0.00,,---,0.00,VWS V14.01,2013-07-08 17:47:00,
2013-07-08 13:48:00,88.7,59.9,28.97,SW,214,6.9,8.3,38,0.00,,---,0.00,VWS V14.01,2013-07-08 17:48:00,
2013-07-08 13:51:00,89.2,61.8,28.97,NW,305,4.9,6.9,40,0.00,,---,0.00,VWS V14.01,2013-07-08 17:51:00,
2013-07-08 13:52:00,82.9,60.7,29.06,West,264,4.0,7.4,47,0.00,,---,0.00,VWS V14.01,2013-07-08 17:52:00,
2013-07-08 13:53:00,89.1,59.4,28.97,West,265,9.2,12.1,37,0.00,,---,0.00,VWS V14.01,2013-07-08 17:53:00,
2013-07-08 13:54:00,89.1,60.2,28.97,WSW,256,6.7,9.2,38,0.00,,---,0.00,VWS V14.01,2013-07-08 17:54:00,
2013-07-08 13:55:00,89.1,60.9,28.97,WSW,253,5.4,8.3,39,0.00,,---,0.00,VWS V14.01,2013-07-08 17:55:00,
2013-07-08 13:57:00,82.8,60.5,29.06,WSW,245,0.0,0.0,47,0.00,,---,0.00,VWS V14.01,2013-07-08 17:57:00,
2013-07-08 13:58:00,90.5,61.5,28.97,SW,222,4.0,8.7,38,0.00,,---,0.00,VWS V14.01,2013-07-08 17:58:00,
2013-07-08 13:59:00,91.2,61.3,28.97,NW,313,4.9,7.8,37,0.00,,---,0.00,VWS V14.01,2013-07-08 17:59:00,
2013-07-08 14:00:00,91.4,60.7,28.97,SW,214,3.6,5.8,36,0.00,,---,0.00,VWS V14.01,2013-07-08 18:00:00,
2013-07-08 14:01:00,91.8,59.4,28.97,SW,226,4.0,7.8,34,0.00,,---,0.00,VWS V14.01,2013-07-08 18:01:00,
2013-07-08 14:02:00,83.3,61.6,29.03,WSW,246,3.1,4.9,48,0.00,,---,0.00,VWS V14.01,2013-07-08 18:02:00,
2013-07-08 14:03:00,91.8,57.7,28.97,WNW,284,4.9,6.9,32,0.00,,---,0.00,VWS V14.01,2013-07-08 18:03:00,
2013-07-08 14:04:00,91.8,56.9,28.97,WSW,247,2.7,7.4,31,0.00,,---,0.00,VWS V14.01,2013-07-08 18:04:00,
2013-07-08 14:05:00,91.4,56.5,28.97,WSW,251,2.7,10.5,31,0.00,,---,0.00,VWS V14.01,2013-07-08 18:05:00,
2013-07-08 14:06:00,91.8,57.7,28.97,West,262,4.5,7.4,32,0.00,,---,0.00,VWS V14.01,2013-07-08 18:06:00,
2013-07-08 14:08:00,83.8,60.9,29.03,West,270,3.1,5.4,46,0.00,,---,0.00,VWS V14.01,2013-07-08 18:08:00,
2013-07-08 14:11:00,91.0,57.1,28.97,West,260,6.7,9.6,32,0.00,,---,0.00,VWS V14.01,2013-07-08 18:11:00,
2013-07-08 14:12:00,90.5,56.6,28.97,WNW,291,8.3,9.6,32,0.00,,---,0.00,VWS V14.01,2013-07-08 18:12:00,
2013-07-08 14:13:00,84.2,60.6,29.03,West,275,4.5,6.7,45,0.00,,---,0.00,VWS V14.01,2013-07-08 18:13:00,
2013-07-08 14:14:00,89.6,59.1,28.97,West,271,9.6,9.6,36,0.00,,---,0.00,VWS V14.01,2013-07-08 18:14:00,
2013-07-08 14:16:00,88.7,59.9,28.97,NW,324,3.6,8.3,38,0.00,,---,0.00,VWS V14.01,2013-07-08 18:16:00,
2013-07-08 14:17:00,88.7,60.6,28.97,WNW,302,4.5,5.8,39,0.00,,---,0.00,VWS V14.01,2013-07-08 18:17:00,
2013-07-08 14:18:00,84.4,61.4,29.03,North,8,3.1,6.3,46,0.00,,---,0.00,VWS V14.01,2013-07-08 18:18:00,
2013-07-08 14:19:00,88.7,60.6,28.97,South,184,6.3,8.7,39,0.00,,---,0.00,VWS V14.01,2013-07-08 18:19:00,
2013-07-08 14:20:00,89.1,60.9,28.97,SW,220,4.5,6.3,39,0.00,,---,0.00,VWS V14.01,2013-07-08 18:20:00,
2013-07-08 14:21:00,89.2,61.1,28.97,WSW,247,4.9,8.3,39,0.00,,---,0.00,VWS V14.01,2013-07-08 18:21:00,
2013-07-08 14:22:00,88.9,60.8,28.97,WNW,292,5.4,8.3,39,0.00,,---,0.00,VWS V14.01,2013-07-08 18:22:00,
2013-07-08 14:23:00,84.9,61.2,29.03,WNW,284,4.9,6.7,45,0.00,,---,0.00,VWS V14.01,2013-07-08 18:23:00,
2013-07-08 14:25:00,89.1,60.9,28.97,NNW,328,6.7,7.4,39,0.00,,---,0.00,VWS V14.01,2013-07-08 18:25:00,
2013-07-08 14:26:00,89.2,61.1,28.97,NNW,331,4.0,6.7,39,0.00,,---,0.00,VWS V14.01,2013-07-08 18:26:00,
2013-07-08 14:27:00,89.2,61.1,28.97,SSW,210,5.4,5.8,39,0.00,,---,0.00,VWS V14.01,2013-07-08 18:27:00,
2013-07-08 14:28:00,89.4,61.2,28.97,ENE,71,3.1,6.9,39,0.00,,---,0.00,VWS V14.01,2013-07-08 18:28:00,
2013-07-08 14:29:00,84.6,60.9,29.03,WNW,302,6.7,7.4,45,0.00,,---,0.00,VWS V14.01,2013-07-08 18:29:00,
2013-07-08 14:32:00,89.8,62.3,28.97,WNW,282,4.5,5.8,40,0.00,,---,0.00,VWS V14.01,2013-07-08 18:32:00,
2013-07-08 14:33:00,90.0,62.4,28.97,SW,231,3.6,4.5,40,0.00,,---,0.00,VWS V14.01,2013-07-08 18:33:00,
2013-07-08 14:34:00,90.1,61.9,28.97,West,268,7.8,8.3,39,0.00,,---,0.00,VWS V14.01,2013-07-08 18:34:00,
2013-07-08 14:35:00,90.1,61.1,28.97,West,276,9.6,9.6,38,0.00,,---,0.00,VWS V14.01,2013-07-08 18:35:00,
2013-07-08 14:36:00,84.7,59.8,29.03,WSW,251,4.0,7.8,43,0.00,,---,0.00,VWS V14.01,2013-07-08 18:36:00,
2013-07-08 14:37:00,89.2,61.8,28.97,WNW,283,7.8,7.8,40,0.00,,---,0.00,VWS V14.01,2013-07-08 18:37:00,
2013-07-08 14:38:00,88.9,62.2,28.97,WSW,241,7.8,10.1,41,0.00,,---,0.00,VWS V14.01,2013-07-08 18:38:00,
2013-07-08 14:40:00,89.1,63.0,28.97,West,262,5.8,5.8,42,0.00,,---,0.00,VWS V14.01,2013-07-08 18:40:00,
2013-07-08 14:41:00,84.7,59.8,29.03,WSW,252,7.4,11.0,43,0.00,,---,0.00,VWS V14.01,2013-07-08 18:41:00,
2013-07-08 14:42:00,89.2,62.5,28.97,West,270,7.4,7.4,41,0.00,,---,0.00,VWS V14.01,2013-07-08 18:42:00,
2013-07-08 14:43:00,89.2,62.5,28.97,WSW,247,3.1,10.1,41,0.00,,---,0.00,VWS V14.01,2013-07-08 18:43:00,
2013-07-08 14:44:00,89.6,62.8,28.97,WSW,239,4.9,8.3,41,0.00,,---,0.00,VWS V14.01,2013-07-08 18:44:00,
2013-07-08 14:45:00,89.6,62.1,28.97,WNW,293,3.6,7.4,40,0.00,,---,0.00,VWS V14.01,2013-07-08 18:45:00,
2013-07-08 14:46:00,84.6,59.0,29.03,WSW,257,3.6,8.3,42,0.00,,---,0.00,VWS V14.01,2013-07-08 18:46:00,
2013-07-08 14:48:00,89.6,61.4,28.97,WNW,287,5.4,11.0,39,0.00,,---,0.00,VWS V14.01,2013-07-08 18:48:00,
2013-07-08 14:49:00,89.8,61.5,28.97,WNW,287,6.7,6.7,39,0.00,,---,0.00,VWS V14.01,2013-07-08 18:49:00,
2013-07-08 14:51:00,84.0,59.1,29.03,WNW,285,6.7,8.3,43,0.00,,---,0.00,VWS V14.01,2013-07-08 18:51:00,
2013-07-08 14:52:00,89.8,62.3,28.97,WSW,258,0.0,5.4,40,0.00,,---,0.00,VWS V14.01,2013-07-08 18:52:00,
2013-07-08 14:53:00,90.1,61.9,28.97,NW,311,5.4,5.8,39,0.00,,---,0.00,VWS V14.01,2013-07-08 18:53:00,
2013-07-08 14:55:00,90.0,61.7,28.97,NNW,344,5.4,6.3,39,0.00,,---,0.00,VWS V14.01,2013-07-08 18:55:00,
2013-07-08 14:56:00,83.8,59.6,29.03,West,267,3.1,6.9,44,0.00,,---,0.00,VWS V14.01,2013-07-08 18:56:00,
2013-07-08 14:58:00,90.1,61.9,28.97,WSW,254,4.5,5.8,39,0.00,,---,0.00,VWS V14.01,2013-07-08 18:58:00,
2013-07-08 14:59:00,90.3,62.0,28.97,WSW,252,6.3,6.9,39,0.00,,---,0.00,VWS V14.01,2013-07-08 18:59:00,
2013-07-08 15:00:00,90.5,61.5,28.97,West,274,5.4,6.3,38,0.00,,---,0.00,VWS V14.01,2013-07-08 19:00:00,
2013-07-08 15:01:00,90.7,61.6,28.97,NNW,328,2.7,8.7,38,0.00,,---,0.00,VWS V14.01,2013-07-08 19:01:00,
2013-07-08 15:02:00,82.8,61.1,29.03,West,266,5.4,7.4,48,0.00,,---,0.00,VWS V14.01,2013-07-08 19:02:00,
2013-07-08 15:03:00,91.2,62.8,28.97,SW,215,2.7,6.3,39,0.00,,---,0.00,VWS V14.01,2013-07-08 19:03:00,
2013-07-08 15:04:00,91.6,61.7,28.97,SW,226,6.9,9.2,37,0.00,,---,0.00,VWS V14.01,2013-07-08 19:04:00,
2013-07-08 15:05:00,91.2,60.6,28.97,NW,307,6.7,11.0,36,0.00,,---,0.00,VWS V14.01,2013-07-08 19:05:00,
2013-07-08 15:06:00,91.2,60.6,28.97,NW,314,7.8,7.8,36,0.00,,---,0.00,VWS V14.01,2013-07-08 19:06:00,
2013-07-08 15:08:00,91.2,59.8,28.97,SSW,213,4.5,9.2,35,0.00,,---,0.00,VWS V14.01,2013-07-08 19:08:00,
2013-07-08 15:09:00,82.4,61.3,29.03,WSW,238,3.6,7.4,49,0.00,,---,0.00,VWS V14.01,2013-07-08 19:09:00,
2013-07-08 15:10:00,91.6,58.4,28.97,WNW,288,8.3,12.1,33,0.00,,---,0.00,VWS V14.01,2013-07-08 19:10:00,
2013-07-08 15:11:00,91.6,58.4,28.97,NW,304,6.3,9.2,33,0.00,,---,0.00,VWS V14.01,2013-07-08 19:11:00,
2013-07-08 15:12:00,91.4,59.9,28.94,West,267,6.3,7.8,35,0.00,,---,0.00,VWS V14.01,2013-07-08 19:12:00,
2013-07-08 15:13:00,91.4,59.1,28.94,West,275,4.0,9.2,34,0.00,,---,0.00,VWS V14.01,2013-07-08 19:13:00,
2013-07-08 15:14:00,82.6,63.2,29.03,West,267,0.0,6.3,52,0.00,,---,0.00,VWS V14.01,2013-07-08 19:14:00,
2013-07-08 15:15:00,91.0,60.4,28.94,WSW,250,3.6,8.3,36,0.00,,---,0.00,VWS V14.01,2013-07-08 19:15:00,
2013-07-08 15:16:00,90.7,60.1,28.94,South,187,3.6,10.1,36,0.00,,---,0.00,VWS V14.01,2013-07-08 19:16:00,
2013-07-08 15:17:00,90.7,59.3,28.94,West,279,6.7,11.0,35,0.00,,---,0.00,VWS V14.01,2013-07-08 19:17:00,
2013-07-08 15:18:00,90.7,58.5,28.94,NW,325,9.6,9.6,34,0.00,,---,0.00,VWS V14.01,2013-07-08 19:18:00,
2013-07-08 15:19:00,90.3,58.2,28.94,WSW,239,6.9,11.2,34,0.00,,---,0.00,VWS V14.01,2013-07-08 19:19:00,
2013-07-08 15:20:00,82.6,65.3,29.03,WNW,285,4.9,5.4,56,0.00,,---,0.00,VWS V14.01,2013-07-08 19:20:00,
2013-07-08 15:21:00,90.1,60.4,28.94,WSW,256,2.7,8.7,37,0.00,,---,0.00,VWS V14.01,2013-07-08 19:21:00,
2013-07-08 15:22:00,90.3,60.5,28.94,West,279,8.7,8.7,37,0.00,,---,0.00,VWS V14.01,2013-07-08 19:22:00,
2013-07-08 15:23:00,90.1,60.4,28.94,West,263,7.4,9.6,37,0.00,,---,0.00,VWS V14.01,2013-07-08 19:23:00,
2013-07-08 15:24:00,89.8,59.3,28.94,SW,217,6.7,12.1,36,0.00,,---,0.00,VWS V14.01,2013-07-08 19:24:00,
2013-07-08 15:25:00,89.4,59.7,28.94,WNW,284,5.8,9.6,37,0.00,,---,0.00,VWS V14.01,2013-07-08 19:25:00,
2013-07-08 15:26:00,81.7,64.5,29.03,WNW,284,5.4,7.4,56,0.00,,---,0.00,VWS V14.01,2013-07-08 19:26:00,
2013-07-08 15:27:00,89.4,60.5,28.94,NNW,343,6.7,8.3,38,0.00,,---,0.00,VWS V14.01,2013-07-08 19:27:00,
2013-07-08 15:28:00,89.4,60.5,28.94,WNW,285,6.3,9.2,38,0.00,,---,0.00,VWS V14.01,2013-07-08 19:28:00,
2013-07-08 15:29:00,89.2,60.3,28.94,WNW,283,5.4,10.5,38,0.00,,---,0.00,VWS V14.01,2013-07-08 19:29:00,
2013-07-08 15:30:00,89.2,60.3,28.94,WSW,247,5.8,7.4,38,0.00,,---,0.00,VWS V14.01,2013-07-08 19:30:00,
2013-07-08 15:31:00,81.5,65.3,29.03,SW,228,0.0,5.4,58,0.00,,---,0.00,VWS V14.01,2013-07-08 19:31:00,
2013-07-08 15:33:00,89.2,60.3,28.94,West,279,11.6,11.6,38,0.00,,---,0.00,VWS V14.01,2013-07-08 19:33:00,
2013-07-08 15:34:00,89.4,59.0,28.94,SW,214,4.0,11.6,36,0.00,,---,0.00,VWS V14.01,2013-07-08 19:34:00,
2013-07-08 15:35:00,89.6,59.1,28.94,WNW,290,5.8,8.7,36,0.00,,---,0.00,VWS V14.01,2013-07-08 19:35:00,
2013-07-08 15:36:00,81.5,65.3,29.03,West,275,4.9,4.9,58,0.00,,---,0.00,VWS V14.01,2013-07-08 19:36:00,
2013-07-08 15:37:00,89.8,58.5,28.94,WSW,249,0.0,6.7,35,0.00,,---,0.00,VWS V14.01,2013-07-08 19:37:00,
2013-07-08 15:39:00,90.1,59.6,28.94,SW,218,2.7,6.3,36,0.00,,---,0.00,VWS V14.01,2013-07-08 19:39:00,
2013-07-08 15:40:00,90.7,59.3,28.94,WSW,251,3.6,5.8,35,0.00,,---,0.00,VWS V14.01,2013-07-08 19:40:00,
2013-07-08 15:41:00,81.7,65.0,29.03,WNW,298,4.0,6.3,57,0.00,,---,0.00,VWS V14.01,2013-07-08 19:41:00,
2013-07-08 15:44:00,92.3,59.9,28.94,West,268,7.4,7.4,34,0.00,,---,0.00,VWS V14.01,2013-07-08 19:44:00,
2013-07-08 15:45:00,92.5,59.2,28.94,SW,234,4.9,7.4,33,0.00,,---,0.00,VWS V14.01,2013-07-08 19:45:00,
2013-07-08 15:46:00,82.4,65.1,29.03,West,272,3.1,4.5,56,0.00,,---,0.00,VWS V14.01,2013-07-08 19:46:00,
2013-07-08 15:47:00,93.2,58.1,28.94,West,274,4.5,11.2,31,0.00,,---,0.00,VWS V14.01,2013-07-08 19:47:00,
2013-07-08 15:48:00,93.4,59.1,28.94,West,261,0.0,6.7,32,0.00,,---,0.00,VWS V14.01,2013-07-08 19:48:00,
2013-07-08 15:49:00,93.6,59.3,28.94,SSW,210,2.7,4.5,32,0.00,,---,0.00,VWS V14.01,2013-07-08 19:49:00,
2013-07-08 15:51:00,82.9,64.1,29.03,West,270,3.6,6.7,53,0.00,,---,0.00,VWS V14.01,2013-07-08 19:51:00,
2013-07-08 15:52:00,94.1,58.0,28.94,West,279,5.4,7.4,30,0.00,,---,0.00,VWS V14.01,2013-07-08 19:52:00,
2013-07-08 15:53:00,93.7,57.7,28.94,SSW,208,0.0,6.9,30,0.00,,---,0.00,VWS V14.01,2013-07-08 19:53:00,
2013-07-08 15:54:00,93.7,57.7,28.94,WSW,249,3.1,4.9,30,0.00,,---,0.00,VWS V14.01,2013-07-08 19:54:00,
2013-07-08 15:55:00,93.6,57.5,28.94,WSW,237,4.9,4.9,30,0.00,,---,0.00,VWS V14.01,2013-07-08 19:55:00,
2013-07-08 15:56:00,83.1,64.8,29.03,WSW,258,4.9,5.8,54,0.00,,---,0.00,VWS V14.01,2013-07-08 19:56:00,
2013-07-08 15:57:00,93.4,57.3,28.94,West,262,5.8,5.8,30,0.00,,---,0.00,VWS V14.01,2013-07-08 19:57:00,
2013-07-08 15:59:00,93.2,57.2,28.94,WNW,289,5.4,7.4,30,0.00,,---,0.00,VWS V14.01,2013-07-08 19:59:00,
2013-07-08 16:00:00,93.0,57.9,28.94,West,274,5.8,7.8,31,0.00,,---,0.00,VWS V14.01,2013-07-08 20:00:00,
2013-07-08 16:01:00,83.5,63.5,29.03,West,267,4.9,5.8,51,0.00,,---,0.00,VWS V14.01,2013-07-08 20:01:00,
2013-07-08 16:02:00,92.1,58.0,28.94,SSW,193,2.7,7.8,32,0.00,,---,0.00,VWS V14.01,2013-07-08 20:02:00,
2013-07-08 16:03:00,91.9,58.8,28.94,West,274,3.1,5.8,33,0.00,,---,0.00,VWS V14.01,2013-07-08 20:03:00,
2013-07-08 16:04:00,91.8,58.6,28.94,West,279,4.9,11.0,33,0.00,,---,0.00,VWS V14.01,2013-07-08 20:04:00,
2013-07-08 16:06:00,91.6,60.1,28.94,WNW,289,0.0,6.3,35,0.00,,---,0.00,VWS V14.01,2013-07-08 20:06:00,
2013-07-08 16:07:00,83.3,63.3,29.03,WSW,240,3.6,6.7,51,0.00,,---,0.00,VWS V14.01,2013-07-08 20:07:00,
2013-07-08 16:09:00,91.4,59.9,28.94,WNW,298,6.7,9.2,35,0.00,,---,0.00,VWS V14.01,2013-07-08 20:09:00,
2013-07-08 16:11:00,90.7,60.9,28.94,West,279,5.8,7.8,37,0.00,,---,0.00,VWS V14.01,2013-07-08 20:11:00,
2013-07-08 16:12:00,83.3,63.9,29.03,WNW,282,9.6,9.6,52,0.00,,---,0.00,VWS V14.01,2013-07-08 20:12:00,
2013-07-08 16:14:00,90.7,62.3,28.94,West,268,4.5,5.4,39,0.00,,---,0.00,VWS V14.01,2013-07-08 20:14:00,
2013-07-08 16:15:00,91.0,61.2,28.94,West,269,4.0,6.7,37,0.00,,---,0.00,VWS V14.01,2013-07-08 20:15:00,
2013-07-08 16:16:00,91.2,61.3,28.94,NNW,347,6.7,9.6,37,0.00,,---,0.00,VWS V14.01,2013-07-08 20:16:00,
2013-07-08 16:17:00,91.2,60.6,28.94,West,264,6.3,10.1,36,0.00,,---,0.00,VWS V14.01,2013-07-08 20:17:00,
2013-07-08 16:18:00,82.9,62.4,29.00,West,273,4.9,5.8,50,0.00,,---,0.00,VWS V14.01,2013-07-08 20:18:00,
2013-07-08 16:19:00,91.6,60.9,28.94,West,276,4.9,6.7,36,0.00,,---,0.00,VWS V14.01,2013-07-08 20:19:00,
2013-07-08 16:20:00,91.6,60.1,28.94,WNW,293,4.5,6.9,35,0.00,,---,0.00,VWS V14.01,2013-07-08 20:20:00,
2013-07-08 16:22:00,91.6,59.3,28.94,NNW,327,5.4,9.6,34,0.00,,---,0.00,VWS V14.01,2013-07-08 20:22:00,
2013-07-08 16:23:00,82.8,61.7,29.00,West,271,5.4,7.8,49,0.00,,---,0.00,VWS V14.01,2013-07-08 20:23:00,
2013-07-08 16:25:00,92.1,61.3,28.94,WNW,282,6.7,8.3,36,0.00,,---,0.00,VWS V14.01,2013-07-08 20:25:00,
2013-07-08 16:26:00,92.1,58.9,28.94,SSW,212,4.5,12.5,33,0.00,,---,0.00,VWS V14.01,2013-07-08 20:26:00,
2013-07-08 16:28:00,82.8,62.2,29.00,West,272,5.4,6.7,50,0.00,,---,0.00,VWS V14.01,2013-07-08 20:28:00,
2013-07-08 16:29:00,92.5,57.5,28.94,West,259,6.3,7.8,31,0.00,,---,0.00,VWS V14.01,2013-07-08 20:29:00,
2013-07-08 16:30:00,92.3,57.3,28.94,West,265,4.5,6.9,31,0.00,,---,0.00,VWS V14.01,2013-07-08 20:30:00,
2013-07-08 16:31:00,92.1,58.0,28.94,WSW,258,7.4,11.2,32,0.00,,---,0.00,VWS V14.01,2013-07-08 20:31:00,
2013-07-08 16:32:00,91.8,57.7,28.94,West,273,5.4,7.8,32,0.00,,---,0.00,VWS V14.01,2013-07-08 20:32:00,
2013-07-08 16:33:00,91.2,57.3,28.94,SSW,201,3.6,8.7,32,0.00,,---,0.00,VWS V14.01,2013-07-08 20:33:00,
2013-07-08 16:34:00,82.8,62.8,29.00,West,260,0.0,5.4,51,0.00,,---,0.00,VWS V14.01,2013-07-08 20:34:00,
2013-07-08 16:35:00,90.7,58.5,28.94,West,278,9.6,9.6,34,0.00,,---,0.00,VWS V14.01,2013-07-08 20:35:00,
2013-07-08 16:36:00,90.5,58.3,28.94,SW,230,5.4,9.6,34,0.00,,---,0.00,VWS V14.01,2013-07-08 20:36:00,
2013-07-08 16:37:00,90.5,59.1,28.94,SW,236,6.3,9.2,35,0.00,,---,0.00,VWS V14.01,2013-07-08 20:37:00,
2013-07-08 16:39:00,83.1,62.6,29.00,SW,236,4.0,4.9,50,0.00,,---,0.00,VWS V14.01,2013-07-08 20:39:00,
2013-07-08 16:40:00,90.1,58.8,28.94,NNW,328,5.8,12.1,35,0.00,,---,0.00,VWS V14.01,2013-07-08 20:40:00,
2013-07-08 16:41:00,90.1,59.6,28.94,West,267,6.9,9.6,36,0.00,,---,0.00,VWS V14.01,2013-07-08 20:41:00,
2013-07-08 16:43:00,90.3,60.5,28.94,NNW,340,3.6,5.8,37,0.00,,---,0.00,VWS V14.01,2013-07-08 20:43:00,
2013-07-08 16:44:00,90.5,60.7,28.94,West,273,3.1,4.9,37,0.00,,---,0.00,VWS V14.01,2013-07-08 20:44:00,
2013-07-08 16:45:00,90.9,60.2,28.94,West,275,7.8,8.7,36,0.00,,---,0.00,VWS V14.01,2013-07-08 20:45:00,
2013-07-08 16:46:00,90.9,60.2,28.94,WSW,242,7.4,13.4,36,0.00,,---,0.00,VWS V14.01,2013-07-08 20:46:00,
2013-07-08 16:47:00,90.9,61.0,28.94,West,274,9.2,9.2,37,0.00,,---,0.00,VWS V14.01,2013-07-08 20:47:00,
2013-07-08 16:48:00,90.7,60.1,28.94,SW,227,2.7,11.6,36,0.00,,---,0.00,VWS V14.01,2013-07-08 20:48:00,
2013-07-08 16:49:00,90.9,61.0,28.94,WNW,283,4.5,8.7,37,0.00,,---,0.00,VWS V14.01,2013-07-08 20:49:00,
2013-07-08 16:50:00,91.2,61.3,28.94,West,264,10.1,10.1,37,0.00,,---,0.00,VWS V14.01,2013-07-08 20:50:00,
2013-07-08 16:51:00,82.8,62.2,29.00,WSW,237,0.0,5.8,50,0.00,,---,0.00,VWS V14.01,2013-07-08 20:51:00,
2013-07-08 16:52:00,91.2,60.6,28.94,West,268,7.8,7.8,36,0.00,,---,0.00,VWS V14.01,2013-07-08 20:52:00,
2013-07-08 16:53:00,91.0,61.2,28.94,NW,304,3.6,8.7,37,0.00,,---,0.00,VWS V14.01,2013-07-08 20:53:00,
2013-07-08 16:55:00,91.0,61.2,28.94,West,264,4.5,4.5,37,0.00,,---,0.00,VWS V14.01,2013-07-08 20:55:00,
2013-07-08 16:56:00,83.1,62.6,29.00,SW,225,2.7,7.4,50,0.00,,---,0.00,VWS V14.01,2013-07-08 20:56:00,
2013-07-08 16:57:00,91.0,61.2,28.94,WSW,250,4.0,7.4,37,0.00,,---,0.00,VWS V14.01,2013-07-08 20:57:00,
2013-07-08 16:58:00,91.2,62.1,28.94,SW,224,7.8,11.0,38,0.00,,---,0.00,VWS V14.01,2013-07-08 20:58:00,
2013-07-08 16:59:00,91.0,61.2,28.94,WSW,246,6.7,7.8,37,0.00,,---,0.00,VWS V14.01,2013-07-08 20:59:00,
2013-07-08 17:00:00,90.9,61.0,28.94,NW,309,4.5,7.8,37,0.00,,---,0.00,VWS V14.01,2013-07-08 21:00:00,
2013-07-08 17:01:00,84.2,63.0,28.97,West,272,3.6,4.0,49,0.00,,---,0.00,VWS V14.01,2013-07-08 21:01:00,
2013-07-08 17:02:00,90.9,61.0,28.94,NW,311,4.0,9.2,37,0.00,,---,0.00,VWS V14.01,2013-07-08 21:02:00,
2013-07-08 17:03:00,90.7,60.9,28.94,SW,236,3.6,7.8,37,0.00,,---,0.00,VWS V14.01,2013-07-08 21:03:00,
2013-07-08 17:05:00,90.1,61.1,28.94,WSW,245,2.7,6.3,38,0.00,,---,0.00,VWS V14.01,2013-07-08 21:05:00,
2013-07-08 17:06:00,84.9,61.8,28.97,WSW,251,3.6,5.8,46,0.00,,---,0.00,VWS V14.01,2013-07-08 21:06:00,
2013-07-08 17:07:00,90.0,61.0,28.94,WNW,290,5.8,8.7,38,0.00,,---,0.00,VWS V14.01,2013-07-08 21:07:00,
2013-07-08 17:08:00,89.8,60.8,28.94,NW,317,3.6,9.2,38,0.00,,---,0.00,VWS V14.01,2013-07-08 21:08:00,
2013-07-08 17:11:00,85.8,61.4,28.97,NW,307,3.6,3.6,44,0.00,,---,0.00,VWS V14.01,2013-07-08 21:11:00,
2013-07-08 17:13:00,88.9,61.5,28.94,West,262,8.7,11.2,40,0.00,,---,0.00,VWS V14.01,2013-07-08 21:13:00,
2013-07-08 17:14:00,88.7,61.3,28.94,WSW,251,5.4,8.7,40,0.00,,---,0.00,VWS V14.01,2013-07-08 21:14:00,
2013-07-08 17:15:00,88.5,61.8,28.94,West,268,3.1,6.3,41,0.00,,---,0.00,VWS V14.01,2013-07-08 21:15:00,
2013-07-08 17:16:00,88.5,61.8,28.94,West,264,6.3,10.1,41,0.00,,---,0.00,VWS V14.01,2013-07-08 21:16:00,
2013-07-08 17:17:00,87.1,60.5,28.97,WSW,251,0.0,4.5,41,0.00,,---,0.00,VWS V14.01,2013-07-08 21:17:00,
2013-07-08 17:18:00,88.7,62.0,28.94,WNW,296,5.4,6.3,41,0.00,,---,0.00,VWS V14.01,2013-07-08 21:18:00,
2013-07-08 17:19:00,88.7,62.0,28.94,West,263,5.8,8.3,41,0.00,,---,0.00,VWS V14.01,2013-07-08 21:19:00,
2013-07-08 17:20:00,88.7,62.0,28.94,NW,308,5.8,5.8,41,0.00,,---,0.00,VWS V14.01,2013-07-08 21:20:00,
2013-07-08 17:21:00,88.7,62.7,28.94,NW,315,4.5,5.8,42,0.00,,---,0.00,VWS V14.01,2013-07-08 21:21:00,
2013-07-08 17:22:00,88.7,62.7,28.94,WNW,295,4.0,6.7,42,0.00,,---,0.00,VWS V14.01,2013-07-08 21:22:00,
2013-07-08 17:23:00,88.7,62.7,28.94,WNW,287,6.7,6.7,42,0.00,,---,0.00,VWS V14.01,2013-07-08 21:23:00,
2013-07-08 17:24:00,88.7,62.7,28.94,West,262,5.8,7.8,42,0.00,,---,0.00,VWS V14.01,2013-07-08 21:24:00,
2013-07-08 17:25:00,88.7,62.7,28.94,West,267,5.8,6.7,42,0.00,,---,0.00,VWS V14.01,2013-07-08 21:25:00,
2013-07-08 17:26:00,88.5,59.0,28.97,NW,318,4.0,6.7,37,0.00,,---,0.00,VWS V14.01,2013-07-08 21:26:00,
2013-07-08 17:27:00,88.9,62.2,28.94,West,270,3.1,6.3,41,0.00,,---,0.00,VWS V14.01,2013-07-08 21:27:00,
2013-07-08 17:28:00,89.1,62.3,28.94,West,271,3.1,4.0,41,0.00,,---,0.00,VWS V14.01,2013-07-08 21:28:00,
2013-07-08 17:30:00,89.6,62.1,28.94,West,270,5.4,5.8,40,0.00,,---,0.00,VWS V14.01,2013-07-08 21:30:00,
2013-07-08 17:31:00,88.0,58.5,28.97,SSW,209,3.6,6.9,37,0.00,,---,0.00,VWS V14.01,2013-07-08 21:31:00,
2013-07-08 17:32:00,90.0,61.7,28.94,SSW,212,6.7,6.9,39,0.00,,---,0.00,VWS V14.01,2013-07-08 21:32:00,
2013-07-08 17:34:00,90.1,62.6,28.94,WNW,292,4.9,5.4,40,0.00,,---,0.00,VWS V14.01,2013-07-08 21:34:00,
2013-07-08 17:35:00,90.3,62.0,28.94,WSW,258,3.1,4.9,39,0.00,,---,0.00,VWS V14.01,2013-07-08 21:35:00,
2013-07-08 17:36:00,88.2,57.1,28.97,SE,124,4.9,9.6,35,0.00,,---,0.00,VWS V14.01,2013-07-08 21:36:00,
2013-07-08 17:37:00,90.3,61.3,28.94,WSW,244,4.5,7.8,38,0.00,,---,0.00,VWS V14.01,2013-07-08 21:37:00,
2013-07-08 17:38:00,90.3,62.0,28.94,NW,326,3.6,6.7,39,0.00,,---,0.00,VWS V14.01,2013-07-08 21:38:00,
2013-07-08 17:39:00,90.3,62.0,28.94,WNW,297,7.8,7.8,39,0.00,,---,0.00,VWS V14.01,2013-07-08 21:39:00,
2013-07-08 17:40:00,90.3,62.0,28.94,West,274,5.4,9.2,39,0.00,,---,0.00,VWS V14.01,2013-07-08 21:40:00,
2013-07-08 17:41:00,90.1,61.1,28.94,West,280,2.7,7.4,38,0.00,,---,0.00,VWS V14.01,2013-07-08 21:41:00,
2013-07-08 17:42:00,88.7,57.6,28.97,WNW,282,5.8,10.5,35,0.00,,---,0.00,VWS V14.01,2013-07-08 21:42:00,
2013-07-08 17:43:00,90.1,61.1,28.94,NW,308,4.5,6.7,38,0.00,,---,0.00,VWS V14.01,2013-07-08 21:43:00,
2013-07-08 17:44:00,90.1,61.1,28.94,NNW,329,4.9,7.4,38,0.00,,---,0.00,VWS V14.01,2013-07-08 21:44:00,
2013-07-08 17:46:00,90.3,62.0,28.94,SW,216,4.0,4.0,39,0.00,,---,0.00,VWS V14.01,2013-07-08 21:46:00,
2013-07-08 17:47:00,87.8,57.5,28.97,WSW,253,2.7,5.8,36,0.00,,---,0.00,VWS V14.01,2013-07-08 21:47:00,
2013-07-08 17:48:00,90.7,61.6,28.94,WNW,288,4.0,6.3,38,0.00,,---,0.00,VWS V14.01,2013-07-08 21:48:00,
2013-07-08 17:49:00,90.7,60.9,28.94,WSW,248,2.7,6.3,37,0.00,,---,0.00,VWS V14.01,2013-07-08 21:49:00,
2013-07-08 17:50:00,90.7,60.9,28.94,SW,221,4.9,5.8,37,0.00,,---,0.00,VWS V14.01,2013-07-08 21:50:00,
2013-07-08 17:51:00,90.7,61.6,28.94,SW,221,2.7,4.9,38,0.00,,---,0.00,VWS V14.01,2013-07-08 21:51:00,
2013-07-08 17:52:00,87.8,58.3,28.97,WNW,287,7.8,7.8,37,0.00,,---,0.00,VWS V14.01,2013-07-08 21:52:00,
2013-07-08 17:53:00,90.9,61.0,28.94,West,277,0.0,5.4,37,0.00,,---,0.00,VWS V14.01,2013-07-08 21:53:00,
2013-07-08 17:54:00,91.0,61.9,28.94,WNW,287,4.9,4.9,38,0.00,,---,0.00,VWS V14.01,2013-07-08 21:54:00,
2013-07-08 17:56:00,91.0,61.2,28.94,WNW,283,4.0,8.3,37,0.00,,---,0.00,VWS V14.01,2013-07-08 21:56:00,
2013-07-08 17:58:00,88.0,57.7,28.97,WSW,240,9.6,12.1,36,0.00,,---,0.00,VWS V14.01,2013-07-08 21:58:00,
2013-07-08 17:59:00,90.9,61.0,28.91,WSW,255,4.5,8.3,37,0.00,,---,0.00,VWS V14.01,2013-07-08 21:59:00,
2013-07-08 18:00:00,90.7,60.1,28.91,West,267,4.0,6.3,36,0.00,,---,0.00,VWS V14.01,2013-07-08 22:00:00,
2013-07-08 18:02:00,90.5,60.7,28.91,West,267,4.5,5.8,37,0.00,,---,0.00,VWS V14.01,2013-07-08 22:02:00,
2013-07-08 18:03:00,88.5,58.2,28.97,WNW,298,10.1,10.1,36,0.00,,---,0.00,VWS V14.01,2013-07-08 22:03:00,
2013-07-08 18:04:00,90.5,60.7,28.91,NW,307,4.9,6.7,37,0.00,,---,0.00,VWS V14.01,2013-07-08 22:04:00,
2013-07-08 18:05:00,90.3,61.3,28.91,West,265,5.4,5.8,38,0.00,,---,0.00,VWS V14.01,2013-07-08 22:05:00,
2013-07-08 18:06:00,90.1,60.4,28.91,WSW,256,4.9,7.4,37,0.00,,---,0.00,VWS V14.01,2013-07-08 22:06:00,
2013-07-08 18:07:00,90.0,60.2,28.91,SW,235,6.9,8.3,37,0.00,,---,0.00,VWS V14.01,2013-07-08 22:07:00,
2013-07-08 18:08:00,88.7,58.3,28.97,SW,218,4.0,6.7,36,0.00,,---,0.00,VWS V14.01,2013-07-08 22:08:00,
2013-07-08 18:10:00,89.8,60.1,28.91,WNW,290,6.9,6.9,37,0.00,,---,0.00,VWS V14.01,2013-07-08 22:10:00,
2013-07-08 18:11:00,89.8,60.8,28.91,West,270,4.5,6.9,38,0.00,,---,0.00,VWS V14.01,2013-07-08 22:11:00,
2013-07-08 18:12:00,89.8,60.8,28.91,West,275,4.0,5.4,38,0.00,,---,0.00,VWS V14.01,2013-07-08 22:12:00,
2013-07-08 18:13:00,89.8,60.8,28.91,West,264,5.4,5.8,38,0.00,,---,0.00,VWS V14.01,2013-07-08 22:13:00,
2013-07-08 18:14:00,88.2,56.3,28.97,NW,305,5.8,9.6,34,0.00,,---,0.00,VWS V14.01,2013-07-08 22:14:00,
2013-07-08 18:15:00,89.8,60.8,28.91,WSW,253,2.7,4.0,38,0.00,,---,0.00,VWS V14.01,2013-07-08 22:15:00,
2013-07-08 18:16:00,89.8,60.8,28.91,WSW,256,0.0,5.8,38,0.00,,---,0.00,VWS V14.01,2013-07-08 22:16:00,
2013-07-08 18:17:00,89.8,61.5,28.91,SW,215,4.9,6.9,39,0.00,,---,0.00,VWS V14.01,2013-07-08 22:17:00,
2013-07-08 18:18:00,89.6,60.7,28.91,WSW,257,5.8,9.6,38,0.00,,---,0.00,VWS V14.01,2013-07-08 22:18:00,
2013-07-08 18:19:00,89.6,60.7,28.91,West,263,4.0,5.8,38,0.00,,---,0.00,VWS V14.01,2013-07-08 22:19:00,
2013-07-08 18:20:00,87.1,56.1,28.97,SW,215,4.5,8.3,35,0.00,,---,0.00,VWS V14.01,2013-07-08 22:20:00,
2013-07-08 18:21:00,89.8,61.5,28.91,West,271,0.0,5.4,39,0.00,,---,0.00,VWS V14.01,2013-07-08 22:21:00,
2013-07-08 18:23:00,89.6,61.4,28.91,NW,319,3.1,4.5,39,0.00,,---,0.00,VWS V14.01,2013-07-08 22:23:00,
2013-07-08 18:24:00,89.6,62.1,28.91,West,264,0.0,4.5,40,0.00,,---,0.00,VWS V14.01,2013-07-08 22:24:00,
2013-07-08 18:25:00,89.4,61.9,28.91,WNW,293,0.0,5.8,40,0.00,,---,0.00,VWS V14.01,2013-07-08 22:25:00,
2013-07-08 18:26:00,86.9,57.5,28.97,WNW,292,4.0,6.7,37,0.00,,---,0.00,VWS V14.01,2013-07-08 22:26:00,
2013-07-08 18:27:00,89.2,61.8,28.91,WNW,283,3.1,5.4,40,0.00,,---,0.00,VWS V14.01,2013-07-08 22:27:00,
2013-07-08 18:29:00,89.1,62.3,28.91,West,281,3.6,4.0,41,0.00,,---,0.00,VWS V14.01,2013-07-08 22:29:00,
2013-07-08 18:30:00,89.2,62.5,28.91,WNW,283,4.9,5.4,41,0.00,,---,0.00,VWS V14.01,2013-07-08 22:30:00,
2013-07-08 18:31:00,89.1,63.0,28.91,West,273,5.8,5.8,42,0.00,,---,0.00,VWS V14.01,2013-07-08 22:31:00,
2013-07-08 18:32:00,89.6,55.0,28.97,SW,216,2.7,7.8,31,0.00,,---,0.00,VWS V14.01,2013-07-08 22:32:00,
2013-07-08 18:33:00,89.1,63.0,28.91,WSW,256,3.6,6.3,42,0.00,,---,0.00,VWS V14.01,2013-07-08 22:33:00,
2013-07-08 18:34:00,89.1,63.0,28.91,West,276,0.0,4.5,42,0.00,,---,0.00,VWS V14.01,2013-07-08 22:34:00,
2013-07-08 18:35:00,88.7,62.7,28.91,West,275,2.7,8.3,42,0.00,,---,0.00,VWS V14.01,2013-07-08 22:35:00,
2013-07-08 18:36:00,88.7,62.7,28.91,SW,233,4.9,6.3,42,0.00,,---,0.00,VWS V14.01,2013-07-08 22:36:00,
2013-07-08 18:37:00,91.6,52.9,28.97,WSW,251,6.9,11.0,27,0.00,,---,0.00,VWS V14.01,2013-07-08 22:37:00,
2013-07-08 18:38:00,88.5,62.5,28.91,WSW,250,0.0,4.0,42,0.00,,---,0.00,VWS V14.01,2013-07-08 22:38:00,
2013-07-08 18:39:00,88.5,63.2,28.91,South,185,3.6,5.4,43,0.00,,---,0.00,VWS V14.01,2013-07-08 22:39:00,
2013-07-08 18:40:00,88.3,63.0,28.91,SW,231,3.6,4.0,43,0.00,,---,0.00,VWS V14.01,2013-07-08 22:40:00,
2013-07-08 18:41:00,88.3,63.0,28.91,SW,227,3.1,5.4,43,0.00,,---,0.00,VWS V14.01,2013-07-08 22:41:00,
2013-07-08 18:42:00,91.4,52.8,28.97,NW,324,4.9,6.7,27,0.00,,---,0.00,VWS V14.01,2013-07-08 22:42:00,
2013-07-08 18:43:00,88.2,62.9,28.91,WNW,284,4.9,6.9,43,0.00,,---,0.00,VWS V14.01,2013-07-08 22:43:00,
2013-07-08 18:44:00,87.8,62.5,28.91,WNW,289,6.3,7.4,43,0.00,,---,0.00,VWS V14.01,2013-07-08 22:44:00,
2013-07-08 18:45:00,87.6,63.0,28.91,WSW,252,3.1,6.3,44,0.00,,---,0.00,VWS V14.01,2013-07-08 22:45:00,
2013-07-08 18:46:00,87.4,62.9,28.91,WNW,294,7.8,7.8,44,0.00,,---,0.00,VWS V14.01,2013-07-08 22:46:00,
2013-07-08 18:47:00,89.2,54.7,28.97,West,272,4.5,9.6,31,0.00,,---,0.00,VWS V14.01,2013-07-08 22:47:00,
2013-07-08 18:48:00,87.3,63.3,28.91,WSW,242,2.7,6.9,45,0.00,,---,0.00,VWS V14.01,2013-07-08 22:48:00,
2013-07-08 18:49:00,87.3,63.3,28.91,WSW,242,0.0,3.1,45,0.00,,---,0.00,VWS V14.01,2013-07-08 22:49:00,
2013-07-08 18:50:00,87.3,64.0,28.91,West,273,5.4,5.4,46,0.00,,---,0.00,VWS V14.01,2013-07-08 22:50:00,
2013-07-08 18:52:00,87.3,64.0,28.91,NW,323,0.0,4.5,46,0.00,,---,0.00,VWS V14.01,2013-07-08 22:52:00,
2013-07-08 18:53:00,87.4,63.5,28.91,WSW,248,4.9,5.8,45,0.00,,---,0.00,VWS V14.01,2013-07-08 22:53:00,
2013-07-08 18:54:00,87.6,56.6,28.97,SSE,148,6.7,6.7,35,0.00,,---,0.00,VWS V14.01,2013-07-08 22:54:00,
2013-07-08 18:56:00,87.8,63.2,28.91,WNW,292,4.9,6.3,44,0.00,,---,0.00,VWS V14.01,2013-07-08 22:56:00,
2013-07-08 18:57:00,87.8,63.2,28.91,WNW,282,7.8,8.7,44,0.00,,---,0.00,VWS V14.01,2013-07-08 22:57:00,
2013-07-08 18:58:00,87.6,62.4,28.91,West,274,4.0,7.8,43,0.00,,---,0.00,VWS V14.01,2013-07-08 22:58:00,
2013-07-08 18:59:00,87.1,57.7,28.97,WSW,257,5.4,9.2,37,0.00,,---,0.00,VWS V14.01,2013-07-08 22:59:00,
2013-07-08 19:00:00,87.8,62.5,28.91,WNW,287,4.9,6.7,43,0.00,,---,0.00,VWS V14.01,2013-07-08 23:00:00,
2013-07-08 19:01:00,87.8,61.2,28.91,WSW,249,10.1,10.1,41,0.00,,---,0.00,VWS V14.01,2013-07-08 23:01:00,
2013-07-08 19:02:00,87.8,61.2,28.91,WNW,296,4.5,10.1,41,0.00,,---,0.00,VWS V14.01,2013-07-08 23:02:00,
2013-07-08 19:04:00,86.7,58.1,28.97,WSW,247,4.0,5.8,38,0.00,,---,0.00,VWS V14.01,2013-07-08 23:04:00,
2013-07-08 19:05:00,88.7,61.3,28.91,West,261,8.3,8.7,40,0.00,,---,0.00,VWS V14.01,2013-07-08 23:05:00,
2013-07-08 19:06:00,88.9,60.8,28.91,SW,235,5.4,8.3,39,0.00,,---,0.00,VWS V14.01,2013-07-08 23:06:00,
2013-07-08 19:07:00,89.2,60.3,28.91,WNW,300,6.3,6.3,38,0.00,,---,0.00,VWS V14.01,2013-07-08 23:07:00,
2013-07-08 19:08:00,89.6,60.7,28.91,West,269,5.4,7.4,38,0.00,,---,0.00,VWS V14.01,2013-07-08 23:08:00,
2013-07-08 19:09:00,86.4,58.5,28.97,SW,230,4.5,4.9,39,0.00,,---,0.00,VWS V14.01,2013-07-08 23:09:00,
2013-07-08 19:11:00,90.5,58.3,28.91,NW,323,4.5,5.8,34,0.00,,---,0.00,VWS V14.01,2013-07-08 23:11:00,
2013-07-08 19:12:00,90.7,57.7,28.91,WNW,298,4.5,6.3,33,0.00,,---,0.00,VWS V14.01,2013-07-08 23:12:00,
2013-07-08 19:13:00,90.9,58.6,28.91,SW,218,2.7,5.4,34,0.00,,---,0.00,VWS V14.01,2013-07-08 23:13:00,
2013-07-08 19:14:00,91.0,58.0,28.91,West,261,4.9,6.3,33,0.00,,---,0.00,VWS V14.01,2013-07-08 23:14:00,
2013-07-08 19:15:00,85.8,58.7,28.97,South,169,5.4,6.7,40,0.00,,---,0.00,VWS V14.01,2013-07-08 23:15:00,
2013-07-08 19:16:00,91.0,57.1,28.91,WSW,255,5.8,6.9,32,0.00,,---,0.00,VWS V14.01,2013-07-08 23:16:00,
2013-07-08 19:17:00,90.9,57.8,28.91,WNW,293,5.8,6.3,33,0.00,,---,0.00,VWS V14.01,2013-07-08 23:17:00,
2013-07-08 19:19:00,90.5,58.3,28.91,WNW,300,0.0,6.3,34,0.00,,---,0.00,VWS V14.01,2013-07-08 23:19:00,
2013-07-08 19:20:00,85.6,59.3,28.97,WSW,239,3.6,6.3,41,0.00,,---,0.00,VWS V14.01,2013-07-08 23:20:00,
2013-07-08 19:21:00,90.0,58.7,28.91,West,268,5.4,6.9,35,0.00,,---,0.00,VWS V14.01,2013-07-08 23:21:00,
2013-07-08 19:22:00,89.6,59.9,28.91,SSW,210,5.4,6.3,37,0.00,,---,0.00,VWS V14.01,2013-07-08 23:22:00,
2013-07-08 19:24:00,89.1,59.4,28.91,West,275,7.8,8.3,37,0.00,,---,0.00,VWS V14.01,2013-07-08 23:24:00,
2013-07-08 19:25:00,88.7,59.1,28.91,SW,226,0.0,7.8,37,0.00,,---,0.00,VWS V14.01,2013-07-08 23:25:00,
2013-07-08 19:26:00,88.5,59.7,28.91,West,259,4.5,11.0,38,0.00,,---,0.00,VWS V14.01,2013-07-08 23:26:00,
2013-07-08 19:28:00,88.2,60.1,28.91,West,274,5.8,7.8,39,0.00,,---,0.00,VWS V14.01,2013-07-08 23:28:00,
2013-07-08 19:29:00,85.8,59.4,28.97,West,268,4.9,4.9,41,0.00,,---,0.00,VWS V14.01,2013-07-08 23:29:00,
2013-07-08 19:30:00,87.8,60.5,28.91,West,278,3.6,5.4,40,0.00,,---,0.00,VWS V14.01,2013-07-08 23:30:00,
2013-07-08 19:32:00,87.6,60.3,28.91,West,271,9.2,9.2,40,0.00,,---,0.00,VWS V14.01,2013-07-08 23:32:00,
2013-07-08 19:34:00,85.6,59.3,28.97,SW,232,0.0,4.5,41,0.00,,---,0.00,VWS V14.01,2013-07-08 23:34:00,
2013-07-08 19:35:00,87.3,60.7,28.91,WSW,251,9.2,9.2,41,0.00,,---,0.00,VWS V14.01,2013-07-08 23:35:00,
2013-07-08 19:38:00,87.1,60.5,28.91,West,266,2.7,4.0,41,0.00,,---,0.00,VWS V14.01,2013-07-08 23:38:00,
2013-07-08 19:39:00,85.5,59.1,28.97,West,271,5.4,7.8,41,0.00,,---,0.00,VWS V14.01,2013-07-08 23:39:00,
2013-07-08 19:40:00,87.1,61.2,28.91,WNW,288,6.7,6.7,42,0.00,,---,0.00,VWS V14.01,2013-07-08 23:40:00,
2013-07-08 19:41:00,86.9,61.1,28.91,West,269,4.0,7.8,42,0.00,,---,0.00,VWS V14.01,2013-07-08 23:41:00,
2013-07-08 19:42:00,86.9,61.1,28.91,West,269,2.7,4.0,42,0.00,,---,0.00,VWS V14.01,2013-07-08 23:42:00,
2013-07-08 19:43:00,86.9,61.1,28.91,WSW,250,2.7,3.6,42,0.00,,---,0.00,VWS V14.01,2013-07-08 23:43:00,
2013-07-08 19:44:00,85.1,58.8,28.97,WNW,302,6.9,7.8,41,0.00,,---,0.00,VWS V14.01,2013-07-08 23:44:00,
2013-07-08 19:45:00,86.9,61.7,28.91,WSW,255,2.7,4.5,43,0.00,,---,0.00,VWS V14.01,2013-07-08 23:45:00,
2013-07-08 19:47:00,86.9,61.1,28.91,WNW,283,6.9,6.9,42,0.00,,---,0.00,VWS V14.01,2013-07-08 23:47:00,
2013-07-08 19:48:00,86.9,61.7,28.91,West,277,3.1,6.9,43,0.00,,---,0.00,VWS V14.01,2013-07-08 23:48:00,
2013-07-08 19:49:00,86.9,61.7,28.91,West,278,0.0,3.6,43,0.00,,---,0.00,VWS V14.01,2013-07-08 23:49:00,
2013-07-08 19:50:00,84.2,59.3,28.97,SSE,168,2.7,7.4,43,0.00,,---,0.00,VWS V14.01,2013-07-08 23:50:00,
2013-07-08 19:52:00,86.7,61.6,28.91,WNW,293,4.0,5.4,43,0.00,,---,0.00,VWS V14.01,2013-07-08 23:52:00,
2013-07-08 19:53:00,86.7,61.6,28.91,West,277,0.0,4.5,43,0.00,,---,0.00,VWS V14.01,2013-07-08 23:53:00,
2013-07-08 19:54:00,86.5,62.1,28.91,West,278,0.0,0.0,44,0.00,,---,0.00,VWS V14.01,2013-07-08 23:54:00,
2013-07-08 19:55:00,83.7,58.8,28.97,WNW,290,5.4,8.3,43,0.00,,---,0.00,VWS V14.01,2013-07-08 23:55:00,
2013-07-08 19:57:00,86.7,62.2,28.91,West,270,0.0,4.0,44,0.00,,---,0.00,VWS V14.01,2013-07-08 23:57:00,
2013-07-08 19:59:00,86.7,62.2,28.91,West,270,0.0,0.0,44,0.00,,---,0.00,VWS V14.01,2013-07-08 23:59:00,
2013-07-08 20:00:00,83.5,59.3,28.97,NW,319,2.7,5.8,44,0.00,,---,0.00,VWS V14.01,2013-07-09 00:00:00,
2013-07-08 20:02:00,86.7,62.9,28.91,West,270,0.0,0.0,45,0.00,,---,0.00,VWS V14.01,2013-07-09 00:02:00,
2013-07-08 20:03:00,86.5,62.7,28.91,West,270,0.0,0.0,45,0.00,,---,0.00,VWS V14.01,2013-07-09 00:03:00,
2013-07-08 20:04:00,86.5,62.7,28.91,West,270,0.0,0.0,45,0.00,,---,0.00,VWS V14.01,2013-07-09 00:04:00,
2013-07-08 20:05:00,86.5,62.7,28.91,West,270,0.0,0.0,45,0.00,,---,0.00,VWS V14.01,2013-07-09 00:05:00,
2013-07-08 20:06:00,83.1,59.6,28.97,WSW,251,7.8,7.8,45,0.00,,---,0.00,VWS V14.01,2013-07-09 00:06:00,
2013-07-08 20:07:00,86.4,62.5,28.91,WSW,237,4.5,5.4,45,0.00,,---,0.00,VWS V14.01,2013-07-09 00:07:00,
2013-07-08 20:10:00,86.4,63.2,28.91,SW,236,0.0,0.0,46,0.00,,---,0.00,VWS V14.01,2013-07-09 00:10:00,
2013-07-08 20:11:00,86.2,63.0,28.91,SW,236,0.0,0.0,46,0.00,,---,0.00,VWS V14.01,2013-07-09 00:11:00,
2013-07-08 20:12:00,86.2,63.0,28.91,SW,236,0.0,0.0,46,0.00,,---,0.00,VWS V14.01,2013-07-09 00:12:00,
2013-07-08 20:13:00,86.2,63.6,28.91,SW,236,0.0,0.0,47,0.00,,---,0.00,VWS V14.01,2013-07-09 00:13:00,
2013-07-08 20:14:00,82.8,59.3,28.97,WSW,240,3.6,7.4,45,0.00,,---,0.00,VWS V14.01,2013-07-09 00:14:00,
2013-07-08 20:15:00,86.0,63.4,28.91,SW,236,0.0,2.7,47,0.00,,---,0.00,VWS V14.01,2013-07-09 00:15:00,
2013-07-08 20:16:00,85.8,63.3,28.91,SW,236,0.0,3.1,47,0.00,,---,0.00,VWS V14.01,2013-07-09 00:16:00,
2013-07-08 20:18:00,85.8,63.9,28.91,SW,234,3.1,4.9,48,0.00,,---,0.00,VWS V14.01,2013-07-09 00:18:00,
2013-07-08 20:19:00,82.6,59.7,28.97,WNW,301,0.0,5.4,46,0.00,,---,0.00,VWS V14.01,2013-07-09 00:19:00,
2013-07-08 20:20:00,85.5,64.1,28.91,West,264,4.9,4.9,49,0.00,,---,0.00,VWS V14.01,2013-07-09 00:20:00,
2013-07-08 20:22:00,85.3,64.0,28.91,West,261,2.7,3.6,49,0.00,,---,0.00,VWS V14.01,2013-07-09 00:22:00,
2013-07-08 20:24:00,85.1,64.4,28.91,WSW,239,3.1,5.8,50,0.00,,---,0.00,VWS V14.01,2013-07-09 00:24:00,
2013-07-08 20:25:00,82.4,60.2,28.97,WNW,300,0.0,4.0,47,0.00,,---,0.00,VWS V14.01,2013-07-09 00:25:00,
2013-07-08 20:27:00,84.9,64.2,28.91,SW,235,4.9,6.3,50,0.00,,---,0.00,VWS V14.01,2013-07-09 00:27:00,
2013-07-08 20:29:00,84.7,64.6,28.91,SSW,202,0.0,3.1,51,0.00,,---,0.00,VWS V14.01,2013-07-09 00:29:00,
2013-07-08 20:30:00,82.2,60.0,28.97,WSW,249,0.0,0.0,47,0.00,,---,0.00,VWS V14.01,2013-07-09 00:30:00,
2013-07-08 20:32:00,84.6,64.5,28.91,WSW,251,0.0,6.7,51,0.00,,---,0.00,VWS V14.01,2013-07-09 00:32:00,
2013-07-08 20:33:00,84.4,64.3,28.91,WSW,251,0.0,2.7,51,0.00,,---,0.00,VWS V14.01,2013-07-09 00:33:00,
2013-07-08 20:34:00,84.4,64.3,28.91,WSW,243,0.0,4.5,51,0.00,,---,0.00,VWS V14.01,2013-07-09 00:34:00,
2013-07-08 20:35:00,82.0,60.4,28.97,NNW,347,0.0,3.1,48,0.00,,---,0.00,VWS V14.01,2013-07-09 00:35:00,
2013-07-08 20:36:00,84.4,64.8,28.91,WNW,283,4.5,5.4,52,0.00,,---,0.00,VWS V14.01,2013-07-09 00:36:00,
2013-07-08 20:37:00,84.2,64.7,28.91,SSW,197,3.6,4.9,52,0.00,,---,0.00,VWS V14.01,2013-07-09 00:37:00,
2013-07-08 20:38:00,84.2,64.7,28.91,SSW,197,0.0,3.6,52,0.00,,---,0.00,VWS V14.01,2013-07-09 00:38:00,
2013-07-08 20:39:00,84.2,64.7,28.91,SW,234,3.1,4.5,52,0.00,,---,0.00,VWS V14.01,2013-07-09 00:39:00,
2013-07-08 20:40:00,81.9,60.8,28.97,SSW,212,3.1,4.0,49,0.00,,---,0.00,VWS V14.01,2013-07-09 00:40:00,
2013-07-08 20:41:00,84.0,64.5,28.91,WSW,243,3.1,5.8,52,0.00,,---,0.00,VWS V14.01,2013-07-09 00:41:00,
2013-07-08 20:42:00,84.0,64.5,28.91,West,272,4.0,4.0,52,0.00,,---,0.00,VWS V14.01,2013-07-09 00:42:00,
2013-07-08 20:43:00,84.0,64.5,28.91,West,270,0.0,4.9,52,0.00,,---,0.00,VWS V14.01,2013-07-09 00:43:00,
2013-07-08 20:44:00,84.0,65.1,28.91,WSW,243,3.1,4.5,53,0.00,,---,0.00,VWS V14.01,2013-07-09 00:44:00,
2013-07-08 20:45:00,83.8,64.9,28.91,WSW,249,0.0,4.5,53,0.00,,---,0.00,VWS V14.01,2013-07-09 00:45:00,
2013-07-08 20:46:00,81.7,61.2,28.97,SW,236,3.1,5.4,50,0.00,,---,0.00,VWS V14.01,2013-07-09 00:46:00,
2013-07-08 20:47:00,83.8,64.9,28.91,WSW,249,0.0,0.0,53,0.00,,---,0.00,VWS V14.01,2013-07-09 00:47:00,
2013-07-08 20:48:00,83.8,64.9,28.91,WSW,249,4.0,4.0,53,0.00,,---,0.00,VWS V14.01,2013-07-09 00:48:00,
2013-07-08 20:49:00,83.8,64.9,28.91,WNW,300,4.9,5.4,53,0.00,,---,0.00,VWS V14.01,2013-07-09 00:49:00,
2013-07-08 20:50:00,83.7,64.7,28.91,WNW,295,0.0,4.9,53,0.00,,---,0.00,VWS V14.01,2013-07-09 00:50:00,
2013-07-08 20:51:00,83.7,64.7,28.91,WNW,295,0.0,0.0,53,0.00,,---,0.00,VWS V14.01,2013-07-09 00:51:00,
2013-07-08 20:52:00,81.5,61.7,28.97,WSW,257,0.0,3.6,51,0.00,,---,0.00,VWS V14.01,2013-07-09 00:52:00,
2013-07-08 20:53:00,83.7,65.3,28.91,West,262,0.0,3.1,54,0.00,,---,0.00,VWS V14.01,2013-07-09 00:53:00,
2013-07-08 20:54:00,83.7,65.3,28.91,West,262,0.0,0.0,54,0.00,,---,0.00,VWS V14.01,2013-07-09 00:54:00,
2013-07-08 20:55:00,83.7,65.3,28.91,SSW,210,0.0,4.0,54,0.00,,---,0.00,VWS V14.01,2013-07-09 00:55:00,
2013-07-08 20:56:00,83.7,65.3,28.91,SW,214,0.0,0.0,54,0.00,,---,0.00,VWS V14.01,2013-07-09 00:56:00,
2013-07-08 20:57:00,81.3,62.0,28.97,WSW,237,0.0,3.6,52,0.00,,---,0.00,VWS V14.01,2013-07-09 00:57:00,
2013-07-08 20:58:00,83.5,65.1,28.91,WSW,247,0.0,5.4,54,0.00,,---,0.00,VWS V14.01,2013-07-09 00:58:00,
2013-07-08 20:59:00,83.5,65.1,28.91,WSW,247,0.0,0.0,54,0.00,,---,0.00,VWS V14.01,2013-07-09 00:59:00,
2013-07-08 21:00:00,83.5,65.6,28.91,WSW,247,0.0,0.0,55,0.00,,---,0.00,VWS V14.01,2013-07-09 01:00:00,
2013-07-08 21:01:00,83.5,65.6,28.91,WSW,247,0.0,0.0,55,0.00,,---,0.00,VWS V14.01,2013-07-09 01:01:00,
2013-07-08 21:02:00,83.3,65.5,28.91,WSW,247,0.0,0.0,55,0.00,,---,0.00,VWS V14.01,2013-07-09 01:02:00,
2013-07-08 21:03:00,83.3,66.0,28.91,WSW,254,0.0,4.5,56,0.00,,---,0.00,VWS V14.01,2013-07-09 01:03:00,
2013-07-08 21:04:00,81.1,62.4,28.97,WSW,253,2.7,3.6,53,0.00,,---,0.00,VWS V14.01,2013-07-09 01:04:00,
2013-07-08 21:05:00,83.3,66.0,28.91,WSW,254,0.0,0.0,56,0.00,,---,0.00,VWS V14.01,2013-07-09 01:05:00,
2013-07-08 21:06:00,83.3,66.5,28.91,WSW,250,4.0,4.5,57,0.00,,---,0.00,VWS V14.01,2013-07-09 01:06:00,
2013-07-08 21:07:00,83.1,66.3,28.91,WSW,250,0.0,4.0,57,0.00,,---,0.00,VWS V14.01,2013-07-09 01:07:00,
2013-07-08 21:08:00,83.1,66.3,28.91,West,281,2.7,5.4,57,0.00,,---,0.00,VWS V14.01,2013-07-09 01:08:00,
2013-07-08 21:09:00,81.0,62.8,28.97,WNW,292,5.8,5.8,54,0.00,,---,0.00,VWS V14.01,2013-07-09 01:09:00,
2013-07-08 21:10:00,82.9,66.2,28.91,West,281,0.0,0.0,57,0.00,,---,0.00,VWS V14.01,2013-07-09 01:10:00,
2013-07-08 21:11:00,82.9,66.2,28.91,West,263,0.0,2.7,57,0.00,,---,0.00,VWS V14.01,2013-07-09 01:11:00,
2013-07-08 21:12:00,82.9,66.7,28.91,West,262,0.0,0.0,58,0.00,,---,0.00,VWS V14.01,2013-07-09 01:12:00,
2013-07-08 21:13:00,82.8,66.5,28.91,West,260,3.6,4.5,58,0.00,,---,0.00,VWS V14.01,2013-07-09 01:13:00,
2013-07-08 21:14:00,80.8,63.1,28.97,West,261,2.7,4.0,55,0.00,,---,0.00,VWS V14.01,2013-07-09 01:14:00,
2013-07-08 21:15:00,82.8,66.5,28.91,West,260,0.0,3.6,58,0.00,,---,0.00,VWS V14.01,2013-07-09 01:15:00,
2013-07-08 21:16:00,82.8,66.5,28.91,West,260,0.0,2.7,58,0.00,,---,0.00,VWS V14.01,2013-07-09 01:16:00,
2013-07-08 21:17:00,82.6,66.3,28.91,ENE,78,0.0,0.0,58,0.00,,---,0.00,VWS V14.01,2013-07-09 01:17:00,
2013-07-08 21:18:00,82.6,66.3,28.91,ENE,78,0.0,0.0,58,0.00,,---,0.00,VWS V14.01,2013-07-09 01:18:00,
2013-07-08 21:19:00,80.6,63.5,28.97,WSW,248,3.1,4.0,56,0.00,,---,0.00,VWS V14.01,2013-07-09 01:19:00,
2013-07-08 21:20:00,82.6,66.3,28.91,WSW,247,3.1,3.6,58,0.00,,---,0.00,VWS V14.01,2013-07-09 01:20:00,
2013-07-08 21:21:00,82.4,66.2,28.91,SW,226,0.0,5.8,58,0.00,,---,0.00,VWS V14.01,2013-07-09 01:21:00,
2013-07-08 21:22:00,82.4,66.2,28.91,SW,234,3.1,4.0,58,0.00,,---,0.00,VWS V14.01,2013-07-09 01:22:00,
2013-07-08 21:23:00,82.4,66.2,28.91,WSW,256,3.6,3.6,58,0.00,,---,0.00,VWS V14.01,2013-07-09 01:23:00,
2013-07-08 21:24:00,82.4,66.2,28.91,WSW,239,0.0,4.9,58,0.00,,---,0.00,VWS V14.01,2013-07-09 01:24:00,
2013-07-08 21:25:00,80.1,65.9,28.97,West,261,3.6,5.4,62,0.00,,---,0.00,VWS V14.01,2013-07-09 01:25:00,
2013-07-08 21:26:00,82.4,66.2,28.91,WSW,248,0.0,4.5,58,0.00,,---,0.00,VWS V14.01,2013-07-09 01:26:00,
2013-07-08 21:27:00,82.2,66.0,28.91,WSW,248,0.0,0.0,58,0.00,,---,0.00,VWS V14.01,2013-07-09 01:27:00,
2013-07-08 21:28:00,82.2,66.5,28.91,SSW,199,2.7,3.6,59,0.00,,---,0.00,VWS V14.01,2013-07-09 01:28:00,
2013-07-08 21:29:00,82.2,66.5,28.91,SSW,199,0.0,2.7,59,0.00,,---,0.00,VWS V14.01,2013-07-09 01:29:00,
2013-07-08 21:30:00,82.2,66.5,28.91,SSW,199,0.0,0.0,59,0.00,,---,0.00,VWS V14.01,2013-07-09 01:30:00,
2013-07-08 21:31:00,78.8,66.9,28.97,WSW,251,0.0,3.6,67,0.00,,---,0.00,VWS V14.01,2013-07-09 01:31:00,
2013-07-08 21:32:00,82.2,66.5,28.91,SSW,199,0.0,0.0,59,0.00,,---,0.00,VWS V14.01,2013-07-09 01:32:00,
2013-07-08 21:33:00,82.2,66.5,28.91,SSW,199,0.0,0.0,59,0.00,,---,0.00,VWS V14.01,2013-07-09 01:33:00,
2013-07-08 21:34:00,82.2,66.5,28.91,SSW,199,0.0,2.7,59,0.00,,---,0.00,VWS V14.01,2013-07-09 01:34:00,
2013-07-08 21:37:00,78.3,68.1,28.97,SW,228,4.5,5.8,71,0.00,,---,0.00,VWS V14.01,2013-07-09 01:37:00,
2013-07-08 21:38:00,82.2,66.5,28.91,South,189,0.0,0.0,59,0.00,,---,0.00,VWS V14.01,2013-07-09 01:38:00,
2013-07-08 21:40:00,82.2,66.5,28.91,South,189,0.0,0.0,59,0.00,,---,0.00,VWS V14.01,2013-07-09 01:40:00,
2013-07-08 21:42:00,77.7,68.8,28.97,WSW,243,0.0,0.0,74,0.00,,---,0.00,VWS V14.01,2013-07-09 01:42:00,
2013-07-08 21:43:00,82.0,66.3,28.91,South,189,0.0,0.0,59,0.00,,---,0.00,VWS V14.01,2013-07-09 01:43:00,
2013-07-08 21:48:00,77.4,69.2,28.97,West,277,0.0,0.0,76,0.00,,---,0.00,VWS V14.01,2013-07-09 01:48:00,
2013-07-08 21:49:00,82.0,66.8,28.91,SW,235,0.0,0.0,60,0.00,,---,0.00,VWS V14.01,2013-07-09 01:49:00,
2013-07-08 21:50:00,81.9,66.6,28.91,SW,235,0.0,2.7,60,0.00,,---,0.00,VWS V14.01,2013-07-09 01:50:00,
2013-07-08 21:52:00,81.9,66.6,28.91,South,177,0.0,0.0,60,0.00,,---,0.00,VWS V14.01,2013-07-09 01:52:00,
2013-07-08 21:53:00,77.2,69.8,28.97,SW,218,0.0,0.0,78,0.00,,---,0.00,VWS V14.01,2013-07-09 01:53:00,
2013-07-08 21:54:00,81.9,66.6,28.91,South,177,0.0,0.0,60,0.00,,---,0.00,VWS V14.01,2013-07-09 01:54:00,
2013-07-08 21:55:00,81.9,66.6,28.91,South,189,0.0,0.0,60,0.00,,---,0.00,VWS V14.01,2013-07-09 01:55:00,
2013-07-08 21:56:00,81.9,66.6,28.91,South,189,0.0,0.0,60,0.00,,---,0.00,VWS V14.01,2013-07-09 01:56:00,
2013-07-08 21:57:00,81.9,66.6,28.91,South,189,0.0,0.0,60,0.00,,---,0.00,VWS V14.01,2013-07-09 01:57:00,
2013-07-08 21:58:00,77.0,70.0,28.97,West,269,0.0,2.7,79,0.00,,---,0.00,VWS V14.01,2013-07-09 01:58:00,
2013-07-08 21:59:00,81.7,66.9,28.91,South,189,0.0,2.7,61,0.00,,---,0.00,VWS V14.01,2013-07-09 01:59:00,
2013-07-08 22:00:00,81.7,66.9,28.91,WSW,245,0.0,4.9,61,0.00,,---,0.00,VWS V14.01,2013-07-09 02:00:00,
2013-07-08 22:01:00,81.7,66.5,28.91,WSW,245,0.0,0.0,60,0.00,,---,0.00,VWS V14.01,2013-07-09 02:01:00,
2013-07-08 22:04:00,81.5,66.8,28.91,WSW,245,0.0,0.0,61,0.00,,---,0.00,VWS V14.01,2013-07-09 02:04:00,
2013-07-08 22:05:00,81.5,66.8,28.91,West,262,0.0,4.5,61,0.00,,---,0.00,VWS V14.01,2013-07-09 02:05:00,
2013-07-08 22:06:00,76.8,69.8,28.97,SSW,211,0.0,0.0,79,0.00,,---,0.00,VWS V14.01,2013-07-09 02:06:00,
2013-07-08 22:07:00,81.5,66.8,28.91,West,262,0.0,0.0,61,0.00,,---,0.00,VWS V14.01,2013-07-09 02:07:00,
2013-07-08 22:10:00,81.5,67.2,28.91,West,262,0.0,3.6,62,0.00,,---,0.00,VWS V14.01,2013-07-09 02:10:00,
2013-07-08 22:11:00,81.5,67.2,28.91,West,262,0.0,0.0,62,0.00,,---,0.00,VWS V14.01,2013-07-09 02:11:00,
2013-07-08 22:13:00,76.8,70.2,28.97,West,261,0.0,3.1,80,0.00,,---,0.00,VWS V14.01,2013-07-09 02:13:00,
2013-07-08 22:14:00,81.3,67.1,28.91,West,260,0.0,0.0,62,0.00,,---,0.00,VWS V14.01,2013-07-09 02:14:00,
2013-07-08 22:15:00,81.3,67.1,28.91,SW,221,0.0,4.5,62,0.00,,---,0.00,VWS V14.01,2013-07-09 02:15:00,
2013-07-08 22:16:00,81.3,67.1,28.91,WSW,241,0.0,4.0,62,0.00,,---,0.00,VWS V14.01,2013-07-09 02:16:00,
2013-07-08 22:18:00,76.8,70.2,29.00,SSW,213,0.0,0.0,80,0.00,,---,0.00,VWS V14.01,2013-07-09 02:18:00,
2013-07-08 22:19:00,81.3,67.1,28.91,WSW,246,0.0,5.4,62,0.00,,---,0.00,VWS V14.01,2013-07-09 02:19:00,
2013-07-08 22:21:00,81.3,67.5,28.91,WSW,243,0.0,4.0,63,0.00,,---,0.00,VWS V14.01,2013-07-09 02:21:00,
2013-07-08 22:23:00,76.8,70.2,29.00,South,177,0.0,0.0,80,0.00,,---,0.00,VWS V14.01,2013-07-09 02:23:00,
2013-07-08 22:24:00,81.1,67.4,28.91,WSW,243,0.0,0.0,63,0.00,,---,0.00,VWS V14.01,2013-07-09 02:24:00,
2013-07-08 22:25:00,81.1,67.4,28.91,WSW,243,0.0,4.0,63,0.00,,---,0.00,VWS V14.01,2013-07-09 02:25:00,
2013-07-08 22:26:00,81.1,67.4,28.91,SW,219,0.0,4.5,63,0.00,,---,0.00,VWS V14.01,2013-07-09 02:26:00,
2013-07-08 22:27:00,81.1,67.4,28.91,West,260,5.4,5.4,63,0.00,,---,0.00,VWS V14.01,2013-07-09 02:27:00,
2013-07-08 22:28:00,81.1,67.8,28.91,WSW,251,0.0,5.4,64,0.00,,---,0.00,VWS V14.01,2013-07-09 02:28:00,
2013-07-08 22:29:00,76.8,70.2,29.00,WSW,246,0.0,2.7,80,0.00,,---,0.00,VWS V14.01,2013-07-09 02:29:00,
2013-07-08 22:30:00,81.1,67.8,28.91,SW,234,0.0,3.1,64,0.00,,---,0.00,VWS V14.01,2013-07-09 02:30:00,
2013-07-08 22:31:00,81.1,67.8,28.91,SSE,152,3.6,5.8,64,0.00,,---,0.00,VWS V14.01,2013-07-09 02:31:00,
2013-07-08 22:33:00,81.0,67.7,28.91,SW,232,0.0,4.9,64,0.00,,---,0.00,VWS V14.01,2013-07-09 02:33:00,
2013-07-08 22:34:00,76.6,70.0,29.00,WSW,247,0.0,0.0,80,0.00,,---,0.00,VWS V14.01,2013-07-09 02:34:00,
2013-07-08 22:36:00,81.0,67.7,28.91,SW,232,0.0,0.0,64,0.00,,---,0.00,VWS V14.01,2013-07-09 02:36:00,
2013-07-08 22:38:00,81.0,68.1,28.91,SW,232,0.0,0.0,65,0.00,,---,0.00,VWS V14.01,2013-07-09 02:38:00,
2013-07-08 22:39:00,76.6,70.0,29.00,WSW,247,0.0,0.0,80,0.00,,---,0.00,VWS V14.01,2013-07-09 02:39:00,
2013-07-08 22:40:00,81.0,68.1,28.91,SW,219,2.7,3.6,65,0.00,,---,0.00,VWS V14.01,2013-07-09 02:40:00,
2013-07-08 22:41:00,81.0,68.1,28.91,SW,232,0.0,3.1,65,0.00,,---,0.00,VWS V14.01,2013-07-09 02:41:00,
2013-07-08 22:42:00,81.0,68.1,28.91,SW,232,0.0,0.0,65,0.00,,---,0.00,VWS V14.01,2013-07-09 02:42:00,
2013-07-08 22:43:00,81.0,68.1,28.91,SW,232,0.0,3.6,65,0.00,,---,0.00,VWS V14.01,2013-07-09 02:43:00,
2013-07-08 22:44:00,81.0,68.1,28.91,SW,232,0.0,0.0,65,0.00,,---,0.00,VWS V14.01,2013-07-09 02:44:00,
2013-07-08 22:46:00,76.5,69.8,29.00,WSW,238,0.0,0.0,80,0.00,,---,0.00,VWS V14.01,2013-07-09 02:46:00,
2013-07-08 22:47:00,80.8,67.9,28.91,SW,220,0.0,3.1,65,0.00,,---,0.00,VWS V14.01,2013-07-09 02:47:00,
2013-07-08 22:48:00,80.8,68.4,28.91,SW,220,0.0,0.0,66,0.00,,---,0.00,VWS V14.01,2013-07-09 02:48:00,
2013-07-08 22:49:00,80.8,68.4,28.91,SW,220,0.0,0.0,66,0.00,,---,0.00,VWS V14.01,2013-07-09 02:49:00,
2013-07-08 22:50:00,80.8,68.4,28.91,WSW,247,3.6,4.5,66,0.00,,---,0.00,VWS V14.01,2013-07-09 02:50:00,
2013-07-08 22:51:00,76.5,69.8,29.00,SW,223,0.0,2.7,80,0.00,,---,0.00,VWS V14.01,2013-07-09 02:51:00,
2013-07-08 22:52:00,80.8,68.4,28.91,West,270,3.6,4.9,66,0.00,,---,0.00,VWS V14.01,2013-07-09 02:52:00,
2013-07-08 22:55:00,80.6,68.2,28.91,WSW,240,0.0,3.6,66,0.00,,---,0.00,VWS V14.01,2013-07-09 02:55:00,
2013-07-08 22:56:00,76.3,69.7,29.00,SW,235,0.0,3.6,80,0.00,,---,0.00,VWS V14.01,2013-07-09 02:56:00,
2013-07-08 22:57:00,80.6,68.2,28.91,SW,228,0.0,0.0,66,0.00,,---,0.00,VWS V14.01,2013-07-09 02:57:00,
2013-07-08 22:58:00,80.6,68.2,28.91,SW,228,0.0,2.7,66,0.00,,---,0.00,VWS V14.01,2013-07-09 02:58:00,
2013-07-08 22:59:00,80.6,68.2,28.91,SW,228,0.0,0.0,66,0.00,,---,0.00,VWS V14.01,2013-07-09 02:59:00,
2013-07-08 23:01:00,80.4,68.0,28.91,SW,231,2.7,2.7,66,0.00,,---,0.00,VWS V14.01,2013-07-09 03:01:00,
2013-07-08 23:02:00,76.3,69.7,29.00,WSW,247,0.0,3.1,80,0.00,,---,0.00,VWS V14.01,2013-07-09 03:02:00,
2013-07-08 23:03:00,80.4,68.0,28.91,NW,321,2.7,5.8,66,0.00,,---,0.00,VWS V14.01,2013-07-09 03:03:00,
2013-07-08 23:04:00,80.4,68.0,28.91,SSW,197,5.4,6.7,66,0.00,,---,0.00,VWS V14.01,2013-07-09 03:04:00,
2013-07-08 23:05:00,80.4,68.0,28.91,SSW,210,3.6,5.4,66,0.00,,---,0.00,VWS V14.01,2013-07-09 03:05:00,
2013-07-08 23:06:00,80.4,68.0,28.91,West,266,4.9,4.9,66,0.00,,---,0.00,VWS V14.01,2013-07-09 03:06:00,
2013-07-08 23:07:00,76.3,69.7,29.00,WSW,247,0.0,2.7,80,0.00,,---,0.00,VWS V14.01,2013-07-09 03:07:00,
2013-07-08 23:08:00,80.4,67.6,28.91,SW,226,0.0,5.4,65,0.00,,---,0.00,VWS V14.01,2013-07-09 03:08:00,
2013-07-08 23:09:00,80.4,67.6,28.91,SW,230,4.9,6.7,65,0.00,,---,0.00,VWS V14.01,2013-07-09 03:09:00,
2013-07-08 23:10:00,80.4,67.6,28.91,SW,231,2.7,4.9,65,0.00,,---,0.00,VWS V14.01,2013-07-09 03:10:00,
2013-07-08 23:11:00,80.4,67.6,28.91,SW,233,2.7,4.0,65,0.00,,---,0.00,VWS V14.01,2013-07-09 03:11:00,
2013-07-08 23:12:00,76.3,69.7,29.00,SW,233,0.0,4.0,80,0.00,,---,0.00,VWS V14.01,2013-07-09 03:12:00,
2013-07-08 23:13:00,80.4,67.6,28.91,WNW,301,0.0,3.1,65,0.00,,---,0.00,VWS V14.01,2013-07-09 03:13:00,
2013-07-08 23:14:00,80.4,67.6,28.91,WSW,252,0.0,4.9,65,0.00,,---,0.00,VWS V14.01,2013-07-09 03:14:00,
2013-07-08 23:15:00,80.4,67.6,28.91,SW,230,5.4,5.4,65,0.00,,---,0.00,VWS V14.01,2013-07-09 03:15:00,
2013-07-08 23:16:00,80.4,67.6,28.91,SSE,151,0.0,5.8,65,0.00,,---,0.00,VWS V14.01,2013-07-09 03:16:00,
2013-07-08 23:17:00,76.3,69.7,29.00,WSW,247,3.6,4.0,80,0.00,,---,0.00,VWS V14.01,2013-07-09 03:17:00,
2013-07-08 23:18:00,80.4,67.6,28.91,WNW,285,0.0,4.5,65,0.00,,---,0.00,VWS V14.01,2013-07-09 03:18:00,
2013-07-08 23:19:00,80.4,67.6,28.91,West,273,0.0,4.0,65,0.00,,---,0.00,VWS V14.01,2013-07-09 03:19:00,
2013-07-08 23:20:00,80.4,67.6,28.91,West,272,0.0,0.0,65,0.00,,---,0.00,VWS V14.01,2013-07-09 03:20:00,
2013-07-08 23:21:00,80.4,67.6,28.91,West,266,4.9,4.9,65,0.00,,---,0.00,VWS V14.01,2013-07-09 03:21:00,
2013-07-08 23:22:00,76.3,69.3,29.00,WSW,245,0.0,0.0,79,0.00,,---,0.00,VWS V14.01,2013-07-09 03:22:00,
2013-07-08 23:23:00,80.4,67.6,28.91,SW,222,0.0,0.0,65,0.00,,---,0.00,VWS V14.01,2013-07-09 03:23:00,
2013-07-08 23:24:00,80.4,67.6,28.91,SW,231,2.7,4.9,65,0.00,,---,0.00,VWS V14.01,2013-07-09 03:24:00,
2013-07-08 23:25:00,80.4,67.6,28.91,SW,231,0.0,2.7,65,0.00,,---,0.00,VWS V14.01,2013-07-09 03:25:00,
2013-07-08 23:26:00,80.4,67.6,28.91,SW,231,0.0,0.0,65,0.00,,---,0.00,VWS V14.01,2013-07-09 03:26:00,
2013-07-08 23:27:00,76.3,69.3,29.00,WSW,240,0.0,0.0,79,0.00,,---,0.00,VWS V14.01,2013-07-09 03:27:00,
2013-07-08 23:28:00,80.2,67.4,28.91,SW,231,0.0,0.0,65,0.00,,---,0.00,VWS V14.01,2013-07-09 03:28:00,
2013-07-08 23:29:00,80.2,67.4,28.91,SSW,201,0.0,0.0,65,0.00,,---,0.00,VWS V14.01,2013-07-09 03:29:00,
2013-07-08 23:30:00,80.2,67.4,28.91,SSW,202,0.0,0.0,65,0.00,,---,0.00,VWS V14.01,2013-07-09 03:30:00,
2013-07-08 23:31:00,80.2,67.4,28.91,WSW,245,4.5,4.5,65,0.00,,---,0.00,VWS V14.01,2013-07-09 03:31:00,
2013-07-08 23:32:00,76.3,68.9,29.00,WSW,257,0.0,6.3,78,0.00,,---,0.00,VWS V14.01,2013-07-09 03:32:00,
2013-07-08 23:33:00,80.2,67.4,28.91,SW,230,0.0,4.5,65,0.00,,---,0.00,VWS V14.01,2013-07-09 03:33:00,
2013-07-08 23:34:00,80.2,67.4,28.91,SW,229,0.0,0.0,65,0.00,,---,0.00,VWS V14.01,2013-07-09 03:34:00,
2013-07-08 23:35:00,80.2,67.4,28.91,SW,230,0.0,0.0,65,0.00,,---,0.00,VWS V14.01,2013-07-09 03:35:00,
2013-07-08 23:37:00,76.1,68.8,29.00,SW,216,0.0,4.5,78,0.00,,---,0.00,VWS V14.01,2013-07-09 03:37:00,
2013-07-08 23:38:00,80.1,67.2,28.91,SW,229,0.0,0.0,65,0.00,,---,0.00,VWS V14.01,2013-07-09 03:38:00,
2013-07-08 23:39:00,80.1,67.2,28.91,WSW,238,0.0,3.6,65,0.00,,---,0.00,VWS V14.01,2013-07-09 03:39:00,
2013-07-08 23:41:00,80.1,67.2,28.91,SW,226,0.0,0.0,65,0.00,,---,0.00,VWS V14.01,2013-07-09 03:41:00,
2013-07-08 23:42:00,76.1,68.8,29.00,SSW,195,0.0,0.0,78,0.00,,---,0.00,VWS V14.01,2013-07-09 03:42:00,
2013-07-08 23:44:00,79.9,67.1,28.91,South,180,0.0,3.6,65,0.00,,---,0.00,VWS V14.01,2013-07-09 03:44:00,
2013-07-08 23:45:00,79.9,67.1,28.91,South,180,0.0,2.7,65,0.00,,---,0.00,VWS V14.01,2013-07-09 03:45:00,
2013-07-08 23:47:00,79.9,67.1,28.91,SW,223,0.0,6.7,65,0.00,,---,0.00,VWS V14.01,2013-07-09 03:47:00,
2013-07-08 23:49:00,75.9,68.9,29.00,WSW,237,0.0,0.0,79,0.00,,---,0.00,VWS V14.01,2013-07-09 03:49:00,
2013-07-08 23:50:00,79.9,67.1,28.91,ESE,107,0.0,0.0,65,0.00,,---,0.00,VWS V14.01,2013-07-09 03:50:00,
2013-07-08 23:51:00,79.7,66.9,28.91,ESE,107,0.0,0.0,65,0.00,,---,0.00,VWS V14.01,2013-07-09 03:51:00,
2013-07-08 23:52:00,79.7,67.3,28.91,ESE,107,0.0,0.0,66,0.00,,---,0.00,VWS V14.01,2013-07-09 03:52:00,
2013-07-08 23:53:00,79.7,67.3,28.91,ESE,107,0.0,0.0,66,0.00,,---,0.00,VWS V14.01,2013-07-09 03:53:00,
2013-07-08 23:54:00,79.7,67.3,28.91,ESE,107,0.0,0.0,66,0.00,,---,0.00,VWS V14.01,2013-07-09 03:54:00,
2013-07-08 23:55:00,75.7,68.8,29.00,SW,230,0.0,0.0,79,0.00,,---,0.00,VWS V14.01,2013-07-09 03:55:00,
2013-07-08 23:56:00,79.7,67.3,28.91,SSW,210,0.0,3.6,66,0.00,,---,0.00,VWS V14.01,2013-07-09 03:56:00,
2013-07-08 23:57:00,79.7,67.3,28.91,SSW,210,0.0,0.0,66,0.00,,---,0.00,VWS V14.01,2013-07-09 03:57:00,
2013-07-08 23:58:00,79.5,67.2,28.91,WSW,245,0.0,4.5,66,0.00,,---,0.00,VWS V14.01,2013-07-09 03:58:00,
2013-07-08 23:59:00,79.5,67.2,28.91,West,263,0.0,3.6,66,0.00,,---,0.00,VWS V14.01,2013-07-09 03:59:00,